[[{"header":{"parameterUnit":"m.s-1","parameterCategory":1,"la1":31.0,"la2":29.5877,"lo1":-88.7671,"lo2":-86.6584,"dy":0.0162,"dx":0.0185,"nx":115,"ny":88,"refTime":"2023-04-08T12:00:00:Z","depth":0,"parameterNumber":2,"parameterNumberName":"U-component_of_WINDS"},"data":[0.0,0.0,0.0,0.0,0.0,0.0,0.0,0.0,0.0,0.0,0.0,0.0,0.0,0.0,0.0,0.0,0.0,0.0,0.0,0.0,0.0,0.0,0.0,0.0,0.0,0.0,0.0,0.0,0.0,0.0,0.0,0.0,0.0,0.0,0.0,0.0,0.0,0.0,0.0,0.0,0.0,0.0,0.0,0.0,0.0,0.0,0.0,0.0,0.0,0.0,0.0,0.0,0.0,0.0,0.0,0.0,0.0,0.0,0.0,0.0,0.0,0.0,0.0,0.0,0.0,0.0,0.0,0.0,0.0,0.0,0.0,0.0,0.0,0.0,0.0,0.0,0.0,0.0,0.0,0.0,0.0,0.0,0.0,0.0,0.0,0.0,0.0,0.0,0.0,0.0,0.0,0.0,0.0,0.0,0.0,0.0,0.0,0.0,0.0,0.0,0.0,0.0,0.0,0.0,0.0,0.0,0.0,0.0,0.0,0.0,0.0,0.0,0.0,0.0,0.0,0.0,0.0,0.0,0.0,0.0,0.0,0.0,0.0,0.0,0.0,0.0,0.0,0.0,0.0,0.0,0.0,0.0,0.0,0.0,0.0,0.0,0.0,0.0,0.0,0.0,0.0,0.0,0.0,0.0,0.0,0.0,0.0,0.0,0.0,0.0,0.0,0.0,0.0,0.0,0.0,0.0,0.0,0.0,0.0,0.0,0.0,0.0,0.0,0.0,0.0,0.0,0.0,0.0,0.0,0.0,0.0,0.0,0.0,0.0,0.0,0.0,0.0,0.0,0.0,0.0,0.0,0.0,0.0,0.0,0.0,0.0,0.0,0.0,0.0,0.0,0.0,0.0,0.0,0.0,0.0,0.0,0.0,0.0,0.0,0.0,0.0,0.0,0.0,0.0,0.0,0.0,0.0,0.0,0.0,0.0,0.0,0.0,0.0,0.0,0.0,0.0,0.0,0.0,0.0,0.0,0.0,0.0,0.0,0.0,0.0,0.0,0.0,0.0,0.0,0.0,0.0,0.0,0.0,0.0,0.0,0.0,0.0,0.0,0.0,0.0,0.0,0.0,0.0,0.0,0.0,0.0,0.0,0.0,0.0,0.0,0.0,0.0,0.0,0.0,0.0,0.0,0.0,0.0,0.0,0.0,0.0,0.0,0.0,0.0,0.0,0.0,0.0,0.0,0.0,0.0,0.0,0.0,0.0,0.0,0.0,0.0,0.0,0.0,0.0,0.0,0.0,0.0,0.0,0.0,0.0,0.0,0.0,0.0,0.0,0.0,0.0,0.0,0.0,0.0,0.0,0.0,0.0,0.0,0.0,0.0,0.0,0.0,0.0,0.0,0.0,0.0,0.0,0.0,0.0,0.0,0.0,0.0,0.0,0.0,0.0,0.0,0.0,0.0,0.0,0.0,0.0,0.0,0.0,0.0,0.0,0.0,0.0,0.0,0.0,0.0,0.0,0.0,0.0,0.0,0.0,0.0,0.0,0.0,0.0,0.0,0.0,0.0,0.0,0.0,0.0,0.0,0.0,0.0,0.0,0.0,0.0,0.0,0.0,0.0,0.0,0.0,0.0,0.0,0.0,0.0,0.0,0.0,0.0,0.0,0.0,0.0,0.0,0.0,0.0,0.0,0.0,0.0,0.0,0.0,0.0,0.0,0.0,0.0,0.0,0.0,0.0,0.0,0.0,0.0,0.0,0.0,0.0,0.0,0.0,0.0,0.0,0.0,0.0,0.0,0.0,0.0,0.0,0.0,0.0,0.0,0.0,0.0,0.0,0.0,0.0,0.0,0.0,0.0,0.0,0.0,0.0,0.0,0.0,0.0,0.0,0.0,0.0,0.0,0.0,0.0,0.0,0.0,0.0,0.0,0.0,0.0,0.0,0.0,0.0,0.0,0.0,0.0,0.0,0.0,0.0,0.0,0.0,0.0,0.0,0.0,0.0,0.0,0.0,0.0,0.0,0.0,0.0,0.0,0.0,0.0,0.0,0.0,0.0,0.0,0.0,0.0,0.0,0.0,0.0,0.0,0.0,0.0,0.0,0.0,0.0,0.0,0.0,0.0,0.0,0.0,0.0,0.0,0.0,0.0,0.0,0.0,0.0,0.0,0.0,0.0,0.0,0.0,0.0,0.0,0.0,0.0,0.0,0.0,0.0,0.0,0.0,0.0,0.0,0.0,0.0,0.0,0.0,0.0,0.0,0.0,0.0,0.0,0.0,0.0,0.0,0.0,0.0,0.0,0.0,0.0,0.0,0.0,0.0,0.0,0.0,0.0,0.0,0.0,0.0,0.0,0.0,0.0,0.0,0.0,0.0,0.0,0.0,0.0,0.0,0.0,0.0,0.0,0.0,0.0,0.0,0.0,0.0,0.0,0.0,0.0,0.0,0.0,0.0,0.0,0.0,0.0,0.0,0.0,0.0,0.0,0.0,0.0,0.0,0.0,0.0,0.0,0.0,0.0,0.0,0.0,0.0,0.0,0.0,0.0,0.0,0.0,0.0,0.0,0.0,0.0,0.0,0.0,0.0,0.0,0.0,0.0,0.0,0.0,0.0,0.0,0.0,0.0,0.0,0.0,0.0,0.0,0.0,0.0,0.0,0.0,0.0,0.0,0.0,0.0,0.0,0.0,0.0,0.0,0.0,0.0,0.0,0.0,0.0,0.0,0.0,0.0,0.0,0.0,0.0,0.0,0.0,0.0,0.0,0.0,0.0,0.0,0.0,0.0,0.0,0.0,0.0,0.0,0.0,0.0,0.0,0.0,0.0,0.0,0.0,0.0,0.0,0.0,0.0,0.0,0.0,0.0,0.0,0.0,0.0,0.0,0.0,0.0,0.0,0.0,0.0,0.0,0.0,0.0,0.0,0.0,0.0,0.0,0.0,0.0,0.0,0.0,0.0,0.0,0.0,0.0,0.0,0.0,0.0,0.0,0.0,0.0,0.0,0.0,0.0,0.0,0.0,0.0,0.0,0.0,0.0,0.0,0.0,0.0,0.0,0.0,0.0,0.0,0.0,0.0,0.0,0.0,0.0,0.0,0.0,0.0,0.0,0.0,0.0,0.0,0.0,0.0,0.0,0.0,0.0,0.0,0.0,0.0,0.0,0.0,0.0,0.0,0.0,0.0,0.0,0.0,0.0,0.0,0.0,0.0,0.0,0.0,0.0,0.0,0.0,0.0,0.0,0.0,0.0,0.0,0.0,0.0,0.0,0.0,0.0,0.0,0.0,0.0,0.0,0.0,0.0,0.0,0.0,0.0,0.0,0.0,0.0,0.0,0.0,0.0,0.0,0.0,0.0,0.0,0.0,0.0,0.0,0.0,0.0,0.0,0.0,0.0,0.0,0.0,0.0,0.0,0.0,0.0,0.0,0.0,0.0,0.0,0.0,0.0,0.0,0.0,0.0,0.0,0.0,0.0,0.0,0.0,0.0,0.0,0.0,0.0,0.0,0.0,0.0,0.0,0.0,0.0,0.0,0.0,0.0,0.0,0.0,0.0,0.0,0.0,0.0,0.0,0.0,0.0,0.0,0.0,0.0,0.0,0.0,0.0,0.0,0.0,0.0,0.0,0.0,0.0,0.0,0.0,0.0,0.0,0.0,0.0,0.0,0.0,0.0,0.0,0.0,0.0,0.0,0.0,0.0,0.0,0.0,0.0,0.0,0.0,0.0,0.0,0.0,0.0,0.0,0.0,0.0,0.0,0.0,0.0,0.0,0.0,0.0,0.0,0.0,0.0,0.0,0.0,0.0,0.0,0.0,0.0,0.0,0.0,0.0,0.0,0.0,0.0,0.0,0.0,0.0,0.0,0.0,0.0,0.0,0.0,0.0,0.0,0.0,0.0,0.0,0.0,0.0,0.0,0.0,0.0,0.0,0.0,0.0,0.0,0.0,0.0,0.0,0.0,0.0,0.0,0.0,0.0,0.0,0.0,0.0,0.0,0.0,0.0,0.0,0.0,0.0,0.0,0.0,0.0,0.0,0.0,0.0,0.0,0.0,0.0,0.0,0.0,0.0,0.0,0.0,0.0,0.0,0.0,0.0,0.0,0.0,0.0,0.0,0.0,0.0,0.0,0.0,0.0,0.0,0.0,0.0,0.0,0.0,0.0,0.0,0.0,0.0,0.0,0.0,0.0,0.0,0.0,0.0,0.0,0.0,0.0,0.0,0.0,0.0,0.0,0.0,0.0,0.0,0.0,0.0,0.0,0.0,0.0,0.0,0.0,0.0,0.0,0.0,0.0,0.0,0.0,0.0,0.0,0.0,0.0,2.0262,0.0,0.0,0.0,0.0,0.0,0.0,0.0,0.0,0.0,0.0,0.0,0.0,0.0,0.0,0.0,0.0,0.0,0.0,0.0,0.0,0.0,0.0,0.0,0.0,0.0,0.0,0.0,0.0,0.0,0.0,0.0,0.0,0.0,0.0,0.0,0.0,0.0,0.0,0.0,0.0,0.0,0.0,0.0,0.0,0.0,0.0,0.0,0.0,0.0,0.0,0.0,0.0,0.0,0.0,0.0,0.0,0.0,0.0,0.0,0.0,0.0,0.0,0.0,0.0,0.0,0.0,0.0,0.0,0.0,0.0,0.0,0.0,0.0,0.0,0.0,0.0,0.0,0.0,0.0,0.0,0.0,0.0,0.0,0.0,0.0,0.0,0.0,0.0,0.0,0.0,0.0,0.0,0.0,0.0,0.0,0.0,0.0,0.0,0.0,0.0,0.0,0.0,0.0,0.0,0.0,0.0,0.0,0.0,0.0,0.0,1.9423,2.0317,2.0069,2.0053,2.0352,0.0,0.0,0.0,0.0,0.0,0.0,0.0,0.0,0.0,0.0,0.0,0.0,0.0,0.0,0.0,0.0,0.0,0.0,0.0,0.0,0.0,0.0,0.0,0.0,0.0,0.0,0.0,0.0,0.0,0.0,0.0,0.0,0.0,0.0,0.0,0.0,0.0,0.0,0.0,0.0,0.0,0.0,0.0,0.0,0.0,0.0,0.0,0.0,0.0,0.0,0.0,0.0,0.0,0.0,0.0,0.0,0.0,0.0,0.0,0.0,0.0,0.0,0.0,0.0,0.0,0.0,0.0,0.0,0.0,0.0,0.0,0.0,0.0,0.0,0.0,0.0,0.0,0.0,0.0,0.0,0.0,0.0,0.0,0.0,0.0,0.0,0.0,0.0,0.0,0.0,0.0,0.0,0.0,0.0,0.0,0.0,0.0,0.0,0.0,0.0,0.0,0.0,0.0,0.0,0.0,0.0,0.0,0.0,0.0,0.0,0.0,0.0,2.0838,2.0223,1.9905,0.0,0.0,0.0,0.0,0.0,0.0,0.0,0.0,0.0,0.0,0.0,0.0,0.0,0.0,0.0,0.0,0.0,0.0,0.0,0.0,0.0,0.0,0.0,0.0,0.0,0.0,0.0,0.0,0.0,0.0,0.0,0.0,0.0,0.0,0.0,0.0,0.0,0.0,0.0,0.0,0.0,0.0,0.0,0.0,0.0,0.0,0.0,0.0,0.0,0.0,0.0,0.0,0.0,0.0,0.0,0.0,0.0,0.0,0.0,0.0,0.0,0.0,0.0,0.0,0.0,0.0,0.0,0.0,0.0,0.0,0.0,0.0,0.0,0.0,0.0,0.0,0.0,0.0,0.0,0.0,0.0,0.0,0.0,0.0,0.0,0.0,0.0,0.0,0.0,0.0,0.0,0.0,0.0,0.0,0.0,0.0,0.0,0.0,0.0,0.0,0.0,0.0,0.0,0.0,0.0,0.0,0.0,0.0,0.0,0.0,1.9772,2.3384,2.1378,0.0,1.8485,0.0,0.0,0.0,0.0,0.0,0.0,0.0,0.0,0.0,0.0,0.0,0.0,0.0,0.0,0.0,0.0,0.0,0.0,0.0,0.0,0.0,0.0,0.0,0.0,0.0,0.0,0.0,0.0,0.0,0.0,0.0,0.0,0.0,0.0,0.0,0.0,0.0,0.0,0.0,0.0,0.0,0.0,0.0,0.0,0.0,0.0,0.0,0.0,0.0,0.0,0.0,0.0,0.0,0.0,0.0,0.0,0.0,0.0,0.0,0.0,0.0,0.0,0.0,0.0,0.0,0.0,0.0,0.0,0.0,0.0,0.0,0.0,0.0,0.0,0.0,0.0,0.0,0.0,0.0,0.0,0.0,0.0,0.0,0.0,0.0,0.0,0.0,0.0,0.0,0.0,0.0,0.0,0.0,0.0,0.0,0.0,0.0,0.0,0.0,0.0,0.0,0.0,0.0,0.0,0.0,0.0,0.0,0.0,0.0,0.0,1.9936,2.2038,2.0696,1.9314,0.0,0.0,0.0,0.0,0.0,0.0,0.0,0.0,0.0,0.0,0.0,0.0,0.0,0.0,0.0,0.0,0.0,0.0,0.0,0.0,0.0,0.0,0.0,0.0,0.0,0.0,0.0,0.0,0.0,0.0,0.0,0.0,0.0,0.0,0.0,0.0,0.0,0.0,0.0,0.0,0.0,0.0,0.0,0.0,0.0,0.0,0.0,0.0,0.0,0.0,0.0,0.0,0.0,0.0,0.0,0.0,0.0,0.0,0.0,0.0,0.0,0.0,0.0,0.0,0.0,0.0,0.0,0.0,0.0,0.0,0.0,0.0,0.0,0.0,0.0,0.0,0.0,0.0,0.0,0.0,0.0,0.0,0.0,0.0,0.0,0.0,0.0,0.0,0.0,0.0,0.0,0.0,0.0,0.0,0.0,0.0,0.0,0.0,0.0,0.0,0.0,0.0,0.0,0.0,0.0,0.0,0.0,0.0,0.0,0.0,1.9194,1.9451,2.0269,1.9774,1.8647,1.6928,0.0,0.0,0.0,0.0,0.0,0.0,0.0,0.0,0.0,0.0,0.0,0.0,0.0,0.0,0.0,0.0,0.0,0.0,0.0,0.0,0.0,0.0,0.0,0.0,0.0,0.0,0.0,0.0,0.0,0.0,0.0,0.0,0.0,0.0,0.0,0.0,0.0,0.0,0.0,0.0,0.0,0.0,0.0,0.0,0.0,0.0,0.0,0.0,0.0,0.0,0.0,0.0,0.0,0.0,0.0,0.0,0.0,0.0,0.0,0.0,0.0,0.0,0.0,0.0,0.0,0.0,0.0,0.0,0.0,0.0,0.0,0.0,0.0,0.0,0.0,0.0,0.0,0.0,0.0,0.0,0.0,0.0,0.0,0.0,0.0,0.0,0.0,0.0,0.0,0.0,0.0,0.0,0.0,0.0,0.0,0.0,0.0,0.0,0.0,0.0,0.0,0.0,0.0,0.0,0.0,0.0,0.0,0.0,2.1487,1.8829,1.7846,1.8958,1.8674,1.7478,0.0,0.0,0.0,0.0,0.0,0.0,0.0,0.0,0.0,0.0,0.0,0.0,0.0,0.0,0.0,0.0,0.0,0.0,0.0,0.0,0.0,0.0,0.0,0.0,0.0,0.0,0.0,0.0,0.0,0.0,0.0,0.0,0.0,0.0,0.0,0.0,0.0,0.0,0.0,0.0,0.0,0.0,0.0,0.0,0.0,0.0,0.0,0.0,0.0,0.0,0.0,0.0,0.0,0.0,0.0,0.0,0.0,0.0,0.0,0.0,0.0,0.0,0.0,0.0,0.0,0.0,0.0,0.0,0.0,0.0,0.0,0.0,0.0,0.0,0.0,0.0,0.0,0.0,0.0,0.0,0.0,0.0,0.0,0.0,0.0,0.0,0.0,0.0,0.0,0.0,0.0,0.0,0.0,0.0,0.0,0.0,0.0,0.0,0.0,0.0,0.0,0.0,0.0,0.0,0.0,0.0,0.0,0.0,0.0,1.7695,1.6515,1.675,1.8603,1.6619,1.5379,0.0,0.0,0.0,0.0,0.0,0.0,0.0,0.0,0.0,0.0,0.0,0.0,0.0,0.0,0.0,0.0,0.0,0.0,0.0,0.0,0.0,0.0,0.0,0.0,0.0,0.0,0.0,0.0,0.0,0.0,0.0,0.0,0.0,0.0,0.0,0.0,0.0,0.0,0.0,0.0,0.0,0.0,0.0,0.0,0.0,0.0,0.0,0.0,0.0,0.0,0.0,0.0,0.0,0.0,0.0,0.0,0.0,0.0,0.0,0.0,0.0,0.0,0.0,0.0,0.0,0.0,0.0,0.0,0.0,0.0,0.0,0.0,0.0,0.0,0.0,0.0,0.0,0.0,0.0,0.0,0.0,0.0,0.0,0.0,0.0,0.0,0.0,0.0,0.0,0.0,0.0,0.0,0.0,0.0,0.0,0.0,0.0,0.0,0.0,0.0,0.0,0.0,0.0,0.0,0.0,0.0,0.0,0.0,0.0,1.5583,0.0,1.6822,1.7376,1.5201,1.3626,0.0,0.0,0.0,0.0,0.0,0.0,0.0,0.0,0.0,0.0,0.0,0.0,0.0,0.0,0.0,0.0,0.0,0.0,0.0,0.0,0.0,0.0,0.0,0.0,0.0,0.0,0.0,0.0,0.0,0.0,0.0,0.0,0.0,0.0,0.0,0.0,0.0,0.0,0.0,0.0,0.0,0.0,0.0,0.0,0.0,0.0,0.0,0.0,0.0,0.0,0.0,0.0,0.0,0.0,0.0,0.0,0.0,0.0,0.0,0.0,0.0,0.0,0.0,0.0,0.0,0.0,0.0,0.0,0.0,0.0,0.0,0.0,0.0,0.0,0.0,0.0,0.0,0.0,0.0,0.0,0.0,0.0,0.0,0.0,0.0,0.0,0.0,0.0,0.0,0.0,0.0,0.0,0.0,0.0,0.0,0.0,0.0,0.0,0.0,0.0,0.0,0.0,0.0,0.0,0.0,0.0,0.0,0.0,1.4998,1.5695,1.8069,1.7963,1.519,1.4588,1.2344,0.0,0.0,0.0,0.0,0.0,0.0,0.0,0.0,0.0,0.0,0.0,0.0,0.0,0.0,0.0,0.0,0.0,0.0,0.0,0.0,0.0,0.0,0.0,0.0,0.0,0.0,0.0,0.0,0.0,0.0,0.0,0.0,0.0,0.0,0.0,0.0,0.0,0.0,0.0,0.0,0.0,0.0,0.0,0.0,0.0,0.0,0.0,0.0,0.0,0.0,0.0,0.0,0.0,0.0,0.0,0.0,0.0,0.0,0.0,0.0,0.0,0.0,0.0,0.0,0.0,0.0,0.0,0.0,0.0,0.0,0.0,0.0,0.0,0.0,0.0,0.0,0.0,0.0,0.0,0.0,0.0,0.0,0.0,0.0,0.0,0.0,0.0,0.0,0.0,0.0,0.0,0.0,0.0,0.0,0.0,0.0,0.0,0.0,0.0,0.0,0.0,0.0,0.0,0.0,0.0,0.0,0.0,0.0,0.0,1.379,1.5629,1.6638,1.6551,1.3471,1.1991,0.0,0.0,0.0,0.0,0.0,0.0,0.0,0.0,0.0,0.0,0.0,0.0,0.0,0.0,0.0,0.0,0.0,0.0,0.0,0.0,0.0,0.0,0.0,0.0,0.0,0.0,0.0,0.0,0.0,0.0,0.0,0.0,0.0,0.0,0.0,0.0,0.0,0.0,0.0,0.0,0.0,0.0,0.0,0.0,0.0,0.0,0.0,0.0,0.0,0.0,0.0,0.0,0.0,0.0,0.0,0.0,0.0,0.0,0.0,0.0,0.0,0.0,0.0,0.0,0.0,0.0,0.0,0.0,0.0,0.0,0.0,0.0,0.0,0.0,0.0,0.0,0.0,0.0,0.0,0.0,0.0,0.0,0.0,0.0,0.0,0.0,0.0,0.0,0.0,0.0,0.0,0.0,0.0,0.0,0.0,0.0,0.0,0.0,0.0,0.0,0.0,0.0,0.0,0.0,0.0,0.0,0.0,0.0,0.0,1.5647,1.6881,1.7419,1.7054,1.4034,1.2514,1.2666,0.0,0.0,0.0,0.0,0.0,0.0,0.0,0.0,0.0,0.0,0.0,0.0,0.0,0.0,0.0,0.0,0.0,0.0,0.0,0.0,0.0,0.0,0.0,0.0,0.0,0.0,0.0,0.0,0.0,0.0,0.0,0.0,0.0,0.0,0.0,0.0,0.0,0.0,0.0,0.0,0.0,0.0,0.0,0.0,0.0,0.0,0.0,0.0,0.0,0.0,0.0,0.0,0.0,0.0,0.0,0.0,0.0,0.0,0.0,0.0,0.0,0.0,0.0,0.0,0.0,0.0,0.0,0.0,0.0,0.0,0.0,0.0,0.0,0.0,0.0,0.0,0.0,0.0,0.0,0.0,0.0,0.0,0.0,0.0,0.0,0.0,0.0,0.0,0.0,0.0,0.0,0.0,0.0,0.0,0.0,0.0,0.0,0.0,0.0,0.0,0.0,0.0,0.0,0.0,0.0,0.0,0.0,0.0,2.0269,2.1231,2.0199,1.7067,1.5999,1.3854,0.0,0.0,0.0,0.0,0.0,0.0,0.0,0.0,0.0,0.0,0.0,0.0,0.0,0.0,0.0,0.0,0.0,0.0,0.0,0.0,0.0,0.0,0.0,0.0,0.0,0.0,0.0,0.0,0.0,0.0,0.0,0.0,0.0,0.0,0.0,0.0,0.0,0.0,0.0,0.0,0.0,0.0,0.0,0.0,0.0,0.0,0.0,0.0,0.0,0.0,0.0,0.0,0.0,0.0,0.0,0.0,0.0,0.0,0.0,0.0,0.0,0.0,0.0,0.0,0.0,0.0,0.0,0.0,0.0,0.0,0.0,0.0,0.0,0.0,0.0,0.0,0.0,0.0,0.0,0.0,0.0,0.0,0.0,0.0,0.0,0.0,0.0,0.0,0.0,0.0,0.0,0.0,0.0,0.0,0.0,0.0,0.0,0.0,0.0,0.0,0.0,0.0,0.0,0.0,0.0,0.0,0.0,0.0,0.0,2.2121,2.3993,2.3929,2.1761,1.7835,1.5851,0.0,0.0,0.0,0.0,0.0,0.0,0.0,0.0,0.0,0.0,0.0,0.0,0.0,0.0,0.0,0.0,0.0,0.0,0.0,0.0,0.0,0.0,0.0,0.0,0.0,0.0,0.0,0.0,0.0,0.0,0.0,0.0,0.0,0.0,0.0,0.0,0.0,0.0,0.0,0.0,0.0,0.0,0.0,0.0,0.0,0.0,0.0,0.0,0.0,0.0,0.0,0.0,0.0,0.0,0.0,0.0,0.0,0.0,0.0,0.0,0.0,0.0,0.0,0.0,0.0,0.0,0.0,0.0,0.0,0.0,0.0,0.0,0.0,0.0,0.0,0.0,0.0,0.0,0.0,0.0,0.0,0.0,0.0,0.0,0.0,0.0,0.0,0.0,0.0,0.0,0.0,0.0,0.0,0.0,0.0,0.0,0.0,0.0,0.0,0.0,0.0,0.0,0.0,0.0,0.0,0.0,0.0,0.0,2.1148,2.402,2.5239,2.5716,2.5527,2.1607,1.913,0.0,0.0,0.0,0.0,0.0,0.0,0.0,0.0,0.0,0.0,0.0,0.0,0.0,0.0,0.0,0.0,0.0,0.0,0.0,0.0,0.0,0.0,0.0,0.0,0.0,0.0,0.0,0.0,0.0,0.0,0.0,0.0,0.0,0.0,0.0,0.0,0.0,0.0,0.0,0.0,0.0,0.0,0.0,0.0,0.0,0.0,0.0,0.0,0.0,0.0,0.0,0.0,0.0,0.0,0.0,0.0,0.0,0.0,0.0,0.0,0.0,0.0,0.0,0.0,0.0,0.0,0.0,0.0,0.0,0.0,0.0,0.0,0.0,0.0,0.0,0.0,0.0,0.0,0.0,0.0,0.0,0.0,0.0,0.0,0.0,0.0,0.0,0.0,0.0,0.0,0.0,0.0,0.0,0.0,0.0,0.0,0.0,0.0,0.0,0.0,0.0,0.0,0.0,0.0,0.0,0.0,0.0,0.0,2.1764,2.5496,2.5578,2.6388,2.8073,2.5747,2.2663,0.0,0.0,0.0,0.0,0.0,0.0,0.0,0.0,0.0,0.0,0.0,0.0,0.0,0.0,0.0,0.0,0.0,0.0,0.0,0.0,0.0,0.0,0.0,0.0,0.0,0.0,0.0,0.0,0.0,0.0,0.0,0.0,0.0,0.0,0.0,0.0,0.0,0.0,0.0,0.0,0.0,0.0,0.0,0.0,0.0,0.0,0.0,0.0,0.0,0.0,0.0,0.0,0.0,0.0,0.0,0.0,0.0,0.0,0.0,0.0,0.0,0.0,0.0,0.0,0.0,0.0,0.0,0.0,0.0,0.0,0.0,0.0,0.0,0.0,0.0,0.0,0.0,0.0,0.0,0.0,0.0,0.0,0.0,0.0,0.0,0.0,0.0,0.0,0.0,0.0,0.0,0.0,0.0,0.0,0.0,0.0,0.0,0.0,0.0,0.0,0.0,0.0,0.0,0.0,0.0,0.0,0.0,0.0,2.2048,2.4788,2.634,2.7516,2.833,2.5401,2.288,0.0,0.0,0.0,0.0,0.0,0.0,0.0,0.0,0.0,0.0,0.0,0.0,0.0,0.0,0.0,0.0,0.0,0.0,0.0,0.0,0.0,0.0,0.0,0.0,0.0,0.0,0.0,0.0,0.0,0.0,0.0,0.0,0.0,0.0,0.0,0.0,0.0,0.0,0.0,0.0,0.0,0.0,0.0,0.0,0.0,0.0,0.0,0.0,-1.3157,0.0,0.0,0.0,0.0,0.0,0.0,0.0,0.0,0.0,0.0,0.0,0.0,0.0,0.0,0.0,0.0,0.0,0.0,0.0,0.0,0.0,0.0,0.0,0.0,0.0,0.0,0.0,0.0,0.0,0.0,0.0,0.0,0.0,0.0,0.0,0.0,0.0,0.0,0.0,0.0,0.0,0.0,0.0,0.0,0.0,0.0,0.0,0.0,0.0,0.0,0.0,0.0,0.0,0.0,0.0,0.0,0.0,0.0,0.0,2.1798,2.4382,2.538,2.6622,2.8072,2.6397,2.4568,0.0,0.0,0.0,0.0,0.0,0.0,0.0,0.0,0.0,0.0,0.0,0.0,0.0,0.0,0.0,0.0,0.0,0.0,0.0,0.0,0.0,0.0,0.0,0.0,0.0,0.0,0.0,0.0,0.0,0.0,0.0,0.0,0.0,0.0,0.0,0.0,0.0,0.0,0.0,0.0,0.0,0.0,0.0,0.0,0.0,0.0,0.0,0.0,0.0,0.0,0.0,0.0,0.0,0.0,0.0,0.0,0.0,0.0,0.0,0.0,0.0,0.0,0.0,0.0,0.0,0.0,0.0,0.0,0.0,0.0,0.0,0.0,0.0,0.0,0.0,0.0,0.0,0.0,0.0,0.0,0.0,0.0,0.0,0.0,0.0,0.0,0.0,0.0,0.0,0.0,0.0,0.0,0.0,0.0,0.0,0.0,0.0,0.0,0.0,0.0,0.0,0.0,0.0,0.0,0.0,0.0,0.0,1.8626,2.0891,2.3558,2.3652,2.4864,2.7382,2.7373,2.6288,2.4006,0.0,0.0,0.0,0.0,0.0,0.0,0.0,0.0,0.0,0.0,0.0,0.0,0.0,0.0,0.0,0.0,0.0,0.0,0.0,0.0,0.0,0.0,0.0,0.0,0.0,0.0,0.0,0.0,0.0,0.0,0.0,0.0,0.0,0.0,0.0,0.0,0.0,0.0,-0.3196,-0.537,0.0,0.0,0.0,0.0,0.0,0.0,0.0,0.0,-1.4948,0.0,0.0,0.0,0.0,0.0,0.0,0.0,0.0,0.0,0.0,0.0,0.0,0.0,0.0,0.0,0.0,0.0,0.0,0.0,0.0,0.0,0.0,0.0,0.0,0.0,0.0,0.0,0.0,0.0,0.0,0.0,0.0,0.0,0.0,0.0,0.0,0.0,0.0,0.0,0.0,0.0,0.0,0.0,0.0,0.0,0.0,0.0,0.0,0.0,0.0,0.0,0.0,0.0,0.0,0.0,0.0,1.8194,1.7683,1.8576,2.1068,2.203,2.328,2.4954,2.6088,2.5543,2.3222,0.0,0.0,0.0,0.0,0.0,0.0,0.0,0.0,0.0,0.0,0.0,0.0,0.0,0.0,0.0,0.0,0.0,0.0,0.0,0.0,0.0,0.0,0.0,0.0,0.0,0.0,0.0,0.0,0.0,0.0,0.0,0.0,0.0,0.0,0.0,0.0,0.0,0.0,0.0,-0.508,-0.6234,0.0,0.0,0.0,0.0,0.0,0.0,0.0,0.0,-1.7483,0.0,0.0,0.0,0.0,0.0,0.0,0.0,0.0,0.0,0.0,0.0,0.0,0.0,0.0,0.0,0.0,0.0,0.0,0.0,0.0,0.0,0.0,0.0,0.0,0.0,0.0,0.0,0.0,0.0,0.0,0.0,0.0,0.0,0.0,0.0,0.0,0.0,0.0,0.0,0.0,0.0,0.0,0.0,0.0,0.0,0.0,0.0,0.0,0.0,0.0,0.0,0.0,0.0,0.0,0.0,1.6678,1.7461,1.8641,2.0431,2.0442,2.1462,2.3633,2.4431,2.3909,0.0,0.0,0.0,0.0,0.0,0.0,0.0,0.0,0.0,0.0,0.0,0.0,0.0,0.0,0.0,0.0,0.0,0.0,0.0,0.0,0.0,0.0,0.0,0.0,0.0,0.0,0.0,0.0,0.0,0.0,0.0,0.0,0.0,0.0,0.0,0.0,0.0,0.0,0.0,0.0,-0.4186,-0.466,-0.5933,0.0,0.0,0.0,0.0,0.0,0.0,-1.8205,-1.9833,0.0,0.0,0.0,0.0,0.0,0.0,0.0,0.0,0.0,0.0,0.0,0.0,0.0,0.0,0.0,0.0,0.0,0.0,0.0,0.0,0.0,0.0,0.0,0.0,0.0,0.0,0.0,0.0,0.0,0.0,0.0,0.0,0.0,0.0,0.0,0.0,0.0,0.0,0.0,0.0,0.0,0.0,0.0,0.0,0.0,0.0,0.0,0.0,0.0,0.0,0.0,0.0,0.0,0.0,0.0,1.495,1.6816,1.8444,1.9658,1.8763,1.9465,2.2009,2.2456,2.1714,0.0,0.0,0.0,0.0,0.0,0.0,0.0,0.0,0.0,0.0,0.0,0.0,0.0,0.0,0.0,0.0,0.0,0.0,0.0,0.0,0.0,0.0,0.0,0.0,0.0,0.0,0.0,0.0,0.0,0.0,0.0,0.0,0.0,0.0,0.0,0.0,0.0,0.0,0.0,0.0,0.0,-0.3246,-0.335,-0.378,0.0,0.0,0.0,0.0,-1.8749,-2.0129,0.0,0.0,0.0,0.0,0.0,0.0,0.0,0.0,0.0,0.0,0.0,0.0,0.0,0.0,0.0,0.0,0.0,0.0,0.0,0.0,0.0,0.0,0.0,0.0,0.0,0.0,0.0,0.0,0.0,0.0,0.0,0.0,0.0,0.0,0.0,0.0,0.0,0.0,0.0,0.0,0.0,0.0,0.0,0.0,0.0,0.0,0.0,0.0,0.0,0.0,0.0,0.0,0.0,0.0,0.0,0.0,1.3971,1.4538,1.5635,1.7199,1.6846,1.725,1.8633,1.9841,1.8837,0.0,0.0,0.0,0.0,0.0,0.0,0.0,0.0,0.0,0.0,0.0,0.0,0.0,0.0,0.0,0.0,0.0,0.0,0.0,0.0,0.0,0.0,0.0,0.0,0.0,0.0,0.0,0.0,0.0,0.0,0.0,0.0,0.0,0.0,0.0,0.0,0.0,0.0,0.0,0.0,0.0,-0.2747,-0.2935,-0.2191,-0.1279,0.0,0.0,-1.0638,-1.7037,-1.9535,0.0,0.0,0.0,0.0,0.0,0.0,0.0,0.0,0.0,0.0,0.0,0.0,0.0,0.0,0.0,0.0,0.0,0.0,0.0,0.0,0.0,0.0,0.0,0.0,0.0,0.0,0.0,0.0,0.0,0.0,0.0,0.0,0.0,0.0,0.0,0.0,0.0,0.0,0.0,0.0,0.0,0.0,0.0,0.0,0.0,0.0,0.0,0.0,0.0,0.0,0.0,0.0,0.0,0.0,0.0,1.2264,1.3916,1.4782,1.578,1.692,1.6145,1.6055,1.6833,1.6948,1.5346,0.0,0.0,0.0,0.0,0.0,0.0,0.0,0.0,0.0,0.0,0.0,0.0,0.0,0.0,0.0,0.0,0.0,0.0,0.0,0.0,0.0,0.0,0.0,0.0,0.0,0.0,0.0,0.0,0.0,0.0,0.0,0.0,0.0,0.0,0.0,0.0,0.0,0.0,0.0,0.0,0.0,0.0,-0.2721,-0.1833,0.0,0.0,0.0,-0.8728,-1.6356,0.0,0.0,0.0,0.0,0.0,0.0,0.0,0.0,0.0,0.0,0.0,0.0,0.0,0.0,0.0,0.0,0.0,0.0,0.0,0.0,0.0,0.0,0.0,0.0,0.0,0.0,0.0,0.0,0.0,0.0,0.0,0.0,0.0,0.0,0.0,0.0,0.0,0.0,0.0,0.0,0.0,0.0,0.0,0.0,0.0,0.0,0.0,0.0,0.0,0.0,0.0,0.0,0.0,0.0,0.0,0.0,0.0,1.3672,1.4819,1.5757,1.6442,1.5464,1.4852,1.4722,1.4312,0.0,0.0,0.0,0.0,0.0,0.0,0.0,0.0,0.0,0.0,0.0,0.0,0.0,0.0,0.0,0.0,0.0,0.0,0.0,0.0,0.0,0.0,0.0,0.0,0.0,0.0,0.0,0.244,0.0,0.0,0.0,0.0,0.0,0.0,0.0,0.0,0.0,0.0,0.0,0.0,0.0,0.0,-0.2478,-0.2439,-0.1869,-0.1375,0.0,0.0,-0.8365,-1.5781,-1.9064,-2.1639,0.0,0.0,0.0,0.0,0.0,0.0,0.0,0.0,0.0,0.0,0.0,0.0,0.0,0.0,0.0,0.0,0.0,0.0,0.0,0.0,0.0,0.0,0.0,0.0,0.0,0.0,0.0,0.0,0.0,0.0,0.0,0.0,0.0,0.0,0.0,0.0,0.0,0.0,0.0,0.0,0.0,0.0,0.0,0.0,0.0,0.0,0.0,0.0,0.0,0.0,0.0,0.0,0.0,0.0,1.1601,1.2871,1.3653,1.4302,1.483,1.4428,1.3339,1.1618,1.2237,1.0462,0.0,0.0,0.0,0.0,0.0,0.0,0.0,0.0,0.0,0.0,0.0,0.0,0.0,0.0,0.0,0.0,0.0,0.0,0.0,0.0,0.0,0.0,0.0,0.0,0.0,0.0,0.0,0.0,0.0,0.0,0.0,0.0,0.0,0.0,0.0,0.0,0.0,0.0,0.0,0.0,0.0,-0.2163,-0.1971,-0.2203,-0.278,0.0,-0.6523,-1.0186,-1.5129,-1.8278,-2.0879,-2.3214,0.0,0.0,0.0,0.0,0.0,0.0,0.0,0.0,0.0,0.0,0.0,0.0,0.0,0.0,0.0,0.0,0.0,0.0,0.0,0.0,0.0,0.0,0.0,0.0,0.0,0.0,0.0,0.0,0.0,0.0,0.0,0.0,0.0,0.0,0.0,0.0,0.0,0.0,0.0,0.0,0.0,0.0,0.0,0.0,0.0,0.0,0.0,0.0,0.0,0.0,0.0,0.0,0.0,1.1634,1.2893,1.3832,1.4483,1.4709,1.3827,1.2515,1.068,1.062,0.8926,0.0,0.0,0.0,0.0,0.0,0.0,0.0,0.0,0.0,0.0,0.0,0.0,0.0,0.0,0.0,0.0,0.0,0.0,0.0,0.0,0.0,0.0,0.0,0.0,0.0,0.0,0.0,0.0,0.7651,0.7148,0.4381,0.0,0.0,0.0,0.0,0.0,0.0,0.0,0.0,0.0,0.0,0.0093,-0.0731,-0.1305,0.0,0.0,-1.0374,-1.4373,-1.6027,-1.9948,-2.3017,-2.3813,-2.7304,0.0,0.0,0.0,0.0,0.0,0.0,0.0,0.0,0.0,0.0,0.0,0.0,0.0,0.0,0.0,0.0,0.0,0.0,0.0,0.0,0.0,0.0,0.0,0.0,0.0,0.0,0.0,0.0,0.0,0.0,0.0,0.0,0.0,0.0,0.0,0.0,0.0,0.0,0.0,0.0,0.0,0.0,0.0,0.0,0.0,0.0,0.0,0.0,0.0,0.0,0.0,0.0,1.1089,1.2277,1.3208,1.3759,1.3854,1.2908,1.1542,0.9852,0.9927,0.8651,0.0,0.0,0.0,0.0,0.0,0.0,0.0,0.0,0.0,0.0,0.0,0.0,0.0,0.0,0.0,0.0,0.0,0.0,0.0,0.0,0.0,0.0,0.0,0.0,0.0,0.0,0.0,0.0,0.7698,0.6631,0.4149,0.0,0.0,0.0,0.0,0.0,0.0,0.0,0.0,0.0,0.0,0.3206,0.1072,0.0122,-0.2007,-0.6623,-1.4427,-1.9485,-1.8353,-2.3121,-2.6984,-2.7,0.0,0.0,0.0,0.0,0.0,0.0,0.0,0.0,0.0,0.0,0.0,0.0,0.0,0.0,0.0,0.0,0.0,0.0,0.0,0.0,0.0,0.0,0.0,0.0,0.0,0.0,0.0,1.7824,0.0,0.0,1.6602,0.0,0.0,0.0,0.0,0.0,0.0,0.0,0.0,0.0,0.0,0.0,0.0,0.0,0.0,0.0,0.0,0.0,0.0,0.0,0.0,0.0,0.0,0.9654,1.0663,1.142,1.1735,1.1777,1.1411,1.0342,0.8663,1.0337,0.9857,0.6713,0.0,0.0,0.0,0.0,0.0,0.0,0.0,0.0,0.0,0.0,0.0,0.0,0.0,0.0,0.0,0.0,0.0,0.0,0.0,0.0,0.0,0.0,0.0,0.0,0.0,0.0,0.703,0.591,0.517,0.0,0.0,0.0,0.0,0.0,0.0,0.0,0.0,0.0,0.4465,0.6942,0.7163,0.3452,0.1986,-0.1202,-0.7659,-1.8688,-2.5337,-2.2363,-2.7954,-3.2825,0.0,0.0,0.0,0.0,0.0,0.0,0.0,0.0,0.0,0.0,0.0,0.0,0.0,0.0,0.0,0.0,0.0,0.0,0.0,0.0,0.0,0.0,0.0,0.0,0.0,0.0,0.0,2.129,2.0094,0.0,0.0,0.0,0.0,0.0,0.0,0.0,0.0,0.0,0.0,0.0,1.4424,1.4948,0.0,0.0,0.0,0.0,0.0,0.0,0.0,0.0,0.0,0.0,0.0,0.0,1.0102,1.0973,1.1559,1.1532,1.0783,0.9841,0.8894,0.7961,0.8964,0.9435,0.9242,0.0,0.0,0.0,0.0,0.0,0.0,0.0,0.0,0.0,0.0,0.0,0.0,0.0,0.0,0.0,0.0,0.0,0.0,0.0,0.0,0.0,0.0,0.0,0.0,0.0,0.644,0.0,0.0,0.0,0.0,0.0,0.0,0.0,0.0,0.0,0.0,0.0,0.5261,0.793,0.9867,0.9522,0.5444,0.0894,-0.4832,0.0,0.0,0.0,0.0,0.0,0.0,0.0,0.0,0.0,0.0,0.0,0.0,0.0,0.0,-4.319,-3.9026,-3.7072,-3.5805,-3.5009,0.0,0.0,0.0,0.0,0.0,0.0,0.0,0.0,0.0,0.0,0.0,0.0,0.0,0.0,2.2864,2.1825,2.0308,0.0,0.0,0.0,0.0,0.0,0.0,0.0,0.0,1.485,1.5596,1.6313,1.688,1.7112,0.0,1.7799,1.6464,0.0,0.0,0.0,0.0,0.0,0.0,0.0,0.0,1.0064,1.0362,1.0785,1.0514,0.9563,0.8606,0.806,0.7928,0.9166,1.058,1.2176,1.3663,1.4084,0.0,0.0,0.0,0.0,0.0,0.0,0.0,0.0,0.0,0.0,0.0,0.0,0.0,0.0,0.0,0.0,0.0,0.0,0.0,0.0,0.0,0.0,0.0,0.658,0.0,0.0,0.0,0.0,0.0,0.0,0.0,0.0,0.0,0.2157,0.5057,0.7983,1.0545,1.1676,1.038,0.5166,0.0,0.0,0.0,0.0,0.0,0.0,0.0,-4.1955,-3.9527,-4.1567,-4.3649,-4.3944,-4.5248,-4.6342,-4.6461,0.0,0.0,-4.1532,-3.9206,-3.7538,-3.6332,-3.6063,-3.6648,-3.8849,-4.1841,-4.5115,0.0,0.0,0.0,0.0,0.0,0.0,0.0,0.0,2.4249,2.3801,0.0,2.1207,0.0,0.0,0.0,0.0,1.283,1.5203,0.0,0.0,1.7246,1.8163,1.7557,1.832,1.8861,1.9142,2.0611,2.0468,1.8829,1.5977,0.0,0.0,0.0,0.0,0.0,0.0,0.9433,0.89,0.9055,0.8772,0.8067,0.771,0.7814,0.8499,1.0919,1.3269,1.5379,1.6174,1.6367,1.5936,1.5568,0.0,0.0,0.0,0.0,0.0,0.0,0.0,0.0,0.0,0.0,0.0,0.0,0.0,0.0,0.0,0.0,0.0,0.0,0.0,0.0,0.7887,0.0,0.0,0.0,0.0,0.0,0.0,0.0,0.0,0.0,0.0,0.455,0.7679,1.0596,1.2172,0.0,0.0,0.0,0.0,-1.6003,-2.6437,-3.9477,-4.7123,-4.3746,-4.5813,-4.6756,-4.3674,0.0,0.0,-4.5166,-4.5627,-4.6088,-4.6428,-4.6289,-4.5576,-4.491,-4.3093,-4.1145,-3.9251,-3.8437,-3.8958,-4.1282,-4.5227,-4.9465,1.9562,0.0,0.0,0.0,0.0,2.421,2.5578,2.6451,2.6689,2.5904,2.4237,2.215,0.0,0.0,0.0,0.0,0.0,0.0,1.6104,1.6523,1.7579,1.8572,1.9584,2.0294,2.0818,2.1225,2.2051,2.2399,2.2313,2.0957,1.7874,1.3243,0.0,0.0,0.0,0.0,1.0185,0.9487,0.9009,0.8209,0.6988,0.6675,0.7513,0.9564,1.2483,1.4744,1.615,1.7679,1.8507,1.8491,1.757,0.0,0.0,0.0,0.0,0.0,0.0,0.0,0.0,0.0,0.0,0.0,0.0,0.0,0.0,0.0,0.0,0.0,0.0,0.0,0.627,0.9458,0.9896,0.0,0.0,0.0,0.0,0.0,0.0,0.0,0.0,0.0,0.749,0.9073,1.0293,0.0,0.0,0.4209,-0.544,-1.5708,-2.6549,-3.8181,-4.7088,0.0,-5.3182,-5.3117,-5.2053,-4.928,-4.8068,-4.7521,-4.768,-4.7466,-4.754,-4.8546,-4.8112,-4.7436,-4.6827,-4.4306,-4.2048,-4.0805,-4.0601,-4.1855,-4.5257,-4.9413,-5.4069,2.2183,2.0967,2.1795,2.2694,2.3667,2.5418,2.6642,2.7293,2.7497,2.675,2.5318,2.3153,2.1021,1.9006,1.6457,0.0,0.0,0.0,1.6772,1.7582,1.8148,1.9143,2.0372,2.1307,2.2084,2.2714,2.3498,2.4292,2.5042,2.4539,2.2146,1.7938,0.0,0.0,1.2057,1.1632,1.0727,0.9319,0.8771,0.7855,0.6448,0.6591,0.7928,1.0477,1.2966,1.5035,1.672,1.8503,1.9715,2.0327,1.9553,1.7995,0.0,0.0,0.0,0.0,0.0,0.0,0.0,0.0,0.0,0.0,0.0,0.3659,0.1904,0.0,0.0,0.0,0.5655,0.6737,0.8197,1.0423,0.0,0.0,0.0,0.0,0.0,0.0,0.0,0.7725,0.7252,0.6957,0.7036,0.6777,0.6713,0.6862,0.3236,-0.3242,-1.355,0.0,-3.6508,-4.7261,-5.3533,-5.7742,-5.9327,-5.7861,-5.5527,-5.2734,-5.1443,-5.0653,-5.0405,-4.987,-4.9487,-4.9732,-4.9224,-4.852,-4.7632,-4.6167,-4.4696,-4.3257,-4.3455,-4.5257,-4.9119,-5.3552,-5.8254,2.3932,2.403,2.4423,2.5003,2.5859,2.6468,2.7001,2.7377,2.7122,2.6804,2.6211,2.4088,2.2495,2.1174,1.8731,0.0,1.6368,1.7323,1.7698,1.7821,1.8942,1.9702,2.032,2.169,2.2756,2.3563,2.4918,2.6005,2.6845,2.6908,2.5714,2.3341,2.0325,1.7302,1.4436,1.3154,1.1267,0.8782,0.8453,0.7668,0.6402,0.7201,0.8775,1.1159,1.2612,1.457,1.7031,1.863,2.003,2.1249,2.1213,2.0142,1.7962,0.0,0.0,0.0,0.0,0.0,0.0,0.0,0.0,0.0,0.0,0.0,0.0,0.0,0.0,0.0,0.7287,0.0,1.173,1.0943,0.0,0.0,0.0,1.6565,1.03,1.0621,1.0791,0.9526,0.0,0.0,0.4079,0.1732,0.0404,0.0592,-0.4741,-1.2249,-2.1956,-3.4367,-4.5752,-5.4119,-5.9295,-6.2508,-6.3026,-6.065,-5.7783,-5.5371,-5.4854,-5.4837,-5.3958,-5.3003,-5.2131,-5.1221,-5.0114,-4.9141,-4.7827,-4.86,-4.8832,-4.6475,-4.6995,-4.9046,-5.3334,-5.7749,-6.2371,2.5547,2.5544,2.5852,2.6203,2.6435,2.7148,2.7682,2.8035,2.7623,2.7148,2.6435,2.4565,2.2706,2.0716,2.0005,1.89,1.7722,1.8407,1.8548,1.823,1.9114,1.9998,2.0766,2.2086,2.3216,2.4194,2.5309,2.6284,2.7075,2.7826,2.7296,2.5606,2.4122,2.0749,1.5609,1.4852,1.2968,0.9701,0.8804,0.7808,0.674,0.7634,0.9192,1.1376,1.2601,1.425,1.6345,1.7728,1.8855,1.9806,2.0961,2.0492,1.8053,1.9093,0.0,0.0,0.0,0.0,0.0,0.0,0.0,0.0,0.0,0.3005,0.4089,0.0,0.6828,0.0,1.0846,1.1963,1.2253,1.1393,0.0,0.0,1.9378,1.9616,1.6069,1.3614,1.1725,1.0514,0.7695,0.4485,0.1167,-0.3281,-0.8082,-1.2923,-1.561,-2.0845,-3.1488,-4.29,-5.2929,-5.9871,-6.4885,-6.7609,-6.6228,-6.3194,-6.0559,-5.9905,-5.9635,-5.9452,-5.9517,-5.8192,-5.6804,-5.5477,-5.3315,-5.1375,-5.0004,-5.0108,-5.0684,-5.1116,-5.2191,-5.4349,-5.8737,-6.2941,-6.7336,2.6053,2.5519,2.604,2.6123,2.5919,2.694,2.7302,2.7276,2.7093,2.657,2.5788,2.4305,2.2646,2.082,2.0559,1.965,1.8225,1.864,1.867,1.8351,1.9319,2.0185,2.0962,2.2472,2.3734,2.4681,2.5786,2.6721,2.7526,2.833,2.799,2.6618,2.5539,2.2583,1.7883,1.6201,1.3868,1.075,0.883,0.7399,0.649,0.7142,0.8379,1.0048,1.0608,1.1494,1.2781,1.376,1.4675,1.5538,1.7451,1.7958,1.6694,1.8276,1.5482,0.0,0.0,0.0,0.0,0.0,0.0,0.0,0.0,0.0,0.0,0.0,0.9399,1.3713,1.4252,1.4636,1.5443,1.4293,1.5237,1.9455,2.1561,2.1596,1.8984,1.537,1.2147,0.975,0.5368,0.0835,-0.3677,-0.9145,-1.5545,-2.3259,-2.8066,-3.3114,-3.9839,-4.9221,-5.7702,-6.3778,-6.7725,-6.9381,-6.7758,-6.5911,-6.4381,-6.4057,-6.4504,-6.4956,-6.4972,-6.3778,-6.196,-5.9832,-5.6929,-5.4018,-5.2101,-5.1799,-5.2588,-5.4291,-5.6553,-5.9249,-6.2257,-6.666,-7.1315,2.6028,2.496,2.5695,2.5609,2.5104,2.6328,2.6408,2.5955,2.6254,2.5829,2.4796,2.3797,2.241,2.0814,2.0597,1.9635,1.8304,1.8266,1.8215,1.8208,1.9338,2.019,2.0935,2.2803,2.4164,2.5035,2.6142,2.7109,2.7986,2.8384,2.7948,2.6723,2.5413,2.3127,2.0004,1.6896,1.3946,1.1118,0.839,0.6559,0.574,0.6026,0.6802,0.8057,0.7602,0.7734,0.8576,0.8957,0.9564,1.0522,1.2895,1.4265,1.4373,1.5202,1.3448,0.0,0.4449,0.0,0.0,0.0,0.0,0.0,0.0,0.0,0.0,0.9646,1.2849,1.816,1.7673,1.7836,1.958,1.8232,1.8495,2.1414,2.2782,2.2501,1.9905,1.5835,1.163,0.7667,0.2128,-0.371,-0.963,-1.5761,-2.305,-3.2025,-4.0764,-4.6973,-4.9469,-5.5367,-6.1547,-6.6552,-6.8864,-6.988,-6.8525,-6.8242,-6.7878,-6.7318,-6.8295,-6.9897,-6.9545,-6.8635,-6.6854,-6.3915,-6.0674,-5.7402,-5.4171,-5.4004,-5.4942,-5.655,-6.0113,-6.3409,-6.5234,-6.9273,-7.4143,2.6723,2.5936,2.5875,2.5692,2.5381,2.5632,2.5372,2.495,2.5595,2.5461,2.4734,2.3943,2.219,2.0051,1.9916,1.9152,1.7897,1.719,1.7116,1.7513,1.8463,1.9554,2.0908,2.2774,2.4194,2.5098,2.6071,2.679,2.7269,2.7433,2.6947,2.5913,2.4216,2.1895,1.8949,0.0,0.0,0.0,0.6698,0.5465,0.4701,0.4179,0.4885,0.6803,0.4712,0.0,0.8337,0.7828,0.7705,0.8436,1.1247,0.0,0.0,0.0,0.0,0.0,0.0,0.0,0.0,0.0,0.0,0.0,0.82,0.96,1.0506,1.52,1.8879,2.0575,2.1826,2.2248,2.1653,2.1172,2.1645,2.3429,2.2478,2.0901,1.8973,1.3823,0.8412,0.3193,-0.3374,-1.001,-1.6506,-2.4347,-3.2952,-4.2037,-5.1586,-5.9624,-6.5292,-6.539,-6.6488,-6.9719,-7.1539,-7.1482,-6.9633,-6.909,-6.886,-6.8603,-6.9091,-7.0356,-7.1466,-7.1433,-7.0213,-6.7437,-6.4163,-6.1015,-5.8063,-5.7237,-5.7547,-5.9254,-6.3342,-6.7098,-6.8592,-7.1848,-7.5686,2.7071,2.6688,2.6035,2.5557,0.0,2.4859,2.4554,2.435,2.508,2.4913,2.4115,2.3103,2.1608,1.9898,1.9094,1.8268,1.745,1.6897,1.6911,1.7327,1.8431,1.9599,2.086,2.264,2.4028,2.4981,2.5783,2.6184,2.6273,2.6457,2.5711,2.4056,2.2091,1.9811,1.7191,1.3194,0.9663,0.6748,0.573,0.464,0.3546,0.2915,0.2843,0.3277,0.2068,0.0,0.0,0.0,0.0,0.0,0.0,0.0,0.0,1.0302,0.0,0.7586,0.6372,0.5247,0.4217,0.6513,0.8271,0.8924,1.2867,1.5291,1.5095,1.9721,2.301,2.3939,2.4936,2.5113,2.4122,2.392,2.3989,2.4354,2.2406,1.9469,1.5059,1.0623,0.4938,-0.2278,-0.9225,-1.6422,-2.4313,-3.3456,-4.2966,-5.2695,-6.2056,-7.0232,-7.5718,-7.434,-7.2945,-7.513,-7.4981,-7.4257,-7.2507,-7.1134,-7.0365,-7.0501,-7.122,-7.2492,-7.4146,-7.4364,-7.3509,-7.1264,-6.8064,-6.4545,-6.2016,-6.0552,-6.0142,-6.1862,-6.4804,-6.8037,-7.039,-7.3605,-7.6876,2.7547,2.7357,2.646,2.5801,2.5312,2.4895,2.4597,2.4461,2.4363,0.0,0.0,2.2017,2.087,1.9905,1.8345,1.7384,1.6925,1.6759,1.6872,1.7324,1.8722,1.9912,2.0921,2.254,2.3764,2.4476,2.5029,2.5196,2.4878,2.4924,2.3847,2.1771,1.9577,1.7049,1.4162,1.0143,0.7079,0.5156,0.4674,0.3736,0.2258,0.1469,0.0629,-0.033,-0.0738,-0.1139,-0.1519,-0.155,-0.0662,0.1111,0.0327,0.121,0.4454,0.7577,0.842,0.6614,0.6764,0.6416,0.5142,0.7036,0.9344,1.1797,1.7332,2.0551,2.0441,2.3675,2.6225,2.7358,2.7444,2.7079,2.6061,2.5452,2.4962,2.4423,2.098,1.6277,1.1122,0.6719,0.1041,-0.7161,-1.4256,-2.2232,-3.1565,-4.1784,-5.223,-6.2511,-7.1249,-7.9025,-8.3507,-8.1963,-8.0086,-8.1252,-8.0001,-7.7949,-7.6123,-7.4105,-7.2844,-7.2588,-7.3347,-7.4722,-7.6061,-7.6471,-7.6036,-7.4377,-7.1254,-6.8335,-6.5707,-6.3966,-6.3275,-6.4324,-6.6184,-6.8485,-7.1441,-7.456,-7.7374,2.8373,2.7831,2.7772,2.7333,2.6863,2.7022,2.6582,2.5595,2.3592,2.3069,2.3523,2.1257,1.986,1.9264,1.7796,1.6828,1.6185,1.6114,1.6478,1.7317,1.8917,2.0145,2.1095,2.27,2.3229,2.2866,2.3293,2.328,2.2825,2.1692,2.0512,1.9216,1.6904,1.337,0.8968,0.6926,0.4886,0.2682,0.276,0.213,0.0724,-0.1089,-0.1939,-0.1824,-0.4041,-0.4006,-0.1489,-0.2764,-0.2362,0.0239,0.1657,0.2805,0.3777,0.6062,0.7143,0.6944,0.8436,0.8816,0.7487,1.0241,1.3591,1.7173,2.1347,2.4206,2.5263,2.7369,2.9041,2.9827,2.9243,2.8061,2.6553,2.4338,2.3017,2.2398,1.5241,0.9935,0.9469,0.3526,-0.3232,-0.9531,-1.7253,-2.5916,-3.6254,-4.7868,-5.8914,-6.9162,-7.7193,-8.4762,-8.8183,-8.8994,-8.7732,-8.7261,-8.4988,-8.2662,-8.0585,-7.7714,-7.5929,-7.4648,-7.468,-7.5198,-7.5992,-7.6579,-7.6369,-7.529,-7.333,-7.1255,-6.8756,-6.8235,-6.7844,-6.7745,-6.9278,-7.1093,-7.225,-7.4497,-7.6879,3.0926,3.0458,3.0017,2.9698,2.9429,2.8859,2.7821,2.6468,2.4268,2.3213,2.2832,2.0594,1.9146,1.8407,1.7089,1.6365,1.6108,1.661,1.7042,1.7456,1.921,2.0241,2.0589,2.1867,2.2244,2.1787,2.1915,2.1392,2.0249,1.9479,1.8262,1.6455,1.3623,1.0408,0.7012,0.5565,0.4003,0.2073,0.1561,0.0587,-0.0883,-0.2715,-0.4113,-0.5009,-0.544,-0.4899,-0.3466,-0.2842,-0.1577,0.0448,0.2303,0.3215,0.3147,0.6371,0.8087,0.7652,0.9834,1.1065,1.0848,1.4021,1.7064,1.9648,2.3296,2.6261,2.8154,3.0036,3.1257,3.151,3.0685,2.9202,2.6906,2.4268,2.0757,1.57,1.1747,0.6484,-0.057,-0.128,-0.4311,-1.0922,-1.8771,-2.796,-3.8627,-5.0378,-6.1303,-7.0948,-7.9749,-8.6304,-8.8913,-8.9245,-8.9439,-9.0031,-8.8791,-8.7029,-8.5109,-8.2863,-8.0693,-7.8801,-7.7958,-7.7688,-7.7616,-7.7775,-7.7634,-7.6805,-7.554,-7.3986,-7.2025,-7.1305,-7.0953,-7.0972,-7.1299,-7.2419,-7.3743,-7.6585,-7.9778,3.3308,3.3573,3.244,3.2034,3.1974,3.0712,2.9303,2.7618,2.5295,2.3521,2.2089,1.9996,1.8513,1.7674,1.6484,1.6126,1.6412,1.7218,1.7697,1.7958,1.9613,2.0312,2.0072,2.0934,2.1027,2.0461,2.0306,1.9345,1.7891,1.7523,1.6059,1.3437,1.0573,0.8066,0.5999,0.4741,0.3461,0.2075,0.0806,-0.0679,-0.2414,-0.4125,-0.5904,-0.7434,-0.6307,-0.5461,-0.527,-0.3062,-0.1156,0.0243,0.1811,0.2699,0.2881,0.6686,0.889,0.8842,1.1316,1.3302,1.429,1.7326,1.9786,2.1192,2.4752,2.7843,2.994,3.1738,3.2588,3.2207,3.128,2.9551,2.6435,2.29,1.7914,1.0587,0.8603,0.3706,-0.6681,-0.5034,-0.4052,-1.0376,-1.7505,-2.6334,-3.7806,-4.9127,-5.9943,-7.0287,-7.8703,-8.3404,-8.4755,-8.6166,-8.7823,-8.9817,-9.0405,-9.0049,-8.9112,-8.727,-8.5108,-8.2961,-8.183,-8.079,-8.0064,-7.9861,-7.9535,-7.8845,-7.8038,-7.6773,-7.577,-7.4845,-7.4388,-7.4286,-7.4041,-7.4333,-7.6475,-7.9933,-8.3498,3.4127,3.6193,3.4552,3.3859,3.3993,3.2723,3.1127,2.9258,2.6207,2.3598,2.1401,1.9251,1.7965,1.7355,1.6609,1.6411,1.6523,1.7476,1.8192,1.8594,1.9986,2.0392,1.9924,2.0079,1.953,1.8469,1.7931,1.7229,1.62,1.536,1.3447,1.0487,0.816,0.6568,0.5309,0.398,0.2977,0.2245,0.063,-0.1396,-0.3768,-0.5693,-0.7089,-0.7903,-0.7562,-0.6899,-0.5834,-0.421,-0.2679,-0.1407,-0.042,0.0926,0.298,0.587,0.8298,1.0057,1.326,1.5506,1.653,1.9333,2.1466,2.2441,2.6247,2.9176,3.0536,3.1918,3.2401,3.1654,3.0624,2.8569,2.5163,1.9432,1.4665,1.1404,0.4828,-0.0313,-0.0802,-0.2589,-0.5038,-0.5432,-1.1743,-1.9363,-3.168,-4.3506,-5.5761,-6.8015,-7.2202,-7.5322,-7.7189,-7.9832,-8.2498,-8.5318,-8.7852,-9.0529,-9.1217,-8.9905,-8.799,-8.6329,-8.5073,-8.3804,-8.288,-8.2073,-8.1625,-8.1622,-8.0738,-8.006,-7.9384,-7.8832,-7.8772,-7.7726,-7.7328,-7.7454,-7.9992,-8.3133,-8.6322,3.5562,3.7821,3.6548,3.5829,3.5284,3.3586,3.1426,2.9083,2.6315,2.3243,2.0121,1.8523,1.7467,1.6715,1.6391,1.6472,1.7136,1.825,1.8842,1.9004,1.992,1.9836,1.9037,1.8792,1.8201,1.729,1.6857,1.6264,1.5323,1.4165,1.2686,1.0996,0.8881,0.689,0.5139,0.3872,0.2484,0.0864,0.0154,-0.1773,-0.4783,-0.6019,-0.712,-0.8246,-0.7876,-0.6754,-0.5207,-0.4423,-0.3192,-0.126,-0.0391,0.094,0.3038,0.6452,0.9411,1.1795,1.6315,1.8518,1.7559,2.125,2.4499,2.6664,2.7753,2.9039,3.0475,3.1238,3.1502,3.129,3.0081,2.7711,2.3428,1.7478,1.2004,0.7621,0.2077,-0.2854,-0.7947,-0.589,-0.5343,-0.7599,-0.9968,-1.474,-2.5116,-3.9168,-5.167,-6.0694,-6.4179,-6.6987,-6.956,-7.2999,-7.7057,-8.0954,-8.5211,-8.9119,-9.1862,-9.2364,-9.0981,-8.9526,-8.8354,-8.7177,-8.6025,-8.5246,-8.488,-8.5142,-8.4598,-8.4091,-8.3398,-8.2754,-8.223,-8.1188,-8.0524,-8.0737,-8.3231,-8.677,-9.0348,3.6521,3.8395,3.8031,3.7423,3.6564,3.4462,3.208,2.9292,2.6671,2.3218,1.9567,1.8429,1.7298,1.6319,1.6133,1.6637,1.7666,1.8608,1.9127,1.9102,1.9492,1.895,1.7648,1.7375,1.6886,1.6341,1.6243,1.5956,1.535,1.4205,1.298,1.1659,0.943,0.7198,0.5209,0.399,0.2355,0.0316,-0.0149,-0.2039,-0.5108,-0.5909,-0.6736,-0.8001,-0.7799,-0.6553,-0.4517,-0.3997,-0.303,-0.1307,-0.0585,0.0822,0.3076,0.7251,1.118,1.4598,1.9234,2.121,1.9474,2.3353,2.6866,2.9225,2.8824,2.8833,2.9773,3.0226,3.0433,3.0368,2.8246,2.4739,2.0811,1.57,0.9766,0.3305,-0.1118,-0.6682,-1.0774,-0.6662,-0.4088,-0.6775,-0.8814,-1.3037,-2.1348,-3.48,-4.6883,-5.2216,-5.6382,-5.9884,-6.3462,-6.784,-7.286,-7.7654,-8.2558,-8.7322,-9.1491,-9.3036,-9.2942,-9.2273,-9.0952,-9.0135,-8.9397,-8.847,-8.8041,-8.8168,-8.8069,-8.8007,-8.761,-8.6887,-8.5641,-8.4506,-8.3765,-8.4197,-8.7011,-9.0485,-9.4157,3.6328,3.8512,3.8582,3.8147,3.7546,3.5968,3.3552,3.0491,2.7355,2.3831,2.0412,1.9091,1.7637,1.638,1.6387,1.6894,1.8,1.8489,1.8686,1.8742,1.8751,1.7688,1.5722,1.5731,1.5584,1.5279,1.5866,1.626,1.6336,1.58,1.423,1.1881,0.9462,0.707,0.5229,0.4156,0.2812,0.0575,-0.0577,-0.2274,-0.4608,-0.5485,-0.5948,-0.6646,-0.7264,-0.6531,-0.4526,-0.2883,-0.2041,-0.2164,-0.1454,0.0061,0.2843,0.8043,1.356,1.8653,2.1872,2.3295,2.3279,2.5614,2.7783,2.8818,2.8897,2.8982,2.8543,2.8811,2.8754,2.8833,2.4076,1.9901,1.636,1.2817,0.7935,0.0931,-0.6429,-0.8485,-0.5228,-0.2796,-0.0486,-0.2067,-0.7265,-1.4208,-2.2421,-3.0917,-3.9293,-4.5437,-4.9934,-5.4361,-5.9615,-6.4874,-7.0612,-7.6032,-8.1213,-8.5969,-9.0632,-9.2867,-9.3398,-9.3452,-9.2895,-9.2497,-9.1965,-9.13,-9.1371,-9.1537,-9.1888,-9.2119,-9.1617,-9.067,-8.9201,-8.7941,-8.6931,-8.7758,-9.0532,-9.3342,-9.6592,3.7281,3.959,3.872,3.814,3.7551,3.545,3.2823,3.0037,2.7775,2.4676,2.1389,2.0188,1.9161,1.8027,1.7654,1.7859,1.8453,1.8931,1.8887,1.8429,1.7764,1.6648,1.5313,1.4379,1.4275,1.4849,1.5869,1.7529,1.9313,1.8513,1.6883,1.4854,1.2876,0.9387,0.4757,0.2918,0.0935,-0.1967,-0.2855,-0.4267,-0.6079,-0.49,-0.4292,-0.5086,-0.6147,-0.5443,-0.2777,-0.2204,-0.1858,-0.1661,-0.1232,0.0066,0.3136,1.0007,1.6388,2.1088,2.4022,2.5736,2.6359,2.7285,2.7647,2.7161,2.6738,2.6546,2.6611,2.6546,2.5719,2.3354,2.0835,1.6503,1.0975,0.82,0.5615,0.109,-0.535,-0.7629,-0.3008,-0.0651,-0.0729,-0.338,-0.8527,-1.5135,-2.271,-2.9971,-3.6232,-4.197,-4.7238,-5.273,-5.8166,-6.39,-7.0008,-7.5582,-8.1065,-8.5905,-8.9766,-9.2275,-9.3571,-9.4369,-9.4688,-9.4866,-9.4635,-9.4831,-9.4784,-9.5175,-9.5841,-9.626,-9.5741,-9.3365,-9.203,-9.1059,-9.0039,-9.0895,-9.3868,-9.602,-9.8664,3.8671,3.9873,3.895,3.8256,3.7724,3.5359,3.2856,3.0419,2.8484,2.5861,2.3088,2.1933,2.1125,2.0294,1.9796,1.9349,1.9123,1.9233,1.8743,1.7757,1.668,1.5463,1.4223,1.3431,1.371,1.5226,1.7619,2.0211,2.2458,2.1987,2.0169,1.7542,1.6307,1.2487,0.6617,0.3878,0.0872,-0.2472,-0.3745,-0.4998,-0.6484,-0.4967,-0.3789,-0.3995,-0.4912,-0.445,-0.217,-0.161,-0.1233,-0.1016,-0.0549,0.131,0.511,1.1728,1.772,2.2048,2.5098,2.7124,2.7947,2.7867,2.6739,2.4774,2.3744,2.324,2.3069,2.123,1.9191,1.7262,1.4324,1.0217,0.6692,0.4486,0.1955,-0.1999,-0.5155,-0.4648,0.0,0.0,0.0,-0.4511,-0.9216,-1.5622,-2.2626,-2.8633,-3.4404,-3.9959,-4.5954,-5.1813,-5.8075,-6.4436,-7.0784,-7.6529,-8.1984,-8.6404,-9.0237,-9.296,-9.4797,-9.5766,-9.6737,-9.7152,-9.7428,-9.7942,-9.8412,-9.8959,-9.9485,-9.9997,-9.8929,-9.6434,-9.4964,-9.4082,-9.3387,-9.3643,-9.6092,-9.8214,-10.042,4.0373,3.9973,3.9208,3.8725,3.8015,3.6213,3.408,3.1935,2.9936,2.7819,2.5511,2.4424,2.363,2.2814,2.2389,2.1552,2.0314,1.9318,1.8089,1.6723,1.552,1.411,1.2609,1.2898,1.4208,1.6218,2.079,2.3885,2.5287,2.5455,2.3756,2.0561,1.9107,1.5658,1.1105,0.6738,0.2747,-0.1193,-0.3197,-0.4472,-0.5567,-0.5584,-0.4706,-0.3439,-0.3748,-0.37,-0.2788,-0.1045,-0.0215,-0.0283,0.0504,0.3714,0.829,1.2856,1.7169,2.1525,2.4923,2.7009,2.798,2.7073,2.4671,2.094,1.994,1.8656,1.6637,1.295,1.0374,0.9884,0.6486,0.2752,0.336,0.1907,-0.234,-1.0768,0.0,0.0,0.0,0.0,-0.122,-0.465,-0.9361,-1.535,-2.1774,-2.7598,-3.3167,-3.9426,-4.5782,-5.2254,-5.9183,-6.6194,-7.2705,-7.8665,-8.3539,-8.7736,-9.1048,-9.4056,-9.5978,-9.7588,-9.8643,-9.9278,-9.9775,-10.0179,-10.0971,-10.1679,-10.2752,-10.32,-10.2731,-10.0377,-9.891,-9.7904,-9.7159,-9.6776,-9.8673,-10.0655,-10.1443,4.1032,4.0148,4.002,3.9404,3.8476,3.7134,3.5394,3.3439,3.228,3.046,2.8318,2.7523,2.6713,2.5704,2.4938,2.3649,2.1876,2.0081,1.8016,1.5841,1.4068,1.293,1.2272,1.2039,1.4238,1.8412,2.2104,2.4882,2.6408,2.6378,2.629,2.6411,2.1148,1.5892,1.0961,0.615,0.1346,-0.2881,-0.5106,-0.6425,-0.6932,-0.596,-0.4885,-0.3939,-0.3719,-0.3401,-0.2811,-0.1213,-0.0306,-0.0076,0.0688,0.3404,0.8227,1.2089,1.6263,2.0799,2.356,2.634,2.8276,2.511,1.961,1.3669,1.2638,1.1852,0.9249,0.6634,0.4448,0.3348,0.1163,0.0621,0.0978,-0.1552,-0.5275,-0.9474,0.0,0.0,0.0,0.0,0.0,-0.4616,-0.9375,-1.4492,-1.9829,-2.5858,-3.3128,-3.9408,-4.6408,-5.3714,-6.102,-6.8048,-7.4619,-8.0392,-8.4844,-8.9117,-9.242,-9.521,-9.7259,-9.8643,-9.9843,-10.1061,-10.1496,-10.2523,-10.3285,-10.4557,-10.5822,-10.6204,-10.5614,-10.4539,-10.294,-10.1784,-10.1055,-10.1283,-10.202,-10.2499,-10.2753,4.2515,4.15,4.096,4.0449,3.9646,3.8257,3.6722,3.532,3.4607,3.3104,3.1237,3.0573,2.9772,2.8577,2.7218,2.5308,2.3083,2.0676,1.8089,1.5555,1.3459,1.2323,1.2096,1.2909,1.5852,2.0482,2.3392,2.5821,2.7986,2.6535,2.7062,2.8148,2.1189,1.4429,1.0021,0.5894,0.1658,-0.2234,-0.4405,-0.5855,-0.6231,-0.5393,-0.4517,-0.4012,-0.4008,-0.3703,-0.3083,-0.2025,-0.0963,0.008,0.1184,0.3724,0.736,1.0763,1.4538,1.8434,2.1494,2.4389,2.7028,2.1834,1.3777,0.5664,0.5095,0.4837,0.1484,-0.0603,-0.3055,-0.4022,-0.4956,-0.4249,-0.304,-0.3995,-0.5652,-0.4976,-0.218,0.0,0.0,0.0,0.0,-0.4957,-0.9959,-1.4454,-1.9017,-2.5118,-3.2757,-3.9184,-4.6547,-5.455,-6.2057,-6.9832,-7.6205,-8.2138,-8.7416,-9.0954,-9.3758,-9.6175,-9.8737,-9.9866,-10.0818,-10.1989,-10.2941,-10.4324,-10.5352,-10.767,-10.92,-10.9565,-10.9148,-10.7958,-10.6613,-10.5792,-10.49,-10.4141,-10.39,-10.2876,-10.279,4.479,4.3719,4.2144,4.1577,4.1318,3.9268,3.7978,3.7439,3.6515,3.5283,3.4059,3.3096,3.2228,3.105,2.9119,2.6776,2.4106,2.1256,1.8776,1.6417,1.4262,1.2663,1.1679,1.4715,1.8412,2.1792,2.4321,2.6592,2.817,2.5757,2.5742,2.6631,1.9269,1.2796,0.9186,0.6587,0.3779,0.0449,-0.1484,-0.3178,-0.463,-0.4194,-0.3671,-0.353,-0.4256,-0.4299,-0.3316,-0.2627,-0.1663,-0.0,0.1745,0.3429,0.5796,0.8873,1.2059,1.4982,1.8258,2.1383,2.2496,1.6803,0.7143,-0.304,-0.2649,-0.2601,-0.5615,-0.835,-0.9914,-0.9841,-1.0577,-1.0056,-0.7109,-0.552,-0.3719,0.0,0.0,0.0,0.0,0.0,0.0,-0.4843,-1.0473,-1.5735,-1.7975,-2.4178,-3.118,-3.8362,-4.5669,-5.3821,-6.2358,-7.0346,-7.8215,-8.4038,-8.9296,-9.2379,-9.494,-9.6625,-9.877,-9.9461,-10.0708,-10.2254,-10.4469,-10.6433,-10.8551,-11.0892,-11.2573,-11.2853,-11.2722,-11.1772,-11.0877,-10.9996,-10.8625,-10.6755,-10.5194,-10.4144,-10.2447,4.6519,4.5923,4.3731,4.2499,4.1915,4.0372,3.9248,3.8389,3.7759,3.6616,3.5229,3.4301,3.3585,3.2688,3.0395,2.8331,2.6127,2.3178,2.041,1.819,1.6351,1.3758,1.2761,1.6541,1.9284,2.0489,2.4109,2.6009,2.5174,2.3505,2.3109,2.3688,1.7738,1.3118,1.047,0.8133,0.5752,0.3127,0.0747,-0.099,-0.2172,-0.2686,-0.275,-0.2805,-0.3748,-0.3641,-0.2603,-0.1902,-0.11,-0.0163,0.0477,0.1494,0.3136,0.5901,0.827,0.9865,1.1412,1.4861,1.729,1.091,-0.0106,-1.0647,-0.9099,-0.8763,-1.2151,-1.264,-1.275,-1.2077,-1.1499,-0.9397,-0.5843,-0.3106,-0.1124,0.0,0.0,0.0,0.0,0.0,-0.0846,-0.3322,-0.918,-1.3573,-1.7565,-2.2959,-2.9874,-3.7123,-4.5164,-5.3616,-6.2312,-7.1042,-7.8749,-8.4992,-8.9971,-9.3078,-9.5698,-9.7192,-9.852,-9.8881,-10.0396,-10.2203,-10.5409,-10.9061,-11.1749,-11.4722,-11.6234,-11.6851,-11.6898,-11.6526,-11.5437,-11.4162,-11.1916,-10.9806,-10.7068,-10.5291,-10.27,4.7752,4.7219,4.5,4.38,4.3125,4.1673,4.0433,3.9538,3.9008,3.7922,3.659,3.5778,3.5063,3.4121,3.1981,2.9948,2.8047,2.5386,2.2685,2.0037,1.7961,1.5401,1.444,1.797,2.0165,2.027,2.3592,2.4277,2.2881,2.0974,1.9971,1.9164,1.6087,1.3382,1.1424,0.9469,0.7289,0.502,0.281,0.1049,-0.0,-0.0829,-0.1173,-0.162,-0.2679,-0.3057,-0.2254,-0.2234,-0.1857,-0.1072,-0.0484,0.0158,0.0857,0.2737,0.4192,0.4734,0.3425,0.5416,0.9907,0.3742,-0.6365,-1.4371,-1.4236,-1.4344,-1.5719,-1.5618,-1.4801,-1.3239,-1.2625,-0.917,-0.383,-0.095,-0.0829,0.0,-0.1999,-0.1457,-0.0293,0.0,0.0,-0.3897,-0.8009,-1.2922,-1.6284,-2.2656,-2.9186,-3.631,-4.4438,-5.3171,-6.2004,-7.0784,-7.875,-8.4679,-8.9574,-9.2684,-9.443,-9.5861,-9.7028,-9.7703,-10.0514,-10.2298,-10.684,-11.1048,-11.4476,-11.725,-11.9266,-12.0698,-12.0568,-12.0193,-11.9153,-11.7484,-11.5166,-11.1999,-10.886,-10.5039,-10.2559,4.8642,4.8072,4.6085,4.508,4.4456,4.2761,4.1308,4.051,3.9992,3.9033,3.7853,3.7249,3.6341,3.5508,3.3528,3.1635,2.9477,2.7413,2.4751,2.1968,1.9473,1.7078,1.5903,1.892,2.0957,2.1493,2.2804,2.276,2.1436,1.8762,1.6814,1.636,1.5171,1.377,1.2305,1.0681,0.886,0.7018,0.5034,0.356,0.2552,0.1635,0.078,-0.0174,-0.1765,-0.2738,-0.2782,-0.3169,-0.3296,-0.2514,-0.1395,-0.1264,-0.1292,-0.0462,-0.0362,-0.1632,-0.4696,-0.4256,0.1467,-0.3691,-1.1494,-1.7506,-1.8018,-1.7667,-1.7713,-1.6941,-1.5243,-1.242,-1.3814,-0.874,0.0,0.0,-0.1882,-0.4212,-0.527,-0.3829,-0.1565,-0.0474,-0.1485,-0.4744,-0.8098,-1.2424,-1.7206,-2.2959,-2.9149,-3.5665,-4.3923,-5.2528,-6.122,-6.9839,-7.7263,-8.3773,-8.8105,-9.1771,-9.3216,-9.4271,-9.5341,-9.6517,-10.0235,-10.3394,-10.8349,-11.2587,-11.6421,-11.9429,-12.1221,-12.2666,-12.3791,-12.3163,-12.2153,-11.995,-11.7078,-11.3242,-10.932,-10.4894,-10.16,4.9511,4.9565,4.6724,4.5316,4.4782,4.3099,4.1546,4.0334,4.0143,3.9171,3.7927,3.7337,3.6876,3.6264,3.4601,3.2994,3.1068,2.892,2.6326,2.3178,2.0954,1.9533,1.8718,2.0475,2.1374,2.1866,2.1568,2.1522,2.0602,1.8225,1.5849,1.5659,1.5548,1.4714,1.3976,1.2648,1.1631,1.0457,0.8282,0.64,0.5275,0.409,0.2753,0.1153,-0.0804,-0.2502,-0.3472,-0.3364,-0.3736,-0.436,-0.4036,-0.3589,-0.402,-0.3354,-0.4062,-0.731,-1.1748,-1.2071,-0.7351,-0.9714,-1.4964,-1.9235,-1.8882,-1.7675,-1.7115,-1.5785,-1.3098,-0.981,-0.7812,-0.534,0.0,0.0,0.0,-0.6157,-0.8132,-0.7733,-0.5749,-0.3462,-0.3681,-0.6346,-1.0167,-1.3766,-1.6811,-2.3283,-2.9492,-3.5636,-4.3501,-5.198,-6.0427,-6.8976,-7.559,-8.2147,-8.6048,-8.9443,-9.0651,-9.2063,-9.3682,-9.5599,-9.928,-10.3772,-10.876,-11.2951,-11.6234,-11.9651,-12.2784,-12.4161,-12.5125,-12.502,-12.3674,-12.1297,-11.8524,-11.4048,-10.9558,-10.4984,-10.0626,5.1349,5.0193,4.8016,4.6394,4.5167,4.3776,4.2111,4.0526,4.0125,3.9228,3.8043,3.7504,3.7167,3.679,3.4995,3.3422,3.1831,2.9217,2.6654,2.4192,2.2324,2.1229,2.0594,2.0745,2.1169,2.21,2.251,2.2331,2.1152,1.8999,1.711,1.6606,1.6757,1.636,1.5536,1.4364,1.3435,1.213,1.0019,0.8336,0.7787,0.6059,0.3965,0.1703,-0.0447,-0.2509,-0.4032,-0.4246,-0.4701,-0.5499,-0.5779,-0.5925,-0.6112,-0.5425,-0.6781,-1.094,-1.5936,-1.6992,-1.4317,-1.5051,-1.7669,-1.9308,-1.8819,-1.7839,-1.6272,-1.4319,-1.1244,-0.7795,-0.5247,-0.2894,-0.1276,0.0,-0.2843,-0.6232,-0.9502,-0.9968,-0.8543,-0.6875,-0.6822,-0.9763,-1.3876,-1.7215,-2.1119,-2.5784,-3.1434,-3.8248,-4.4715,-5.2986,-5.9736,-6.7847,-7.3904,-7.9727,-8.3711,-8.6595,-8.7768,-8.9566,-9.2062,-9.4542,-9.8039,-10.2837,-10.7896,-11.1708,-11.5273,-11.8876,-12.2634,-12.4547,-12.5387,-12.5185,-12.4346,-12.1985,-11.8685,-11.4308,-10.9685,-10.4841,-10.0604,5.3099,5.0596,4.9338,4.761,4.5805,4.4633,4.2995,4.1179,4.0384,3.9625,3.8393,3.7793,3.7323,3.667,3.4995,3.3499,3.1527,2.8637,2.5914,2.4857,2.3082,2.2028,2.1437,2.1139,2.1796,2.3005,2.2962,2.301,2.2808,2.0767,1.8769,1.8255,1.8706,1.7968,1.6663,1.577,1.4954,1.3765,1.1402,1.0026,0.9672,0.7636,0.5156,0.2169,-0.0447,-0.2506,-0.4016,-0.5029,-0.5901,-0.6379,-0.7394,-0.8095,-0.8049,-0.7266,-0.8368,-1.3258,-1.8305,-1.9318,-1.8155,-1.8905,-1.9551,-1.8152,-1.8317,-1.7889,-1.5934,-1.3445,-1.0505,-0.7556,-0.4896,-0.3244,-0.2873,-0.1979,-0.268,-0.5732,-0.9832,-1.1324,-1.0764,-1.0454,-1.1595,-1.288,-1.626,-1.9779,-2.4404,-2.9227,-3.496,-4.0726,-4.7181,-5.3546,-6.0291,-6.6704,-7.2961,-7.7568,-8.1541,-8.4449,-8.5831,-8.8681,-9.0838,-9.4564,-9.7724,-10.2404,-10.7365,-11.0799,-11.453,-11.8603,-12.1833,-12.3298,-12.4321,-12.4089,-12.3103,-12.1754,-11.8713,-11.4151,-10.9427,-10.4648,-10.0642,5.3324,5.1466,4.9626,4.8159,4.6838,4.5368,4.4081,4.3011,4.1418,4.0463,3.9475,3.8287,3.7149,3.6178,3.507,3.305,3.0302,2.7439,2.5604,2.4846,2.3264,2.2038,2.1437,2.175,2.3358,2.4485,2.3909,2.3725,2.4935,2.2765,2.0736,1.9843,1.9962,1.9287,1.7677,1.6815,1.6241,1.5366,1.3226,1.2071,1.1395,0.9275,0.6293,0.2929,-0.0,-0.2323,-0.4109,-0.5692,-0.7121,-0.8191,-0.9034,-1.0509,-1.1564,-1.0433,-1.2,-1.5834,-1.9893,-2.1558,-2.0654,-2.0666,-2.0712,-1.9793,-1.8496,-1.7326,-1.5736,-1.3433,-1.0487,-0.8138,-0.5979,-0.4784,-0.6066,-0.4644,-0.5446,-0.8362,-1.1184,-1.3366,-1.2937,-1.3644,-1.4455,-1.5099,-1.8473,-2.2605,-2.7635,-3.2578,-3.7797,-4.3089,-4.872,-5.44,-6.0266,-6.6445,-7.2462,-7.6302,-7.9425,-8.1927,-8.4189,-8.7556,-9.0641,-9.514,-9.881,-10.2733,-10.7065,-11.0308,-11.3923,-11.6889,-11.9091,-12.0292,-12.1285,-12.2144,-12.1523,-11.9887,-11.6897,-11.3755,-10.9058,-10.435,-10.0662,5.3433,5.1753,5.0664,4.9117,4.7348,4.6059,4.4583,4.2996,4.1622,4.0178,3.8746,3.7362,3.6145,3.4909,3.3288,3.1213,2.8872,2.7091,2.5657,2.4761,2.3093,2.2049,2.1493,2.2169,2.4489,2.6085,2.559,2.572,2.8223,2.5654,2.3103,2.1789,2.1407,2.0135,1.854,1.7513,1.7172,1.6434,1.4867,1.3355,1.273,1.014,0.6526,0.3141,0.0362,-0.2232,-0.526,-0.6233,-0.7956,-0.9734,-1.1018,-1.2949,-1.4395,-1.5429,-1.5794,-1.8734,-2.1517,-2.2911,-2.2156,-2.1812,-2.0843,-1.9493,-1.7958,-1.6481,-1.4978,-1.2778,-1.043,-0.8267,-0.7531,-0.6644,-0.6882,-0.6868,-0.7536,-0.8553,-1.1817,-1.3867,-1.4463,-1.6068,-1.6853,-1.7703,-2.2133,-2.662,-3.1091,-3.5946,-4.0739,-4.5676,-5.0649,-5.5745,-6.0867,-6.679,-7.2961,-7.683,-8.0245,-8.2785,-8.5387,-8.8676,-9.2187,-9.6295,-10.0171,-10.4032,-10.6704,-10.9908,-11.1642,-11.3597,-11.5421,-11.6873,-11.8315,-11.9293,-11.8589,-11.7937,-11.5609,-11.2691,-10.8388,-10.4226,-10.0821,5.316,5.1855,5.137,4.9891,4.7853,4.6644,4.502,4.3028,4.1415,3.9549,3.7542,3.6028,3.4679,3.31,3.1068,2.9014,2.7429,2.6385,2.5209,2.4172,2.2914,2.2189,2.2038,2.2836,2.4534,2.7649,2.8065,2.8966,2.9632,2.7654,2.5784,2.4012,2.2593,2.1102,1.9781,1.8417,1.7953,1.7163,1.5555,1.3993,1.2113,0.917,0.5779,0.2421,0.0364,-0.2867,-0.6233,-0.7724,-0.9287,-1.1324,-1.3153,-1.5003,-1.7442,-1.9041,-2.0322,-2.1527,-2.3106,-2.358,-2.3329,-2.2406,-2.1103,-1.9549,-1.7851,-1.6109,-1.4353,-1.2555,-1.0298,-0.8309,-0.778,-0.8048,-0.796,-0.8608,-0.893,-0.961,-1.2024,-1.4672,-1.5533,-1.7154,-1.961,-2.1991,-2.6279,-3.0273,-3.4309,-3.9065,-4.38,-4.8066,-5.3025,-5.7764,-6.29,-6.8297,-7.3797,-7.8147,-8.1633,-8.4513,-8.755,-9.0907,-9.4682,-9.8853,-10.2447,-10.5959,-10.7702,-10.9431,-11.0705,-11.1833,-11.1566,-11.3103,-11.4739,-11.6144,-11.5752,-11.5115,-11.4095,-11.1914,-10.8214,-10.5061,-10.1953,5.2364,5.1818,5.0908,4.9944,4.8786,4.6895,4.5608,4.4202,4.1143,3.8939,3.6529,3.4802,3.2923,3.1035,2.8528,2.6928,2.5953,2.4907,2.4115,2.3546,2.2546,2.1955,2.2011,2.3396,2.5268,2.8048,2.9093,3.0318,3.0558,2.8575,2.6836,2.5538,2.3579,2.2128,2.1243,1.9525,1.8885,1.8528,1.6051,1.295,0.997,0.707,0.4434,0.1711,-0.1391,-0.4422,-0.7115,-0.886,-1.0971,-1.2977,-1.5054,-1.6987,-1.8894,-2.1067,-2.2935,-2.4018,-2.4479,-2.4219,-2.3971,-2.2816,-2.1444,-1.969,-1.7888,-1.6286,-1.4294,-1.2592,-1.0781,-0.9655,-0.9052,-0.8941,-0.9227,-0.9421,-1.0274,-1.1445,-1.2979,-1.483,-1.6026,-1.8148,-2.0623,-2.4747,-2.8563,-3.2733,-3.6889,-4.1885,-4.6783,-5.097,-5.5299,-6.0085,-6.52,-7.0772,-7.6518,-8.1325,-8.4758,-8.7529,-9.0825,-9.4099,-9.757,-10.1746,-10.4886,-10.7915,-10.9065,-11.0041,-10.9951,-11.0597,-11.0008,-11.0063,-11.2028,-11.2956,-11.2864,-11.288,-11.2716,-11.0962,-10.849,-10.562,-10.3044,5.1101,5.1292,5.0188,4.93,4.829,4.5719,4.3716,4.19,3.9187,3.6452,3.404,3.1836,2.9826,2.809,2.6512,2.63,2.5885,2.469,2.4075,2.3291,2.231,2.1614,2.2336,2.2899,2.4538,2.7773,2.9242,3.0233,3.0478,2.9547,2.7691,2.6286,2.4262,2.3114,2.2794,2.0836,2.0256,1.9333,1.6842,1.2996,0.9229,0.5761,0.2573,-0.0191,-0.3871,-0.6394,-0.8376,-1.0105,-1.2342,-1.435,-1.6686,-1.8863,-2.0665,-2.2571,-2.4346,-2.6172,-2.5552,-2.5265,-2.5153,-2.3094,-2.1237,-1.9394,-1.7176,-1.488,-1.3322,-1.2496,-1.156,-1.047,-1.0959,-1.1086,-1.1013,-1.1201,-1.1672,-1.2633,-1.3642,-1.4879,-1.6497,-1.9174,-2.1928,-2.6389,-3.1042,-3.5698,-4.0291,-4.5163,-4.9673,-5.3392,-5.7731,-6.2388,-6.8016,-7.3992,-7.9775,-8.5465,-8.8437,-9.1189,-9.4573,-9.8017,-10.1046,-10.4848,-10.7556,-11.0005,-11.0604,-11.1116,-11.049,-10.9629,-10.8934,-10.9225,-10.99,-11.0388,-11.0832,-11.1232,-11.1641,-11.0126,-10.8605,-10.6946,-10.377,4.9541,4.9913,4.915,4.8231,4.6973,4.3938,4.147,3.926,3.665,3.3883,3.1205,2.8982,2.7061,2.5833,2.5724,2.5859,2.6174,2.5019,2.4558,2.3493,2.2267,2.1626,2.2235,2.2504,2.428,2.7843,2.9086,3.0086,3.0538,3.0225,2.908,2.7458,2.5584,2.4724,2.4303,2.2553,2.096,1.9552,1.6842,1.2942,0.8733,0.4454,0.0952,-0.244,-0.5812,-0.8593,-1.0112,-1.1529,-1.3449,-1.5732,-1.8082,-2.032,-2.2268,-2.4067,-2.5637,-2.692,-2.6478,-2.5768,-2.482,-2.289,-2.0332,-1.7844,-1.5197,-1.2211,-1.1011,-1.1562,-1.2649,-1.1543,-1.2353,-1.2727,-1.2853,-1.2978,-1.2857,-1.3113,-1.3615,-1.4852,-1.6445,-1.93,-2.3146,-2.806,-3.3236,-3.9591,-4.4212,-4.8724,-5.2699,-5.6025,-6.0205,-6.4807,-7.0523,-7.6723,-8.1771,-8.7257,-9.0891,-9.3749,-9.739,-10.0941,-10.436,-10.6977,-10.9703,-11.0886,-11.0775,-11.0581,-10.9934,-10.9082,-10.7731,-10.7217,-10.7155,-10.8097,-10.8978,-10.9809,-11.0487,-11.0137,-10.8926,-10.7294,-10.4476,4.7709,4.7333,4.7553,4.649,4.4628,4.2044,3.9549,3.6852,3.4163,3.1358,2.8645,2.7091,2.6062,2.568,2.5396,2.5574,2.5807,2.453,2.4028,2.3432,2.2493,2.1642,2.1857,2.2731,2.4214,2.6498,2.788,2.9118,3.0366,3.0798,3.0485,2.9958,2.7617,2.7147,2.6146,2.4083,2.0643,1.8717,1.5873,1.2381,0.7831,0.3403,-0.0576,-0.3806,-0.6989,-0.9688,-1.1497,-1.2995,-1.4621,-1.6753,-1.9308,-2.1576,-2.3501,-2.5236,-2.6811,-2.7504,-2.6911,-2.5772,-2.4072,-2.1598,-1.8636,-1.5311,-1.2019,-0.9438,-0.903,-0.9542,-1.0735,-1.2789,-1.3585,-1.3992,-1.4193,-1.4276,-1.346,-1.3496,-1.3756,-1.4536,-1.6551,-1.9649,-2.3775,-2.9317,-3.5572,-4.2286,-4.8566,-5.3203,-5.6296,-5.9552,-6.3685,-6.8291,-7.3023,-7.8695,-8.3051,-8.7846,-9.2269,-9.5856,-9.9483,-10.2732,-10.522,-10.701,-10.9116,-10.9594,-10.9581,-10.9316,-10.8439,-10.7246,-10.5768,-10.5114,-10.478,-10.5929,-10.7206,-10.8659,-10.9277,-10.9274,-10.8114,-10.6213,-10.352,4.4939,4.3526,4.234,4.205,4.2087,3.836,3.5351,3.2807,3.002,2.7278,2.4889,2.4941,2.4833,2.4664,2.5671,2.5845,2.572,2.4956,2.4018,2.2701,2.1563,2.0781,2.0784,2.1094,2.1985,2.4399,2.5869,2.7424,2.9065,2.9685,3.0388,2.9875,2.903,2.9058,2.7766,2.5013,2.1124,1.7539,1.4718,1.1411,0.5935,0.175,-0.2308,-0.5862,-0.8979,-1.1119,-1.2528,-1.4292,-1.5842,-1.7594,-2.0123,-2.2477,-2.4481,-2.6155,-2.7272,-2.7906,-2.6859,-2.4638,-2.2098,-1.9597,-1.6672,-1.2303,-0.9088,-0.7329,-0.7903,-0.9768,-1.1571,-1.329,-1.4865,-1.5636,-1.5221,-1.4219,-1.3172,-1.3433,-1.3797,-1.4339,-1.6617,-1.9802,-2.5059,-3.0864,-3.8388,-4.5781,-5.1882,-5.782,-6.0457,-6.3234,-6.746,-7.1479,-7.5453,-7.9359,-8.3223,-8.7302,-9.1655,-9.5737,-9.9349,-10.2495,-10.56,-10.6786,-10.7974,-10.7514,-10.6955,-10.6645,-10.5711,-10.4652,-10.3895,-10.3195,-10.3239,-10.4128,-10.5422,-10.7006,-10.8069,-10.8676,-10.7164,-10.521,-10.2828,4.0614,3.8329,3.7137,3.7474,3.8144,3.4151,3.114,2.892,2.6317,2.4154,2.2297,2.3575,2.3985,2.4063,2.5089,2.5833,2.5342,2.453,2.3594,2.2079,2.0478,1.951,1.9235,1.9501,2.0244,2.2283,2.3441,2.4849,2.643,2.7285,2.7942,2.8565,2.9329,2.933,2.8913,2.5444,2.1036,1.7103,1.31,0.9604,0.4044,-0.0195,-0.3898,-0.744,-1.0287,-1.2057,-1.3305,-1.4981,-1.6572,-1.8474,-2.0768,-2.349,-2.5292,-2.6674,-2.7441,-2.7219,-2.582,-2.2988,-1.983,-1.6405,-1.3378,-0.8869,-0.6631,-0.6156,-0.7573,-1.0014,-1.2004,-1.4373,-1.6244,-1.7296,-1.6429,-1.4963,-1.3424,-1.3418,-1.2717,-1.3374,-1.673,-2.0182,-2.6423,-3.2598,-4.0228,-4.7471,-5.4147,-5.9878,-6.3487,-6.5911,-6.8908,-7.1907,-7.4158,-7.8135,-8.2104,-8.6207,-9.0481,-9.4482,-9.8426,-10.0311,-10.2122,-10.3139,-10.4039,-10.397,-10.3576,-10.3165,-10.2647,-10.1638,-10.1097,-10.1076,-10.1329,-10.1661,-10.3382,-10.5339,-10.6233,-10.7006,-10.6309,-10.4436,-10.2943,3.4537,3.1428,3.269,3.3363,3.305,2.9685,2.7346,2.585,2.3573,2.2273,2.2059,2.2841,2.3337,2.3705,2.4563,2.4905,2.4539,2.3537,2.25,2.1299,1.9325,1.8254,1.8177,1.8508,1.9002,1.9953,2.1104,2.2246,2.3338,2.3968,2.4875,2.6285,2.7379,2.8272,2.9694,2.5018,2.0312,1.5967,1.07,0.6401,0.2146,-0.2237,-0.5826,-0.8726,-1.1053,-1.2845,-1.3865,-1.5505,-1.7213,-1.8953,-2.1579,-2.4236,-2.6427,-2.7176,-2.7557,-2.7381,-2.4252,-2.0997,-1.7617,-1.2921,-0.9119,-0.6196,-0.4545,-0.4599,-0.6443,-0.9195,-1.2493,-1.5048,-1.746,-1.835,-1.7471,-1.6004,-1.4404,-1.2776,-1.2051,-1.3481,-1.6875,-2.0975,-2.7107,-3.322,-4.0653,-4.8158,-5.5229,-6.1438,-6.5662,-6.8652,-7.0915,-7.2698,-7.4004,-7.6921,-8.0911,-8.446,-8.8604,-9.174,-9.5083,-9.6988,-9.8574,-9.96,-9.9879,-9.9469,-9.9344,-9.8983,-9.8531,-9.8158,-9.8403,-9.8551,-9.8719,-9.893,-10.0697,-10.2366,-10.4131,-10.4782,-10.4351,-10.366,-10.2174,3.0419,2.7151,2.7846,2.7264,2.5895,2.5461,2.4035,2.2081,2.073,2.0207,2.0779,2.1876,2.2591,2.3029,2.3681,2.4028,2.3281,2.2772,2.1741,1.9931,1.8291,1.7712,1.7587,1.7909,1.8341,1.8955,1.9682,2.049,2.175,2.1151,2.2862,2.4686,2.3902,2.5386,2.4415,2.0825,1.6129,1.1455,0.6988,0.3025,-0.0874,-0.4708,-0.7977,-1.0449,-1.22,-1.3446,-1.4174,-1.5935,-1.7822,-1.957,-2.233,-2.4978,-2.6799,-2.7596,-2.7223,-2.5738,-2.2498,-1.8646,-1.4637,-1.0336,-0.7214,-0.4996,-0.3706,-0.4109,-0.6797,-0.9879,-1.2947,-1.5788,-1.832,-1.8986,-1.8289,-1.6422,-1.4587,-1.2021,-1.1713,-1.4094,-1.7382,-2.1989,-2.7357,-3.3424,-4.0333,-4.8617,-5.6152,-6.0217,-6.4404,-6.8013,-7.003,-7.1924,-7.3391,-7.6177,-7.9678,-8.2786,-8.6263,-8.9128,-9.1672,-9.291,-9.3796,-9.4499,-9.4572,-9.4325,-9.4207,-9.4693,-9.4607,-9.4397,-9.5289,-9.6045,-9.6254,-9.6634,-9.7633,-9.9162,-10.0707,-10.2136,-10.2249,-10.1981,-10.1365,2.7948,2.4292,2.4523,2.3143,2.1084,2.1464,2.0597,1.9156,1.8545,1.8566,1.9374,2.0733,2.1236,2.1551,2.2309,2.2672,2.1778,2.117,2.0623,1.8795,1.7708,1.7512,1.7572,1.7773,1.8439,1.8759,1.8751,1.9199,2.0398,1.8004,1.7463,1.7886,1.8493,1.6768,1.5942,1.3835,1.212,0.7552,0.3323,-0.0942,-0.4257,-0.7223,-0.9929,-1.1611,-1.2909,-1.3948,-1.4836,-1.6393,-1.8572,-2.0497,-2.3002,-2.5632,-2.7004,-2.7281,-2.656,-2.4053,-1.92,-1.4903,-1.0148,-0.742,-0.5107,-0.456,-0.3411,-0.4566,-0.7265,-0.9894,-1.2789,-1.572,-1.8648,-1.9061,-1.8364,-1.6496,-1.4306,-1.1767,-1.2041,-1.4379,-1.7685,-2.2236,-2.605,-3.2292,-3.8087,-4.697,-5.4978,-5.8967,-6.2439,-6.5743,-6.8824,-7.0791,-7.2808,-7.5725,-7.8428,-8.1223,-8.3402,-8.5578,-8.7247,-8.8197,-8.8948,-8.9385,-8.9668,-8.9868,-9.0527,-9.1194,-9.0961,-9.1,-9.2353,-9.3382,-9.3755,-9.4343,-9.5123,-9.5911,-9.6908,-9.8334,-9.9782,-10.009,-10.0003,2.6792,2.2598,2.2663,2.122,1.8845,1.8106,1.7603,1.7393,1.7082,1.7416,1.8301,1.9256,1.9656,1.9653,2.0507,2.0712,2.0299,1.9656,1.9182,1.8549,1.7572,1.7781,1.8341,1.8902,1.9346,1.9346,1.9123,1.8831,1.9186,1.4367,1.126,0.9439,0.9129,0.7568,0.6915,0.6921,0.6464,0.3364,-0.0629,-0.4126,-0.6649,-0.9469,-1.1216,-1.2537,-1.3427,-1.4344,-1.5609,-1.742,-1.9734,-2.1989,-2.4525,-2.6155,-2.7021,-2.7029,-2.5246,-2.1389,-1.5037,-1.0497,-0.6511,-0.4454,-0.4257,-0.442,-0.4308,-0.5596,-0.733,-0.9527,-1.2179,-1.4987,-1.769,-1.8139,-1.8029,-1.6067,-1.4049,-1.2938,-1.2292,-1.4765,-1.7869,-2.1472,-2.4839,-2.9624,-3.4572,-4.1819,-4.9217,-5.4268,-5.8003,-6.2267,-6.5527,-6.9229,-7.1542,-7.4895,-7.7447,-7.9462,-8.1218,-8.1954,-8.3218,-8.4366,-8.5021,-8.5787,-8.6154,-8.646,-8.7142,-8.8428,-8.9157,-8.9714,-9.016,-9.08,-9.1605,-9.1977,-9.2313,-9.3129,-9.4317,-9.5647,-9.7411,-9.8399,-9.8578,2.5289,2.0702,2.076,1.9466,1.7281,1.6257,1.617,1.6715,1.6128,1.6489,1.7798,1.8213,1.859,1.9092,1.9816,1.9709,1.9391,1.9017,1.87,1.8288,1.8071,1.8418,1.9133,2.0127,2.0667,2.0605,2.0036,1.8687,1.5132,1.036,0.5971,0.3731,0.2597,0.0217,-0.1184,-0.099,-0.024,-0.0756,-0.4328,-0.6438,-0.8422,-1.0766,-1.2152,-1.3312,-1.4095,-1.5095,-1.6854,-1.973,-2.2064,-2.3756,-2.6009,-2.7654,-2.8076,-2.7059,-2.4812,-1.7617,-1.2947,-0.923,-0.5553,-0.4891,-0.4865,-0.4437,-0.4408,-0.5277,-0.6899,-0.8884,-1.137,-1.4077,-1.6564,-1.7359,-1.7188,-1.5588,-1.3917,-1.2985,-1.278,-1.4528,-1.7421,-1.9682,-2.2953,-2.5558,-3.0549,-3.5477,-4.2935,-4.8236,-5.2147,-5.7274,-6.188,-6.5741,-6.9976,-7.3265,-7.6063,-7.8031,-7.8782,-7.9386,-8.0124,-8.123,-8.1732,-8.2199,-8.3132,-8.4317,-8.5765,-8.7039,-8.7895,-8.8561,-8.9148,-8.9453,-8.9831,-9.0146,-9.04,-9.1353,-9.2482,-9.3741,-9.4947,-9.6153,-9.7003,2.4603,2.0522,1.9796,1.8297,1.6392,1.5468,1.536,1.5566,1.5449,1.608,1.7044,1.743,1.7712,1.7986,1.8713,1.9058,1.8866,1.9002,1.8928,1.8989,1.9059,1.9546,2.0388,2.1337,2.2053,2.1902,2.109,1.961,1.4155,0.6803,0.1609,-0.0975,-0.2125,-0.5337,-0.6838,-0.6046,-0.5025,-0.5173,-0.6486,-0.8329,-0.9988,-1.1793,-1.3299,-1.452,-1.5196,-1.6374,-1.8578,-2.207,-2.4218,-2.566,-2.7809,-2.8528,-2.7882,-2.5833,-2.2353,-1.595,-1.2568,-0.9762,-0.7058,-0.5842,-0.5311,-0.47,-0.4402,-0.5029,-0.6221,-0.7949,-1.0448,-1.2963,-1.5129,-1.6632,-1.6005,-1.5207,-1.3906,-1.2638,-1.3451,-1.4293,-1.6153,-1.7964,-2.0,-2.1955,-2.571,-3.0083,-3.5427,-4.0817,-4.6165,-5.0992,-5.6035,-6.085,-6.5974,-7.0965,-7.3783,-7.6071,-7.6453,-7.679,-7.757,-7.8457,-7.9416,-8.0693,-8.2489,-8.3634,-8.4877,-8.6203,-8.7585,-8.8038,-8.8228,-8.8416,-8.8554,-8.8529,-8.8828,-8.9924,-9.1002,-9.2012,-9.3333,-9.462,-9.5295,2.4378,2.0607,1.9224,1.7396,1.5768,1.508,1.4582,1.4186,1.4938,1.562,1.6132,1.6718,1.6885,1.7155,1.8025,1.8607,1.8827,1.9121,1.9494,1.9636,2.0172,2.0637,2.1279,2.2363,2.3207,2.3277,2.1943,1.9246,1.4332,0.5895,-0.2627,-0.5439,-0.9444,-1.16,-1.0716,-0.9064,-0.789,-0.7875,-0.8147,-0.9229,-1.1161,-1.3157,-1.5134,-1.6265,-1.6912,-1.7735,-2.0604,-2.3412,-2.6115,-2.7857,-2.8921,-2.9479,-2.6988,-2.4019,-1.9858,-1.6603,-1.3449,-1.0764,-0.8618,-0.708,-0.5555,-0.4828,-0.4418,-0.4731,-0.5683,-0.6983,-0.9277,-1.1409,-1.353,-1.483,-1.4635,-1.4485,-1.3616,-1.3009,-1.3355,-1.4142,-1.5312,-1.6184,-1.6365,-1.8051,-1.966,-2.3901,-2.7101,-3.2407,-3.778,-4.3501,-4.9595,-5.4921,-6.0332,-6.6281,-7.0271,-7.286,-7.3622,-7.3925,-7.5094,-7.6114,-7.7527,-7.9029,-8.1253,-8.351,-8.5073,-8.6317,-8.7462,-8.7589,-8.7538,-8.7297,-8.7292,-8.7716,-8.8389,-8.927,-9.0139,-9.0578,-9.1738,-9.3366,-9.4072,2.386,1.9183,1.7058,1.5543,1.4622,1.3811,1.3701,1.3994,1.4093,1.4588,1.5102,1.5961,1.6628,1.6975,1.8124,1.8741,1.9014,1.9641,2.0032,2.0573,2.1175,2.1665,2.1974,2.3061,2.4209,2.4413,2.2576,1.7932,0.9985,0.0764,-0.7548,-1.2184,-1.4937,-1.48,-1.3434,-1.123,-0.9658,-0.9494,-0.9163,-0.9699,-1.1347,-1.3441,-1.5338,-1.6824,-1.7903,-2.0044,-2.2849,-2.5684,-2.7917,-2.972,-3.0202,-2.9315,-2.6968,-2.3861,-2.1026,-1.8158,-1.516,-1.2424,-1.0049,-0.8214,-0.6572,-0.5022,-0.4441,-0.4391,-0.4968,-0.6217,-0.7804,-0.9851,-1.1457,-1.2645,-1.3566,-1.3521,-1.3587,-1.3378,-1.3043,-1.3783,-1.4464,-1.3763,-1.314,-1.3658,-1.459,-1.6986,-2.0026,-2.4152,-2.9448,-3.5671,-4.2458,-4.824,-5.3234,-5.8823,-6.4539,-6.7523,-6.9932,-7.0834,-7.2348,-7.4179,-7.578,-7.8022,-8.0342,-8.271,-8.5082,-8.6317,-8.7252,-8.7022,-8.6839,-8.6982,-8.7355,-8.7972,-8.8626,-8.9177,-9.0056,-9.0842,-9.1481,-9.2832,-9.3289,2.2986,1.8558,1.6123,1.4458,1.3403,1.301,1.2995,1.3151,1.38,1.4381,1.4853,1.5693,1.6479,1.7281,1.853,1.939,1.9647,2.0338,2.0894,2.1507,2.2084,2.2729,2.3231,2.3703,2.5296,2.5684,2.3198,1.739,0.7731,-0.096,-0.7814,-1.4508,-1.6546,-1.6698,-1.4848,-1.1912,-1.038,-1.0015,-0.9292,-0.9976,-1.151,-1.3886,-1.668,-1.8427,-2.0225,-2.2446,-2.5501,-2.8155,-2.9579,-3.0543,-3.0764,-2.9139,-2.696,-2.4568,-2.2154,-1.9456,-1.6733,-1.4127,-1.1781,-0.9684,-0.7848,-0.626,-0.4909,-0.5055,-0.4869,-0.6017,-0.6725,-0.861,-0.9834,-1.0999,-1.2439,-1.2772,-1.3509,-1.3684,-1.2646,-1.2368,-1.177,-1.0681,-0.9809,-0.9259,-1.0331,-1.1834,-1.4659,-1.7009,-2.2198,-2.7115,-3.4036,-4.1601,-4.6649,-5.1569,-5.7226,-6.1892,-6.4155,-6.7895,-7.0593,-7.2548,-7.4427,-7.681,-7.9148,-8.1781,-8.4071,-8.5869,-8.6953,-8.6466,-8.6553,-8.7345,-8.778,-8.8486,-8.8651,-8.8981,-9.0117,-9.1327,-9.1908,-9.239,-9.2871,2.2063,1.813,1.5548,1.366,1.2258,1.2292,1.2245,1.2238,1.3543,1.4696,1.5424,1.6022,1.6913,1.7896,1.9129,1.9974,2.0669,2.1209,2.1807,2.2329,2.2877,2.3554,2.3889,2.4194,2.5405,2.5716,2.4237,1.8858,1.1623,0.2064,-0.6956,-1.4073,-1.6644,-1.7323,-1.434,-1.2429,-1.1616,-1.0252,-0.9677,-1.0324,-1.2334,-1.4864,-1.8057,-2.0429,-2.2542,-2.4897,-2.7993,-3.017,-3.1199,-3.1283,-3.1029,-2.95,-2.7693,-2.5696,-2.3805,-2.1297,-1.8636,-1.6404,-1.4272,-1.1749,-0.9671,-0.7779,-0.656,-0.5782,-0.5666,-0.5651,-0.6357,-0.7129,-0.834,-0.9758,-1.1185,-1.2709,-1.3479,-1.4011,-1.2755,-1.127,-0.9954,-0.8575,-0.7405,-0.6311,-0.6906,-0.8188,-0.9568,-1.1767,-1.5533,-2.0248,-2.6211,-3.3505,-4.0155,-4.5015,-5.0268,-5.4635,-5.7858,-6.206,-6.7161,-7.0011,-7.1719,-7.4745,-7.71,-8.0241,-8.287,-8.4055,-8.508,-8.5716,-8.6005,-8.7131,-8.8266,-8.9119,-8.9179,-8.9293,-9.0533,-9.1818,-9.2031,-9.2486,-9.2678,2.1771,1.6381,1.3444,1.2025,1.1726,1.0876,1.103,1.2141,1.2688,1.408,1.6281,1.7558,1.8268,1.849,2.0252,2.115,2.137,2.1965,2.2504,2.3034,2.3552,2.4324,2.4949,2.5181,2.4732,2.4794,2.3815,1.8433,1.1139,0.2486,-0.6848,-1.6613,-1.9932,-1.9322,-1.616,-1.4312,-1.243,-1.0796,-0.9734,-1.0056,-1.2788,-1.5636,-1.9142,-2.1975,-2.4719,-2.6862,-2.9108,-3.0776,-3.1378,-3.1539,-3.1341,-3.0171,-2.8716,-2.7066,-2.5469,-2.3751,-2.1046,-1.8781,-1.6621,-1.4167,-1.2004,-1.0491,-0.9141,-0.7295,-0.6715,-0.5643,-0.6112,-0.6247,-0.7532,-0.9167,-1.0741,-1.2838,-1.4019,-1.4565,-1.4068,-1.2073,-1.0385,-0.8785,-0.7344,-0.6108,-0.5395,-0.59,-0.6115,-0.8622,-1.1521,-1.6338,-2.1318,-2.8334,-3.3978,-3.8687,-4.3437,-4.7415,-5.1421,-5.6946,-6.2307,-6.6009,-6.8404,-7.1698,-7.4826,-7.7485,-7.9776,-8.1621,-8.2647,-8.3587,-8.5481,-8.7029,-8.8212,-8.9607,-9.027,-9.0564,-9.1513,-9.2333,-9.2533,-9.2848,-9.3327]},{"header":{"parameterUnit":"m.s-1","parameterCategory":1,"la1":31.0,"la2":29.5877,"lo1":-88.7671,"lo2":-86.6584,"dy":0.0162,"dx":0.0185,"nx":115,"ny":88,"refTime":"2023-04-08T12:00:00:Z","depth":0,"parameterNumber":3,"parameterNumberName":"V-component_of_WINDS"},"data":[0.0,0.0,0.0,0.0,0.0,0.0,0.0,0.0,0.0,0.0,0.0,0.0,0.0,0.0,0.0,0.0,0.0,0.0,0.0,0.0,0.0,0.0,0.0,0.0,0.0,0.0,0.0,0.0,0.0,0.0,0.0,0.0,0.0,0.0,0.0,0.0,0.0,0.0,0.0,0.0,0.0,0.0,0.0,0.0,0.0,0.0,0.0,0.0,0.0,0.0,0.0,0.0,0.0,0.0,0.0,0.0,0.0,0.0,0.0,0.0,0.0,0.0,0.0,0.0,0.0,0.0,0.0,0.0,0.0,0.0,0.0,0.0,0.0,0.0,0.0,0.0,0.0,0.0,0.0,0.0,0.0,0.0,0.0,0.0,0.0,0.0,0.0,0.0,0.0,0.0,0.0,0.0,0.0,0.0,0.0,0.0,0.0,0.0,0.0,0.0,0.0,0.0,0.0,0.0,0.0,0.0,0.0,0.0,0.0,0.0,0.0,0.0,0.0,0.0,0.0,0.0,0.0,0.0,0.0,0.0,0.0,0.0,0.0,0.0,0.0,0.0,0.0,0.0,0.0,0.0,0.0,0.0,0.0,0.0,0.0,0.0,0.0,0.0,0.0,0.0,0.0,0.0,0.0,0.0,0.0,0.0,0.0,0.0,0.0,0.0,0.0,0.0,0.0,0.0,0.0,0.0,0.0,0.0,0.0,0.0,0.0,0.0,0.0,0.0,0.0,0.0,0.0,0.0,0.0,0.0,0.0,0.0,0.0,0.0,0.0,0.0,0.0,0.0,0.0,0.0,0.0,0.0,0.0,0.0,0.0,0.0,0.0,0.0,0.0,0.0,0.0,0.0,0.0,0.0,0.0,0.0,0.0,0.0,0.0,0.0,0.0,0.0,0.0,0.0,0.0,0.0,0.0,0.0,0.0,0.0,0.0,0.0,0.0,0.0,0.0,0.0,0.0,0.0,0.0,0.0,0.0,0.0,0.0,0.0,0.0,0.0,0.0,0.0,0.0,0.0,0.0,0.0,0.0,0.0,0.0,0.0,0.0,0.0,0.0,0.0,0.0,0.0,0.0,0.0,0.0,0.0,0.0,0.0,0.0,0.0,0.0,0.0,0.0,0.0,0.0,0.0,0.0,0.0,0.0,0.0,0.0,0.0,0.0,0.0,0.0,0.0,0.0,0.0,0.0,0.0,0.0,0.0,0.0,0.0,0.0,0.0,0.0,0.0,0.0,0.0,0.0,0.0,0.0,0.0,0.0,0.0,0.0,0.0,0.0,0.0,0.0,0.0,0.0,0.0,0.0,0.0,0.0,0.0,0.0,0.0,0.0,0.0,0.0,0.0,0.0,0.0,0.0,0.0,0.0,0.0,0.0,0.0,0.0,0.0,0.0,0.0,0.0,0.0,0.0,0.0,0.0,0.0,0.0,0.0,0.0,0.0,0.0,0.0,0.0,0.0,0.0,0.0,0.0,0.0,0.0,0.0,0.0,0.0,0.0,0.0,0.0,0.0,0.0,0.0,0.0,0.0,0.0,0.0,0.0,0.0,0.0,0.0,0.0,0.0,0.0,0.0,0.0,0.0,0.0,0.0,0.0,0.0,0.0,0.0,0.0,0.0,0.0,0.0,0.0,0.0,0.0,0.0,0.0,0.0,0.0,0.0,0.0,0.0,0.0,0.0,0.0,0.0,0.0,0.0,0.0,0.0,0.0,0.0,0.0,0.0,0.0,0.0,0.0,0.0,0.0,0.0,0.0,0.0,0.0,0.0,0.0,0.0,0.0,0.0,0.0,0.0,0.0,0.0,0.0,0.0,0.0,0.0,0.0,0.0,0.0,0.0,0.0,0.0,0.0,0.0,0.0,0.0,0.0,0.0,0.0,0.0,0.0,0.0,0.0,0.0,0.0,0.0,0.0,0.0,0.0,0.0,0.0,0.0,0.0,0.0,0.0,0.0,0.0,0.0,0.0,0.0,0.0,0.0,0.0,0.0,0.0,0.0,0.0,0.0,0.0,0.0,0.0,0.0,0.0,0.0,0.0,0.0,0.0,0.0,0.0,0.0,0.0,0.0,0.0,0.0,0.0,0.0,0.0,0.0,0.0,0.0,0.0,0.0,0.0,0.0,0.0,0.0,0.0,0.0,0.0,0.0,0.0,0.0,0.0,0.0,0.0,0.0,0.0,0.0,0.0,0.0,0.0,0.0,0.0,0.0,0.0,0.0,0.0,0.0,0.0,0.0,0.0,0.0,0.0,0.0,0.0,0.0,0.0,0.0,0.0,0.0,0.0,0.0,0.0,0.0,0.0,0.0,0.0,0.0,0.0,0.0,0.0,0.0,0.0,0.0,0.0,0.0,0.0,0.0,0.0,0.0,0.0,0.0,0.0,0.0,0.0,0.0,0.0,0.0,0.0,0.0,0.0,0.0,0.0,0.0,0.0,0.0,0.0,0.0,0.0,0.0,0.0,0.0,0.0,0.0,0.0,0.0,0.0,0.0,0.0,0.0,0.0,0.0,0.0,0.0,0.0,0.0,0.0,0.0,0.0,0.0,0.0,0.0,0.0,0.0,0.0,0.0,0.0,0.0,0.0,0.0,0.0,0.0,0.0,0.0,0.0,0.0,0.0,0.0,0.0,0.0,0.0,0.0,0.0,0.0,0.0,0.0,0.0,0.0,0.0,0.0,0.0,0.0,0.0,0.0,0.0,0.0,0.0,0.0,0.0,0.0,0.0,0.0,0.0,0.0,0.0,0.0,0.0,0.0,0.0,0.0,0.0,0.0,0.0,0.0,0.0,0.0,0.0,0.0,0.0,0.0,0.0,0.0,0.0,0.0,0.0,0.0,0.0,0.0,0.0,0.0,0.0,0.0,0.0,0.0,0.0,0.0,0.0,0.0,0.0,0.0,0.0,0.0,0.0,0.0,0.0,0.0,0.0,0.0,0.0,0.0,0.0,0.0,0.0,0.0,0.0,0.0,0.0,0.0,0.0,0.0,0.0,0.0,0.0,0.0,0.0,0.0,0.0,0.0,0.0,0.0,0.0,0.0,0.0,0.0,0.0,0.0,0.0,0.0,0.0,0.0,0.0,0.0,0.0,0.0,0.0,0.0,0.0,0.0,0.0,0.0,0.0,0.0,0.0,0.0,0.0,0.0,0.0,0.0,0.0,0.0,0.0,0.0,0.0,0.0,0.0,0.0,0.0,0.0,0.0,0.0,0.0,0.0,0.0,0.0,0.0,0.0,0.0,0.0,0.0,0.0,0.0,0.0,0.0,0.0,0.0,0.0,0.0,0.0,0.0,0.0,0.0,0.0,0.0,0.0,0.0,0.0,0.0,0.0,0.0,0.0,0.0,0.0,0.0,0.0,0.0,0.0,0.0,0.0,0.0,0.0,0.0,0.0,0.0,0.0,0.0,0.0,0.0,0.0,0.0,0.0,0.0,0.0,0.0,0.0,0.0,0.0,0.0,0.0,0.0,0.0,0.0,0.0,0.0,0.0,0.0,0.0,0.0,0.0,0.0,0.0,0.0,0.0,0.0,0.0,0.0,0.0,0.0,0.0,0.0,0.0,0.0,0.0,0.0,0.0,0.0,0.0,0.0,0.0,0.0,0.0,0.0,0.0,0.0,0.0,0.0,0.0,0.0,0.0,0.0,0.0,0.0,0.0,0.0,0.0,0.0,0.0,0.0,0.0,0.0,0.0,0.0,0.0,0.0,0.0,0.0,0.0,0.0,0.0,0.0,0.0,0.0,0.0,0.0,0.0,0.0,0.0,0.0,0.0,0.0,0.0,0.0,0.0,0.0,0.0,0.0,0.0,0.0,0.0,0.0,0.0,0.0,0.0,0.0,0.0,0.0,0.0,0.0,0.0,0.0,0.0,0.0,0.0,0.0,0.0,0.0,0.0,0.0,0.0,0.0,0.0,0.0,0.0,0.0,0.0,0.0,0.0,0.0,0.0,0.0,0.0,0.0,0.0,0.0,0.0,0.0,0.0,0.0,0.0,0.0,0.0,0.0,0.0,0.0,0.0,0.0,0.0,0.0,0.0,0.0,0.0,0.0,0.0,0.0,0.0,0.0,0.0,0.0,0.0,0.0,0.0,0.0,0.0,0.0,0.0,0.0,0.0,0.0,0.0,0.0,0.0,0.0,0.0,0.0,0.0,0.0,0.0,0.0,0.0,0.0,0.0,0.0,0.0,0.0,0.0,0.0,0.0,0.0,0.0,0.0,0.0,0.0,0.0,0.0,0.0,0.0,0.0,0.0,0.0,0.0,0.0,0.7026,0.0,0.0,0.0,0.0,0.0,0.0,0.0,0.0,0.0,0.0,0.0,0.0,0.0,0.0,0.0,0.0,0.0,0.0,0.0,0.0,0.0,0.0,0.0,0.0,0.0,0.0,0.0,0.0,0.0,0.0,0.0,0.0,0.0,0.0,0.0,0.0,0.0,0.0,0.0,0.0,0.0,0.0,0.0,0.0,0.0,0.0,0.0,0.0,0.0,0.0,0.0,0.0,0.0,0.0,0.0,0.0,0.0,0.0,0.0,0.0,0.0,0.0,0.0,0.0,0.0,0.0,0.0,0.0,0.0,0.0,0.0,0.0,0.0,0.0,0.0,0.0,0.0,0.0,0.0,0.0,0.0,0.0,0.0,0.0,0.0,0.0,0.0,0.0,0.0,0.0,0.0,0.0,0.0,0.0,0.0,0.0,0.0,0.0,0.0,0.0,0.0,0.0,0.0,0.0,0.0,0.0,0.0,0.0,0.0,0.0,1.2978,1.2148,1.101,0.9404,0.7357,0.0,0.0,0.0,0.0,0.0,0.0,0.0,0.0,0.0,0.0,0.0,0.0,0.0,0.0,0.0,0.0,0.0,0.0,0.0,0.0,0.0,0.0,0.0,0.0,0.0,0.0,0.0,0.0,0.0,0.0,0.0,0.0,0.0,0.0,0.0,0.0,0.0,0.0,0.0,0.0,0.0,0.0,0.0,0.0,0.0,0.0,0.0,0.0,0.0,0.0,0.0,0.0,0.0,0.0,0.0,0.0,0.0,0.0,0.0,0.0,0.0,0.0,0.0,0.0,0.0,0.0,0.0,0.0,0.0,0.0,0.0,0.0,0.0,0.0,0.0,0.0,0.0,0.0,0.0,0.0,0.0,0.0,0.0,0.0,0.0,0.0,0.0,0.0,0.0,0.0,0.0,0.0,0.0,0.0,0.0,0.0,0.0,0.0,0.0,0.0,0.0,0.0,0.0,0.0,0.0,0.0,0.0,0.0,0.0,0.0,0.0,0.0,1.1314,0.9592,0.7098,0.0,0.0,0.0,0.0,0.0,0.0,0.0,0.0,0.0,0.0,0.0,0.0,0.0,0.0,0.0,0.0,0.0,0.0,0.0,0.0,0.0,0.0,0.0,0.0,0.0,0.0,0.0,0.0,0.0,0.0,0.0,0.0,0.0,0.0,0.0,0.0,0.0,0.0,0.0,0.0,0.0,0.0,0.0,0.0,0.0,0.0,0.0,0.0,0.0,0.0,0.0,0.0,0.0,0.0,0.0,0.0,0.0,0.0,0.0,0.0,0.0,0.0,0.0,0.0,0.0,0.0,0.0,0.0,0.0,0.0,0.0,0.0,0.0,0.0,0.0,0.0,0.0,0.0,0.0,0.0,0.0,0.0,0.0,0.0,0.0,0.0,0.0,0.0,0.0,0.0,0.0,0.0,0.0,0.0,0.0,0.0,0.0,0.0,0.0,0.0,0.0,0.0,0.0,0.0,0.0,0.0,0.0,0.0,0.0,0.0,1.2657,1.2434,1.1547,0.0,0.6185,0.0,0.0,0.0,0.0,0.0,0.0,0.0,0.0,0.0,0.0,0.0,0.0,0.0,0.0,0.0,0.0,0.0,0.0,0.0,0.0,0.0,0.0,0.0,0.0,0.0,0.0,0.0,0.0,0.0,0.0,0.0,0.0,0.0,0.0,0.0,0.0,0.0,0.0,0.0,0.0,0.0,0.0,0.0,0.0,0.0,0.0,0.0,0.0,0.0,0.0,0.0,0.0,0.0,0.0,0.0,0.0,0.0,0.0,0.0,0.0,0.0,0.0,0.0,0.0,0.0,0.0,0.0,0.0,0.0,0.0,0.0,0.0,0.0,0.0,0.0,0.0,0.0,0.0,0.0,0.0,0.0,0.0,0.0,0.0,0.0,0.0,0.0,0.0,0.0,0.0,0.0,0.0,0.0,0.0,0.0,0.0,0.0,0.0,0.0,0.0,0.0,0.0,0.0,0.0,0.0,0.0,0.0,0.0,0.0,0.0,1.2397,1.2532,1.0831,0.8955,0.0,0.0,0.0,0.0,0.0,0.0,0.0,0.0,0.0,0.0,0.0,0.0,0.0,0.0,0.0,0.0,0.0,0.0,0.0,0.0,0.0,0.0,0.0,0.0,0.0,0.0,0.0,0.0,0.0,0.0,0.0,0.0,0.0,0.0,0.0,0.0,0.0,0.0,0.0,0.0,0.0,0.0,0.0,0.0,0.0,0.0,0.0,0.0,0.0,0.0,0.0,0.0,0.0,0.0,0.0,0.0,0.0,0.0,0.0,0.0,0.0,0.0,0.0,0.0,0.0,0.0,0.0,0.0,0.0,0.0,0.0,0.0,0.0,0.0,0.0,0.0,0.0,0.0,0.0,0.0,0.0,0.0,0.0,0.0,0.0,0.0,0.0,0.0,0.0,0.0,0.0,0.0,0.0,0.0,0.0,0.0,0.0,0.0,0.0,0.0,0.0,0.0,0.0,0.0,0.0,0.0,0.0,0.0,0.0,0.0,1.159,1.1919,1.1999,1.057,0.8994,0.7404,0.0,0.0,0.0,0.0,0.0,0.0,0.0,0.0,0.0,0.0,0.0,0.0,0.0,0.0,0.0,0.0,0.0,0.0,0.0,0.0,0.0,0.0,0.0,0.0,0.0,0.0,0.0,0.0,0.0,0.0,0.0,0.0,0.0,0.0,0.0,0.0,0.0,0.0,0.0,0.0,0.0,0.0,0.0,0.0,0.0,0.0,0.0,0.0,0.0,0.0,0.0,0.0,0.0,0.0,0.0,0.0,0.0,0.0,0.0,0.0,0.0,0.0,0.0,0.0,0.0,0.0,0.0,0.0,0.0,0.0,0.0,0.0,0.0,0.0,0.0,0.0,0.0,0.0,0.0,0.0,0.0,0.0,0.0,0.0,0.0,0.0,0.0,0.0,0.0,0.0,0.0,0.0,0.0,0.0,0.0,0.0,0.0,0.0,0.0,0.0,0.0,0.0,0.0,0.0,0.0,0.0,0.0,0.0,1.048,1.0981,1.1098,1.0835,1.1165,1.004,0.0,0.0,0.0,0.0,0.0,0.0,0.0,0.0,0.0,0.0,0.0,0.0,0.0,0.0,0.0,0.0,0.0,0.0,0.0,0.0,0.0,0.0,0.0,0.0,0.0,0.0,0.0,0.0,0.0,0.0,0.0,0.0,0.0,0.0,0.0,0.0,0.0,0.0,0.0,0.0,0.0,0.0,0.0,0.0,0.0,0.0,0.0,0.0,0.0,0.0,0.0,0.0,0.0,0.0,0.0,0.0,0.0,0.0,0.0,0.0,0.0,0.0,0.0,0.0,0.0,0.0,0.0,0.0,0.0,0.0,0.0,0.0,0.0,0.0,0.0,0.0,0.0,0.0,0.0,0.0,0.0,0.0,0.0,0.0,0.0,0.0,0.0,0.0,0.0,0.0,0.0,0.0,0.0,0.0,0.0,0.0,0.0,0.0,0.0,0.0,0.0,0.0,0.0,0.0,0.0,0.0,0.0,0.0,0.0,1.0897,1.135,1.1351,1.0903,1.0334,0.9517,0.0,0.0,0.0,0.0,0.0,0.0,0.0,0.0,0.0,0.0,0.0,0.0,0.0,0.0,0.0,0.0,0.0,0.0,0.0,0.0,0.0,0.0,0.0,0.0,0.0,0.0,0.0,0.0,0.0,0.0,0.0,0.0,0.0,0.0,0.0,0.0,0.0,0.0,0.0,0.0,0.0,0.0,0.0,0.0,0.0,0.0,0.0,0.0,0.0,0.0,0.0,0.0,0.0,0.0,0.0,0.0,0.0,0.0,0.0,0.0,0.0,0.0,0.0,0.0,0.0,0.0,0.0,0.0,0.0,0.0,0.0,0.0,0.0,0.0,0.0,0.0,0.0,0.0,0.0,0.0,0.0,0.0,0.0,0.0,0.0,0.0,0.0,0.0,0.0,0.0,0.0,0.0,0.0,0.0,0.0,0.0,0.0,0.0,0.0,0.0,0.0,0.0,0.0,0.0,0.0,0.0,0.0,0.0,0.0,1.1115,0.0,1.1454,1.0596,1.0014,0.9277,0.0,0.0,0.0,0.0,0.0,0.0,0.0,0.0,0.0,0.0,0.0,0.0,0.0,0.0,0.0,0.0,0.0,0.0,0.0,0.0,0.0,0.0,0.0,0.0,0.0,0.0,0.0,0.0,0.0,0.0,0.0,0.0,0.0,0.0,0.0,0.0,0.0,0.0,0.0,0.0,0.0,0.0,0.0,0.0,0.0,0.0,0.0,0.0,0.0,0.0,0.0,0.0,0.0,0.0,0.0,0.0,0.0,0.0,0.0,0.0,0.0,0.0,0.0,0.0,0.0,0.0,0.0,0.0,0.0,0.0,0.0,0.0,0.0,0.0,0.0,0.0,0.0,0.0,0.0,0.0,0.0,0.0,0.0,0.0,0.0,0.0,0.0,0.0,0.0,0.0,0.0,0.0,0.0,0.0,0.0,0.0,0.0,0.0,0.0,0.0,0.0,0.0,0.0,0.0,0.0,0.0,0.0,0.0,1.0453,1.0888,1.1622,1.1279,0.9817,1.0357,0.9387,0.0,0.0,0.0,0.0,0.0,0.0,0.0,0.0,0.0,0.0,0.0,0.0,0.0,0.0,0.0,0.0,0.0,0.0,0.0,0.0,0.0,0.0,0.0,0.0,0.0,0.0,0.0,0.0,0.0,0.0,0.0,0.0,0.0,0.0,0.0,0.0,0.0,0.0,0.0,0.0,0.0,0.0,0.0,0.0,0.0,0.0,0.0,0.0,0.0,0.0,0.0,0.0,0.0,0.0,0.0,0.0,0.0,0.0,0.0,0.0,0.0,0.0,0.0,0.0,0.0,0.0,0.0,0.0,0.0,0.0,0.0,0.0,0.0,0.0,0.0,0.0,0.0,0.0,0.0,0.0,0.0,0.0,0.0,0.0,0.0,0.0,0.0,0.0,0.0,0.0,0.0,0.0,0.0,0.0,0.0,0.0,0.0,0.0,0.0,0.0,0.0,0.0,0.0,0.0,0.0,0.0,0.0,0.0,0.0,1.0774,1.1251,1.1169,1.0443,0.9968,0.9077,0.0,0.0,0.0,0.0,0.0,0.0,0.0,0.0,0.0,0.0,0.0,0.0,0.0,0.0,0.0,0.0,0.0,0.0,0.0,0.0,0.0,0.0,0.0,0.0,0.0,0.0,0.0,0.0,0.0,0.0,0.0,0.0,0.0,0.0,0.0,0.0,0.0,0.0,0.0,0.0,0.0,0.0,0.0,0.0,0.0,0.0,0.0,0.0,0.0,0.0,0.0,0.0,0.0,0.0,0.0,0.0,0.0,0.0,0.0,0.0,0.0,0.0,0.0,0.0,0.0,0.0,0.0,0.0,0.0,0.0,0.0,0.0,0.0,0.0,0.0,0.0,0.0,0.0,0.0,0.0,0.0,0.0,0.0,0.0,0.0,0.0,0.0,0.0,0.0,0.0,0.0,0.0,0.0,0.0,0.0,0.0,0.0,0.0,0.0,0.0,0.0,0.0,0.0,0.0,0.0,0.0,0.0,0.0,0.0,1.0956,1.1226,1.1044,1.0298,0.9511,0.8481,0.7202,0.0,0.0,0.0,0.0,0.0,0.0,0.0,0.0,0.0,0.0,0.0,0.0,0.0,0.0,0.0,0.0,0.0,0.0,0.0,0.0,0.0,0.0,0.0,0.0,0.0,0.0,0.0,0.0,0.0,0.0,0.0,0.0,0.0,0.0,0.0,0.0,0.0,0.0,0.0,0.0,0.0,0.0,0.0,0.0,0.0,0.0,0.0,0.0,0.0,0.0,0.0,0.0,0.0,0.0,0.0,0.0,0.0,0.0,0.0,0.0,0.0,0.0,0.0,0.0,0.0,0.0,0.0,0.0,0.0,0.0,0.0,0.0,0.0,0.0,0.0,0.0,0.0,0.0,0.0,0.0,0.0,0.0,0.0,0.0,0.0,0.0,0.0,0.0,0.0,0.0,0.0,0.0,0.0,0.0,0.0,0.0,0.0,0.0,0.0,0.0,0.0,0.0,0.0,0.0,0.0,0.0,0.0,0.0,1.1293,1.1408,1.0853,0.9656,0.9006,0.7719,0.0,0.0,0.0,0.0,0.0,0.0,0.0,0.0,0.0,0.0,0.0,0.0,0.0,0.0,0.0,0.0,0.0,0.0,0.0,0.0,0.0,0.0,0.0,0.0,0.0,0.0,0.0,0.0,0.0,0.0,0.0,0.0,0.0,0.0,0.0,0.0,0.0,0.0,0.0,0.0,0.0,0.0,0.0,0.0,0.0,0.0,0.0,0.0,0.0,0.0,0.0,0.0,0.0,0.0,0.0,0.0,0.0,0.0,0.0,0.0,0.0,0.0,0.0,0.0,0.0,0.0,0.0,0.0,0.0,0.0,0.0,0.0,0.0,0.0,0.0,0.0,0.0,0.0,0.0,0.0,0.0,0.0,0.0,0.0,0.0,0.0,0.0,0.0,0.0,0.0,0.0,0.0,0.0,0.0,0.0,0.0,0.0,0.0,0.0,0.0,0.0,0.0,0.0,0.0,0.0,0.0,0.0,0.0,0.0,1.1393,1.0934,1.0405,0.9803,0.8699,0.7688,0.0,0.0,0.0,0.0,0.0,0.0,0.0,0.0,0.0,0.0,0.0,0.0,0.0,0.0,0.0,0.0,0.0,0.0,0.0,0.0,0.0,0.0,0.0,0.0,0.0,0.0,0.0,0.0,0.0,0.0,0.0,0.0,0.0,0.0,0.0,0.0,0.0,0.0,0.0,0.0,0.0,0.0,0.0,0.0,0.0,0.0,0.0,0.0,0.0,0.0,0.0,0.0,0.0,0.0,0.0,0.0,0.0,0.0,0.0,0.0,0.0,0.0,0.0,0.0,0.0,0.0,0.0,0.0,0.0,0.0,0.0,0.0,0.0,0.0,0.0,0.0,0.0,0.0,0.0,0.0,0.0,0.0,0.0,0.0,0.0,0.0,0.0,0.0,0.0,0.0,0.0,0.0,0.0,0.0,0.0,0.0,0.0,0.0,0.0,0.0,0.0,0.0,0.0,0.0,0.0,0.0,0.0,0.0,1.1723,1.1521,1.0519,0.9743,0.9354,0.824,0.7058,0.0,0.0,0.0,0.0,0.0,0.0,0.0,0.0,0.0,0.0,0.0,0.0,0.0,0.0,0.0,0.0,0.0,0.0,0.0,0.0,0.0,0.0,0.0,0.0,0.0,0.0,0.0,0.0,0.0,0.0,0.0,0.0,0.0,0.0,0.0,0.0,0.0,0.0,0.0,0.0,0.0,0.0,0.0,0.0,0.0,0.0,0.0,0.0,0.0,0.0,0.0,0.0,0.0,0.0,0.0,0.0,0.0,0.0,0.0,0.0,0.0,0.0,0.0,0.0,0.0,0.0,0.0,0.0,0.0,0.0,0.0,0.0,0.0,0.0,0.0,0.0,0.0,0.0,0.0,0.0,0.0,0.0,0.0,0.0,0.0,0.0,0.0,0.0,0.0,0.0,0.0,0.0,0.0,0.0,0.0,0.0,0.0,0.0,0.0,0.0,0.0,0.0,0.0,0.0,0.0,0.0,0.0,0.0,1.1817,1.1686,1.0205,0.9151,0.8516,0.7566,0.6126,0.0,0.0,0.0,0.0,0.0,0.0,0.0,0.0,0.0,0.0,0.0,0.0,0.0,0.0,0.0,0.0,0.0,0.0,0.0,0.0,0.0,0.0,0.0,0.0,0.0,0.0,0.0,0.0,0.0,0.0,0.0,0.0,0.0,0.0,0.0,0.0,0.0,0.0,0.0,0.0,0.0,0.0,0.0,0.0,0.0,0.0,0.0,0.0,0.0,0.0,0.0,0.0,0.0,0.0,0.0,0.0,0.0,0.0,0.0,0.0,0.0,0.0,0.0,0.0,0.0,0.0,0.0,0.0,0.0,0.0,0.0,0.0,0.0,0.0,0.0,0.0,0.0,0.0,0.0,0.0,0.0,0.0,0.0,0.0,0.0,0.0,0.0,0.0,0.0,0.0,0.0,0.0,0.0,0.0,0.0,0.0,0.0,0.0,0.0,0.0,0.0,0.0,0.0,0.0,0.0,0.0,0.0,0.0,1.1785,1.1166,1.0509,0.9475,0.8057,0.6925,0.5599,0.0,0.0,0.0,0.0,0.0,0.0,0.0,0.0,0.0,0.0,0.0,0.0,0.0,0.0,0.0,0.0,0.0,0.0,0.0,0.0,0.0,0.0,0.0,0.0,0.0,0.0,0.0,0.0,0.0,0.0,0.0,0.0,0.0,0.0,0.0,0.0,0.0,0.0,0.0,0.0,0.0,0.0,0.0,0.0,0.0,0.0,0.0,0.0,-0.5183,0.0,0.0,0.0,0.0,0.0,0.0,0.0,0.0,0.0,0.0,0.0,0.0,0.0,0.0,0.0,0.0,0.0,0.0,0.0,0.0,0.0,0.0,0.0,0.0,0.0,0.0,0.0,0.0,0.0,0.0,0.0,0.0,0.0,0.0,0.0,0.0,0.0,0.0,0.0,0.0,0.0,0.0,0.0,0.0,0.0,0.0,0.0,0.0,0.0,0.0,0.0,0.0,0.0,0.0,0.0,0.0,0.0,0.0,0.0,1.159,1.1305,1.0383,0.9427,0.8382,0.6827,0.5222,0.0,0.0,0.0,0.0,0.0,0.0,0.0,0.0,0.0,0.0,0.0,0.0,0.0,0.0,0.0,0.0,0.0,0.0,0.0,0.0,0.0,0.0,0.0,0.0,0.0,0.0,0.0,0.0,0.0,0.0,0.0,0.0,0.0,0.0,0.0,0.0,0.0,0.0,0.0,0.0,0.0,0.0,0.0,0.0,0.0,0.0,0.0,0.0,0.0,0.0,0.0,0.0,0.0,0.0,0.0,0.0,0.0,0.0,0.0,0.0,0.0,0.0,0.0,0.0,0.0,0.0,0.0,0.0,0.0,0.0,0.0,0.0,0.0,0.0,0.0,0.0,0.0,0.0,0.0,0.0,0.0,0.0,0.0,0.0,0.0,0.0,0.0,0.0,0.0,0.0,0.0,0.0,0.0,0.0,0.0,0.0,0.0,0.0,0.0,0.0,0.0,0.0,0.0,0.0,0.0,0.0,0.0,1.147,1.1461,1.149,1.0162,0.9234,0.8634,0.6952,0.4991,0.2894,0.0,0.0,0.0,0.0,0.0,0.0,0.0,0.0,0.0,0.0,0.0,0.0,0.0,0.0,0.0,0.0,0.0,0.0,0.0,0.0,0.0,0.0,0.0,0.0,0.0,0.0,0.0,0.0,0.0,0.0,0.0,0.0,0.0,0.0,0.0,0.0,0.0,0.0,-1.0215,-1.2062,0.0,0.0,0.0,0.0,0.0,0.0,0.0,0.0,-0.7575,0.0,0.0,0.0,0.0,0.0,0.0,0.0,0.0,0.0,0.0,0.0,0.0,0.0,0.0,0.0,0.0,0.0,0.0,0.0,0.0,0.0,0.0,0.0,0.0,0.0,0.0,0.0,0.0,0.0,0.0,0.0,0.0,0.0,0.0,0.0,0.0,0.0,0.0,0.0,0.0,0.0,0.0,0.0,0.0,0.0,0.0,0.0,0.0,0.0,0.0,0.0,0.0,0.0,0.0,0.0,0.0,1.1204,1.1429,1.1328,1.0793,1.0156,0.9112,0.7629,0.6929,0.5139,0.2134,0.0,0.0,0.0,0.0,0.0,0.0,0.0,0.0,0.0,0.0,0.0,0.0,0.0,0.0,0.0,0.0,0.0,0.0,0.0,0.0,0.0,0.0,0.0,0.0,0.0,0.0,0.0,0.0,0.0,0.0,0.0,0.0,0.0,0.0,0.0,0.0,0.0,0.0,0.0,-1.3864,-1.36,0.0,0.0,0.0,0.0,0.0,0.0,0.0,0.0,-0.5977,0.0,0.0,0.0,0.0,0.0,0.0,0.0,0.0,0.0,0.0,0.0,0.0,0.0,0.0,0.0,0.0,0.0,0.0,0.0,0.0,0.0,0.0,0.0,0.0,0.0,0.0,0.0,0.0,0.0,0.0,0.0,0.0,0.0,0.0,0.0,0.0,0.0,0.0,0.0,0.0,0.0,0.0,0.0,0.0,0.0,0.0,0.0,0.0,0.0,0.0,0.0,0.0,0.0,0.0,0.0,1.1249,1.134,1.1145,1.0579,0.9587,0.84,0.7001,0.6318,0.4323,0.0,0.0,0.0,0.0,0.0,0.0,0.0,0.0,0.0,0.0,0.0,0.0,0.0,0.0,0.0,0.0,0.0,0.0,0.0,0.0,0.0,0.0,0.0,0.0,0.0,0.0,0.0,0.0,0.0,0.0,0.0,0.0,0.0,0.0,0.0,0.0,0.0,0.0,0.0,0.0,-1.4363,-1.3928,-1.3564,0.0,0.0,0.0,0.0,0.0,0.0,-0.7494,-0.6206,0.0,0.0,0.0,0.0,0.0,0.0,0.0,0.0,0.0,0.0,0.0,0.0,0.0,0.0,0.0,0.0,0.0,0.0,0.0,0.0,0.0,0.0,0.0,0.0,0.0,0.0,0.0,0.0,0.0,0.0,0.0,0.0,0.0,0.0,0.0,0.0,0.0,0.0,0.0,0.0,0.0,0.0,0.0,0.0,0.0,0.0,0.0,0.0,0.0,0.0,0.0,0.0,0.0,0.0,0.0,1.1317,1.1183,1.0864,1.0288,0.8749,0.7278,0.6,0.5184,0.2955,0.0,0.0,0.0,0.0,0.0,0.0,0.0,0.0,0.0,0.0,0.0,0.0,0.0,0.0,0.0,0.0,0.0,0.0,0.0,0.0,0.0,0.0,0.0,0.0,0.0,0.0,0.0,0.0,0.0,0.0,0.0,0.0,0.0,0.0,0.0,0.0,0.0,0.0,0.0,0.0,0.0,-1.3923,-1.2286,-0.9721,0.0,0.0,0.0,0.0,-0.7814,-0.6686,0.0,0.0,0.0,0.0,0.0,0.0,0.0,0.0,0.0,0.0,0.0,0.0,0.0,0.0,0.0,0.0,0.0,0.0,0.0,0.0,0.0,0.0,0.0,0.0,0.0,0.0,0.0,0.0,0.0,0.0,0.0,0.0,0.0,0.0,0.0,0.0,0.0,0.0,0.0,0.0,0.0,0.0,0.0,0.0,0.0,0.0,0.0,0.0,0.0,0.0,0.0,0.0,0.0,0.0,0.0,0.0,1.1113,1.0955,1.0349,0.9338,0.7589,0.5688,0.3833,0.332,0.107,0.0,0.0,0.0,0.0,0.0,0.0,0.0,0.0,0.0,0.0,0.0,0.0,0.0,0.0,0.0,0.0,0.0,0.0,0.0,0.0,0.0,0.0,0.0,0.0,0.0,0.0,0.0,0.0,0.0,0.0,0.0,0.0,0.0,0.0,0.0,0.0,0.0,0.0,0.0,0.0,0.0,-1.3353,-1.459,-0.9396,-0.4184,0.0,0.0,-0.1495,-0.4327,-0.3488,0.0,0.0,0.0,0.0,0.0,0.0,0.0,0.0,0.0,0.0,0.0,0.0,0.0,0.0,0.0,0.0,0.0,0.0,0.0,0.0,0.0,0.0,0.0,0.0,0.0,0.0,0.0,0.0,0.0,0.0,0.0,0.0,0.0,0.0,0.0,0.0,0.0,0.0,0.0,0.0,0.0,0.0,0.0,0.0,0.0,0.0,0.0,0.0,0.0,0.0,0.0,0.0,0.0,0.0,0.0,1.1189,1.1119,1.0888,1.0199,0.8949,0.6853,0.4377,0.1658,0.1222,-0.1174,0.0,0.0,0.0,0.0,0.0,0.0,0.0,0.0,0.0,0.0,0.0,0.0,0.0,0.0,0.0,0.0,0.0,0.0,0.0,0.0,0.0,0.0,0.0,0.0,0.0,0.0,0.0,0.0,0.0,0.0,0.0,0.0,0.0,0.0,0.0,0.0,0.0,0.0,0.0,0.0,0.0,0.0,-1.3677,-0.8716,0.0,0.0,0.0,0.1033,0.0607,0.0,0.0,0.0,0.0,0.0,0.0,0.0,0.0,0.0,0.0,0.0,0.0,0.0,0.0,0.0,0.0,0.0,0.0,0.0,0.0,0.0,0.0,0.0,0.0,0.0,0.0,0.0,0.0,0.0,0.0,0.0,0.0,0.0,0.0,0.0,0.0,0.0,0.0,0.0,0.0,0.0,0.0,0.0,0.0,0.0,0.0,0.0,0.0,0.0,0.0,0.0,0.0,0.0,0.0,0.0,0.0,0.0,1.0924,1.0571,0.9798,0.8514,0.582,0.282,-0.0353,-0.1347,0.0,0.0,0.0,0.0,0.0,0.0,0.0,0.0,0.0,0.0,0.0,0.0,0.0,0.0,0.0,0.0,0.0,0.0,0.0,0.0,0.0,0.0,0.0,0.0,0.0,0.0,0.0,-0.1889,0.0,0.0,0.0,0.0,0.0,0.0,0.0,0.0,0.0,0.0,0.0,0.0,0.0,0.0,-1.3207,-1.2697,-0.8987,-0.4604,0.0,0.0,0.3169,0.4192,0.3233,0.2274,0.0,0.0,0.0,0.0,0.0,0.0,0.0,0.0,0.0,0.0,0.0,0.0,0.0,0.0,0.0,0.0,0.0,0.0,0.0,0.0,0.0,0.0,0.0,0.0,0.0,0.0,0.0,0.0,0.0,0.0,0.0,0.0,0.0,0.0,0.0,0.0,0.0,0.0,0.0,0.0,0.0,0.0,0.0,0.0,0.0,0.0,0.0,0.0,0.0,0.0,0.0,0.0,0.0,0.0,1.0584,1.0423,0.9649,0.8808,0.7803,0.4103,0.0728,-0.2258,-0.4636,-0.6697,0.0,0.0,0.0,0.0,0.0,0.0,0.0,0.0,0.0,0.0,0.0,0.0,0.0,0.0,0.0,0.0,0.0,0.0,0.0,0.0,0.0,0.0,0.0,0.0,0.0,0.0,0.0,0.0,0.0,0.0,0.0,0.0,0.0,0.0,0.0,0.0,0.0,0.0,0.0,0.0,0.0,-1.2113,-1.262,-1.0952,-0.6713,0.0,0.4156,0.5218,0.5135,0.6428,0.6784,0.4829,0.0,0.0,0.0,0.0,0.0,0.0,0.0,0.0,0.0,0.0,0.0,0.0,0.0,0.0,0.0,0.0,0.0,0.0,0.0,0.0,0.0,0.0,0.0,0.0,0.0,0.0,0.0,0.0,0.0,0.0,0.0,0.0,0.0,0.0,0.0,0.0,0.0,0.0,0.0,0.0,0.0,0.0,0.0,0.0,0.0,0.0,0.0,0.0,0.0,0.0,0.0,0.0,0.0,1.043,1.0209,1.0004,0.9182,0.7698,0.4593,0.126,-0.2173,-0.6444,-0.8695,0.0,0.0,0.0,0.0,0.0,0.0,0.0,0.0,0.0,0.0,0.0,0.0,0.0,0.0,0.0,0.0,0.0,0.0,0.0,0.0,0.0,0.0,0.0,0.0,0.0,0.0,0.0,0.0,-0.6739,-0.8788,-0.9033,0.0,0.0,0.0,0.0,0.0,0.0,0.0,0.0,0.0,0.0,-1.4179,-1.1539,-0.8731,0.0,0.0,0.4646,0.6027,0.722,0.7657,0.7534,0.666,0.5493,0.0,0.0,0.0,0.0,0.0,0.0,0.0,0.0,0.0,0.0,0.0,0.0,0.0,0.0,0.0,0.0,0.0,0.0,0.0,0.0,0.0,0.0,0.0,0.0,0.0,0.0,0.0,0.0,0.0,0.0,0.0,0.0,0.0,0.0,0.0,0.0,0.0,0.0,0.0,0.0,0.0,0.0,0.0,0.0,0.0,0.0,0.0,0.0,0.0,0.0,0.0,0.0,0.9985,0.9853,0.9863,0.915,0.7719,0.538,0.2243,-0.1715,-0.6728,-0.9077,0.0,0.0,0.0,0.0,0.0,0.0,0.0,0.0,0.0,0.0,0.0,0.0,0.0,0.0,0.0,0.0,0.0,0.0,0.0,0.0,0.0,0.0,0.0,0.0,0.0,0.0,0.0,0.0,-0.5881,-0.8152,-1.0204,0.0,0.0,0.0,0.0,0.0,0.0,0.0,0.0,0.0,0.0,-1.6886,-1.2572,-0.7968,-0.3442,0.0872,0.4514,0.6996,0.7649,0.7961,0.7929,0.7298,0.0,0.0,0.0,0.0,0.0,0.0,0.0,0.0,0.0,0.0,0.0,0.0,0.0,0.0,0.0,0.0,0.0,0.0,0.0,0.0,0.0,0.0,0.0,0.0,0.0,0.0,0.0,2.6802,0.0,0.0,2.6059,0.0,0.0,0.0,0.0,0.0,0.0,0.0,0.0,0.0,0.0,0.0,0.0,0.0,0.0,0.0,0.0,0.0,0.0,0.0,0.0,0.0,0.0,0.9121,0.9228,0.8922,0.837,0.7685,0.6163,0.3311,-0.0911,-0.5267,-0.7495,-0.7359,0.0,0.0,0.0,0.0,0.0,0.0,0.0,0.0,0.0,0.0,0.0,0.0,0.0,0.0,0.0,0.0,0.0,0.0,0.0,0.0,0.0,0.0,0.0,0.0,0.0,0.0,-0.1835,-0.4743,-0.7961,0.0,0.0,0.0,0.0,0.0,0.0,0.0,0.0,0.0,-2.2968,-2.2017,-2.0089,-1.6598,-0.9761,-0.4733,-0.335,0.376,0.8232,0.5731,0.736,0.8337,0.0,0.0,0.0,0.0,0.0,0.0,0.0,0.0,0.0,0.0,0.0,0.0,0.0,0.0,0.0,0.0,0.0,0.0,0.0,0.0,0.0,0.0,0.0,0.0,0.0,0.0,0.0,3.1862,3.0359,0.0,0.0,0.0,0.0,0.0,0.0,0.0,0.0,0.0,0.0,0.0,2.1085,2.0669,0.0,0.0,0.0,0.0,0.0,0.0,0.0,0.0,0.0,0.0,0.0,0.0,0.967,0.988,0.9742,0.8969,0.7551,0.6576,0.4218,0.0348,-0.3352,-0.6127,-0.7824,0.0,0.0,0.0,0.0,0.0,0.0,0.0,0.0,0.0,0.0,0.0,0.0,0.0,0.0,0.0,0.0,0.0,0.0,0.0,0.0,0.0,0.0,0.0,0.0,0.0,-0.1621,0.0,0.0,0.0,0.0,0.0,0.0,0.0,0.0,0.0,0.0,0.0,-2.7708,-2.9338,-2.8455,-2.634,-2.2676,-1.6382,-1.0246,0.0,0.0,0.0,0.0,0.0,0.0,0.0,0.0,0.0,0.0,0.0,0.0,0.0,0.0,-4.4143,-3.0628,-2.396,-1.9847,-1.7935,0.0,0.0,0.0,0.0,0.0,0.0,0.0,0.0,0.0,0.0,0.0,0.0,0.0,0.0,3.438,3.3288,3.1572,0.0,0.0,0.0,0.0,0.0,0.0,0.0,0.0,2.4115,2.3122,2.1945,2.1412,2.0214,0.0,1.8271,1.6681,0.0,0.0,0.0,0.0,0.0,0.0,0.0,0.0,0.9933,0.9963,0.997,0.9221,0.7744,0.6938,0.516,0.2255,-0.1969,-0.5478,-0.8213,-0.8129,-0.6945,0.0,0.0,0.0,0.0,0.0,0.0,0.0,0.0,0.0,0.0,0.0,0.0,0.0,0.0,0.0,0.0,0.0,0.0,0.0,0.0,0.0,0.0,0.0,-0.1702,0.0,0.0,0.0,0.0,0.0,0.0,0.0,0.0,0.0,-3.1841,-3.2855,-3.4238,-3.6475,-3.4153,-3.0798,-2.6891,0.0,0.0,0.0,0.0,0.0,0.0,0.0,0.3118,-0.0604,-0.4736,-1.0782,-2.0375,-3.567,-4.778,-5.115,0.0,0.0,-3.8225,-2.9948,-2.403,-2.0977,-1.8276,-1.6126,-1.5205,-1.4305,-1.315,0.0,0.0,0.0,0.0,0.0,0.0,0.0,0.0,3.7163,3.6476,0.0,3.3129,0.0,0.0,0.0,0.0,2.8152,2.8592,0.0,0.0,2.4976,2.3778,2.2271,2.1545,2.0493,1.9142,1.8558,1.7174,1.5045,1.4769,0.0,0.0,0.0,0.0,0.0,0.0,0.9897,0.9379,0.9501,0.9123,0.8174,0.7253,0.605,0.4401,-0.1124,-0.553,-0.835,-0.9012,-0.8657,-0.7137,-0.3026,0.0,0.0,0.0,0.0,0.0,0.0,0.0,0.0,0.0,0.0,0.0,0.0,0.0,0.0,0.0,0.0,0.0,0.0,0.0,0.0,0.0241,0.0,0.0,0.0,0.0,0.0,0.0,0.0,0.0,0.0,0.0,-3.8443,-3.9972,-4.1722,-4.389,0.0,0.0,0.0,0.0,-1.9763,-1.1495,-0.7139,-0.4953,-0.5274,-0.431,-0.4296,-0.6917,0.0,0.0,-3.1042,-4.3679,-5.2323,-5.1338,-5.4678,-5.6282,-5.3999,-4.3471,-3.422,-2.8912,-2.2641,-1.7754,-1.5847,-1.3183,-1.0401,3.7378,0.0,0.0,0.0,0.0,4.0093,4.1133,4.1923,4.1493,4.0466,3.8977,3.7047,0.0,0.0,0.0,0.0,0.0,0.0,2.8319,2.6571,2.5458,2.4203,2.2829,2.2147,2.1,1.945,1.875,1.7265,1.505,1.4404,1.3408,1.2029,0.0,0.0,0.0,0.0,1.0364,0.9953,0.9329,0.8688,0.8004,0.6912,0.4856,0.1773,-0.1838,-0.5403,-0.8814,-1.0623,-1.1065,-0.9987,-0.7594,0.0,0.0,0.0,0.0,0.0,0.0,0.0,0.0,0.0,0.0,0.0,0.0,0.0,0.0,0.0,0.0,0.0,0.0,0.0,0.0493,-0.0807,-0.2103,0.0,0.0,0.0,0.0,0.0,0.0,0.0,0.0,0.0,-4.3025,-4.4594,-4.549,0.0,0.0,-3.6241,-3.2952,-2.8049,-2.3283,-1.9454,-1.7723,0.0,-1.4624,-1.2508,-1.2257,-1.5302,-2.3966,-3.374,-4.331,-5.2717,-5.9765,-6.1858,-6.2984,-6.2664,-5.9134,-4.772,-3.6713,-3.0749,-2.5618,-2.0754,-1.6249,-1.2206,-0.8201,4.0226,3.9021,3.9727,4.0523,4.1409,4.2512,4.3689,4.4757,4.4218,4.344,4.2344,3.9902,3.7923,3.6125,3.2649,0.0,0.0,0.0,2.9197,2.7334,2.5918,2.4502,2.3127,2.2161,2.1048,1.9658,1.8524,1.693,1.4825,1.3742,1.2657,1.1538,0.0,0.0,1.0952,1.0895,1.0541,0.995,0.9447,0.8801,0.7998,0.6885,0.493,0.1989,-0.1449,-0.5287,-0.9556,-1.1959,-1.3173,-1.295,-1.1289,-0.8728,0.0,0.0,0.0,0.0,0.0,0.0,0.0,0.0,0.0,0.0,0.0,0.2177,0.1155,0.0,0.0,0.0,0.0997,0.053,-0.0862,-0.0981,0.0,0.0,0.0,0.0,0.0,0.0,0.0,-3.1569,-3.7747,-4.2718,-4.5712,-4.6738,-4.7023,-4.6607,-4.1123,-3.6144,-3.3327,0.0,-2.6041,-2.5928,-2.6836,-2.6925,-2.5489,-2.3525,-2.3142,-2.572,-3.3888,-4.2881,-5.1293,-5.917,-6.5374,-6.845,-6.9009,-6.7399,-6.3787,-5.3343,-4.2787,-3.5342,-2.8899,-2.2687,-1.6316,-1.0288,-0.5097,4.2516,4.2909,4.2732,4.3525,4.479,4.5385,4.6069,4.6709,4.5816,4.5505,4.5399,4.1933,3.9963,3.8997,3.4679,0.0,3.2125,3.1576,3.0196,2.8108,2.6313,2.4658,2.3069,2.1785,2.067,1.9684,1.7938,1.6249,1.4576,1.2907,1.1584,1.0576,1.0864,1.0864,1.0633,1.094,1.0599,0.9542,0.9681,0.922,0.8085,0.7107,0.5781,0.4061,-0.0358,-0.5195,-1.0335,-1.3166,-1.5025,-1.5939,-1.4376,-1.1983,-0.8616,0.0,0.0,0.0,0.0,0.0,0.0,0.0,0.0,0.0,0.0,0.0,0.0,0.0,0.0,0.0,0.051,0.0,-0.2493,-0.0861,0.0,0.0,0.0,-2.3879,-2.2865,-2.7136,-3.2019,-3.6835,0.0,0.0,-4.6619,-4.6687,-4.6248,-4.523,-3.9324,-3.4118,-3.1502,-2.9352,-2.8728,-3.2037,-3.5102,-3.7188,-3.7311,-3.5726,-3.4891,-3.6303,-4.2281,-4.8729,-5.6119,-6.373,-6.9495,-7.2812,-7.2916,-7.1167,-6.6742,-6.0016,-5.2366,-4.1847,-3.245,-2.3657,-1.5798,-0.7859,-0.1225,4.4248,4.515,4.5694,4.6078,4.6486,4.7022,4.7706,4.8314,4.7605,4.7022,4.6486,4.3863,4.0964,3.7957,3.6654,3.4809,3.2471,3.2043,3.0416,2.7938,2.6188,2.4368,2.2563,2.1328,2.0092,1.8903,1.7313,1.5793,1.4396,1.2316,1.0959,1.0346,1.0053,1.012,1.0529,1.099,1.0737,0.9744,0.9735,0.9102,0.7857,0.7502,0.6142,0.3669,-0.0633,-0.5046,-0.958,-1.442,-1.7583,-1.8795,-1.7982,-1.6154,-1.3298,-0.8302,0.0,0.0,0.0,0.0,0.0,0.0,0.0,0.0,0.0,0.2244,0.3012,0.0,0.1312,0.0,-0.2679,-0.3487,-0.3746,-0.3348,0.0,0.0,-2.0599,-2.5913,-2.8115,-3.1309,-3.5043,-3.9241,-4.2552,-4.454,-4.4555,-4.2882,-4.0172,-3.6241,-3.4654,-3.3359,-3.1764,-3.277,-3.5533,-4.0956,-4.5856,-4.8896,-4.8338,-4.4661,-4.1816,-4.2141,-4.7012,-5.3296,-6.0301,-6.7834,-7.3695,-7.6009,-7.6496,-7.4751,-7.0754,-6.3561,-5.507,-4.5623,-3.5369,-2.4483,-1.3696,-0.4815,0.2499,4.4451,4.5567,4.626,4.6885,4.7489,4.8353,4.9001,4.9462,4.8626,4.7933,4.7249,4.4765,4.1709,3.8345,3.7865,3.6002,3.322,3.2449,3.0616,2.7858,2.5989,2.4162,2.2381,2.0864,1.9478,1.8263,1.6666,1.5041,1.3425,1.1735,1.0465,0.9557,0.9549,0.9878,1.0586,1.0979,1.0738,0.9893,0.9552,0.8936,0.8014,0.776,0.6907,0.5315,0.142,-0.2654,-0.6832,-1.1495,-1.4934,-1.6809,-1.7074,-1.5958,-1.3399,-1.1145,-0.7097,0.0,0.0,0.0,0.0,0.0,0.0,0.0,0.0,0.0,0.0,0.0,-0.0534,-0.4688,-0.6013,-0.6786,-0.7366,-0.6215,-0.8446,-1.5825,-2.2133,-2.7642,-3.2068,-3.412,-3.6838,-4.1005,-4.2199,-4.2531,-4.2027,-3.9221,-3.5751,-3.1577,-3.1863,-3.24,-3.255,-3.5926,-4.1731,-4.8939,-5.4598,-5.7448,-5.5855,-5.1034,-4.7422,-4.74,-5.1309,-5.7216,-6.4127,-7.1772,-7.7894,-8.0125,-8.0927,-7.9709,-7.5103,-6.69,-5.7139,-4.5354,-3.398,-2.2448,-1.1118,-0.16,0.6396,4.3967,4.5029,4.5648,4.6679,4.7969,4.8999,4.9666,4.986,4.8862,4.807,4.738,4.4993,4.2147,3.9146,3.8332,3.6543,3.3888,3.2616,3.0616,2.7905,2.5779,2.3955,2.2352,2.0442,1.8879,1.7775,1.6177,1.4414,1.2533,1.1396,1.0241,0.9136,0.9438,0.9996,1.0636,1.092,1.0701,1.0011,0.9318,0.8704,0.8236,0.7783,0.7489,0.7223,0.3749,-0.0067,-0.3976,-0.7855,-1.1198,-1.3837,-1.5031,-1.4516,-1.2222,-1.2201,-0.9329,0.0,0.0185,0.0,0.0,0.0,0.0,0.0,0.0,0.0,0.0,0.021,-0.3204,-0.7802,-0.9446,-1.0664,-1.1707,-0.939,-1.0305,-1.6432,-2.2683,-2.867,-3.3792,-3.5153,-3.7168,-4.1366,-4.0608,-3.9435,-3.8622,-3.54,-3.2019,-2.9864,-3.0998,-3.2891,-3.4639,-4.0226,-4.7226,-5.5597,-6.1464,-6.3197,-5.9306,-5.5015,-5.1615,-5.119,-5.4324,-6.0227,-6.7159,-7.5231,-8.1825,-8.4435,-8.5455,-8.4305,-7.9936,-7.0379,-5.815,-4.3983,-3.096,-1.8783,-0.8154,0.1814,0.9926,4.3823,4.4474,4.5501,4.6589,4.7734,4.7954,4.8225,4.8444,4.7885,4.6893,4.5554,4.4561,4.1954,3.8313,3.7854,3.6402,3.4017,3.1826,2.9946,2.8301,2.5647,2.3721,2.2324,2.0416,1.8903,1.782,1.6291,1.508,1.4195,1.2142,1.1093,1.0933,1.0529,1.0443,1.0612,0.0,0.0,0.0,0.9135,0.8375,0.7748,0.7059,0.6541,0.6046,0.1892,0.0,-0.501,-1.0388,-1.4881,-1.8091,-1.8534,0.0,0.0,0.0,0.0,0.0,0.0,0.0,0.0,0.0,0.0,0.0,0.3672,0.2935,0.1829,-0.3266,-0.7389,-0.9485,-1.305,-1.4936,-1.3994,-1.2848,-1.3789,-1.7977,-2.2874,-2.6995,-2.9782,-3.1601,-3.4055,-3.7442,-3.5857,-3.4067,-3.3106,-3.0746,-2.8898,-2.8488,-3.1922,-3.6897,-4.2401,-4.6427,-5.1946,-6.0074,-6.5553,-6.6077,-6.1067,-5.6449,-5.2838,-5.2404,-5.5204,-6.0891,-6.8713,-7.7276,-8.4422,-8.8284,-8.954,-8.8364,-8.4089,-7.326,-5.9332,-4.3646,-2.8866,-1.5337,-0.4045,0.5655,1.3686,4.3747,4.3981,4.4868,4.5636,0.0,4.6507,4.6669,4.6776,4.6921,4.6124,4.4646,4.368,4.173,3.9051,3.7882,3.6242,3.4248,3.2115,3.0196,2.8415,2.5958,2.3988,2.2369,2.0565,1.9113,1.7984,1.6743,1.5656,1.4563,1.3119,1.2058,1.1538,1.1195,1.1152,1.1325,1.1673,1.1165,0.9819,0.8994,0.837,0.7871,0.6995,0.6131,0.5322,0.1667,0.0,0.0,0.0,0.0,0.0,0.0,0.0,0.0,-1.0903,0.0,-0.474,-0.1398,0.1236,0.2898,0.4455,0.5044,0.4425,0.2589,0.0801,-0.0824,-0.6171,-1.0547,-1.3133,-1.6819,-1.8924,-1.8677,-1.8107,-1.8658,-2.0985,-2.4238,-2.6072,-2.5312,-2.6968,-2.9115,-3.0658,-2.9939,-2.8588,-2.736,-2.7335,-2.7504,-2.8611,-3.4045,-4.1164,-4.8937,-5.2782,-5.7764,-6.6762,-6.9312,-6.8944,-6.4715,-5.8638,-5.3507,-5.1693,-5.4896,-6.1641,-6.9749,-7.8707,-8.6449,-9.0804,-9.2404,-9.133,-8.5357,-7.4112,-5.8844,-3.9791,-2.5201,-1.2303,0.0,0.9527,1.6341,4.3449,4.3568,4.4255,4.4688,4.4967,4.5377,4.5539,4.5524,4.6063,0.0,0.0,4.2749,4.1405,3.9922,3.8033,3.6242,3.451,3.2715,3.0754,2.8691,2.6614,2.4589,2.2632,2.1019,1.9503,1.8277,1.7444,1.6284,1.4948,1.4173,1.3219,1.213,1.1938,1.1882,1.1989,1.2141,1.1329,0.9646,0.8884,0.8342,0.8008,0.6836,0.5747,0.4715,0.1638,-0.1339,-0.4145,-0.8572,-1.213,-1.4528,-1.4996,-1.4559,-1.3215,-1.0477,-0.7223,-0.3535,-0.0666,0.1378,0.2466,0.4062,0.4633,0.389,0.0643,-0.216,-0.4159,-0.8734,-1.3147,-1.7179,-2.0308,-2.2421,-2.3363,-2.3221,-2.3176,-2.3688,-2.4565,-2.3794,-2.1029,-2.1473,-2.271,-2.3422,-2.315,-2.2623,-2.1796,-2.364,-2.6469,-2.9816,-3.6893,-4.7015,-5.7393,-6.2326,-6.6018,-7.316,-7.3952,-7.174,-6.7645,-6.1359,-5.4892,-5.1538,-5.5522,-6.2145,-7.0618,-7.9883,-8.7469,-9.2672,-9.4557,-9.2349,-8.641,-7.4564,-5.7223,-3.4202,-2.1186,-0.9777,0.3432,1.2644,1.8397,4.2867,4.3267,4.423,4.4823,4.5152,4.5875,4.6041,4.5704,4.5321,4.4316,4.2877,4.2172,4.0945,3.928,3.7948,3.6503,3.4907,3.3038,3.132,2.9694,2.7524,2.5553,2.3739,2.221,2.0552,1.8933,1.828,1.7463,1.6432,1.533,1.4564,1.409,1.3386,1.2468,1.1582,1.147,1.0909,0.9836,0.8755,0.7881,0.7347,0.5876,0.4651,0.3542,0.0416,-0.2792,-0.603,-1.0986,-1.5129,-1.8241,-1.848,-1.7709,-1.5885,-1.2429,-0.8437,-0.3909,0.0147,0.2695,0.3353,0.4164,0.361,0.1352,-0.1586,-0.4214,-0.6533,-1.0988,-1.5523,-1.9836,-2.2847,-2.4935,-2.553,-2.5424,-2.4791,-2.3603,-2.0503,-1.8297,-1.8191,-1.5903,-1.4887,-1.6509,-1.5398,-1.5266,-1.6809,-1.9583,-2.4253,-3.0974,-4.2349,-5.5308,-7.1728,-7.7021,-7.7278,-7.857,-7.7877,-7.4104,-6.8826,-6.2372,-5.8,-5.5742,-5.8084,-6.3099,-7.0864,-7.9996,-8.7853,-9.3391,-9.5135,-9.3282,-8.7609,-7.512,-5.6425,-3.3961,-1.9865,-0.7472,0.5528,1.4312,2.0061,4.2762,4.3097,4.3879,4.4237,4.4463,4.5299,4.5624,4.5385,4.4696,4.3888,4.294,4.1761,4.0594,3.9474,3.7715,3.6542,3.5758,3.4056,3.2392,3.0696,2.9023,2.686,2.4537,2.3245,2.167,1.9877,1.956,1.8678,1.7371,1.671,1.6086,1.5345,1.4482,1.3382,1.2145,1.18,1.1304,1.054,0.9086,0.8143,0.7605,0.5629,0.3544,0.1377,-0.2832,-0.6774,-1.0209,-1.4967,-1.8488,-2.0542,-2.0614,-1.974,-1.785,-1.4651,-1.0732,-0.6005,-0.2203,0.0798,0.2831,0.3173,0.236,0.0043,-0.3482,-0.7037,-1.0247,-1.3688,-1.7415,-2.1254,-2.4299,-2.6179,-2.6789,-2.6717,-2.4957,-2.0646,-1.8175,-1.5368,-1.1861,-1.102,-1.0095,-0.9043,-0.8162,-0.8749,-1.1534,-1.6612,-2.3532,-3.2895,-5.0318,-7.02,-8.5115,-8.8857,-8.8662,-8.5811,-8.2799,-7.8361,-7.237,-6.6504,-6.2761,-6.1566,-6.2568,-6.5478,-7.1122,-7.9491,-8.7365,-9.2759,-9.4543,-9.2185,-8.6217,-7.3197,-5.5685,-3.734,-1.9605,-0.6336,0.5966,1.5234,2.0076,4.2633,4.2971,4.3443,4.3889,4.4415,4.5107,4.5339,4.529,4.4258,4.3546,4.2888,4.1227,4.0157,3.9465,3.7685,3.6648,3.6221,3.5107,3.346,3.1579,3.0346,2.8215,2.5461,2.4295,2.2747,2.0913,2.0573,1.96,1.8127,1.7831,1.7071,1.5802,1.4961,1.3971,1.2719,1.2113,1.1686,1.1335,0.9967,0.888,0.8085,0.5303,0.2385,-0.0634,-0.5779,-1.0324,-1.4002,-1.83,-2.1179,-2.2264,-2.2388,-2.159,-1.987,-1.6973,-1.318,-0.8613,-0.5217,-0.1604,0.2167,0.2166,0.0864,-0.1575,-0.5658,-0.9723,-1.333,-1.6522,-1.9484,-2.2447,-2.4993,-2.6725,-2.7255,-2.6932,-2.421,-1.8154,-1.6704,-1.3363,-0.6798,-0.6328,-0.5841,-0.278,-0.2305,-0.376,-0.795,-1.4319,-2.5136,-4.1609,-6.3449,-8.232,-9.209,-9.7393,-9.7538,-9.3008,-8.8069,-8.2877,-7.7123,-7.1303,-6.7698,-6.6881,-6.7156,-6.9307,-7.3365,-8.0561,-8.7178,-9.1908,-9.3002,-9.0287,-8.3051,-7.0716,-5.5044,-3.7647,-2.0533,-0.4221,0.9559,1.699,2.0818,4.2332,4.2753,4.3243,4.4526,4.5939,4.6088,4.6147,4.5925,4.427,4.3014,4.223,4.0588,3.942,3.8752,3.7972,3.7077,3.6256,3.5633,3.4214,3.2205,3.1221,2.9259,2.6561,2.5356,2.3691,2.1624,2.0902,1.9908,1.8473,1.8063,1.6906,1.5117,1.4278,1.3616,1.2895,1.1808,1.1617,1.2416,1.1545,1.0257,0.8414,0.4388,0.1186,-0.1023,-0.6779,-1.1713,-1.5709,-1.9392,-2.2222,-2.3865,-2.4059,-2.3576,-2.2262,-1.9201,-1.5363,-1.1024,-0.7889,-0.3509,0.2507,0.1776,-0.089,-0.4515,-0.8591,-1.1936,-1.4647,-1.9083,-2.2373,-2.3745,-2.5244,-2.6525,-2.7221,-2.5904,-2.28,-1.8162,-1.5312,-1.1949,-0.6198,-0.2436,-0.011,0.0631,0.059,-0.0676,-0.523,-1.3613,-2.9337,-5.386,-7.2202,-8.7416,-9.6175,-10.0813,-10.2332,-9.9016,-9.3799,-8.7042,-8.1414,-7.5774,-7.2212,-7.0849,-7.1384,-7.3818,-7.7966,-8.3154,-8.9078,-9.145,-9.166,-8.8916,-8.043,-6.8527,-5.3383,-3.6658,-1.8922,-0.1014,1.4465,2.1306,2.1923,4.2008,4.2005,4.2604,4.3464,4.4557,4.4977,4.509,4.4784,4.3796,4.2586,4.1253,3.9722,3.9002,3.8905,3.8151,3.7435,3.6748,3.6207,3.4885,3.2916,3.1725,2.9827,2.7442,2.5746,2.4044,2.2331,2.148,2.0355,1.9007,1.813,1.7145,1.6,1.5305,1.4284,1.2964,1.2664,1.249,1.2353,1.1757,0.9564,0.5777,0.2985,-0.0639,-0.5304,-1.0742,-1.4994,-1.8012,-2.1742,-2.4244,-2.5086,-2.5583,-2.5334,-2.4303,-2.1269,-1.7515,-1.2928,-0.7052,-0.2069,0.1846,0.0,-0.388,-0.9771,-1.1995,-1.4242,-1.6893,-2.0676,-2.3098,-2.3579,-2.4797,-2.5841,-2.5792,-2.2778,-1.9399,-1.6531,-1.2088,-0.702,-0.2185,0.0309,0.1879,0.2125,0.2141,0.0869,-0.4882,-1.9316,-3.9113,-6.1226,-7.7856,-9.0528,-9.8882,-10.2814,-10.3192,-10.0867,-9.5891,-9.0688,-8.5289,-8.1001,-7.7705,-7.6462,-7.6805,-7.8839,-8.1634,-8.5619,-8.9837,-9.2106,-9.1118,-8.746,-8.0537,-6.7013,-5.2387,-3.4671,-1.2214,0.7596,1.9598,2.2845,2.3365,4.1645,4.1535,4.2237,4.2673,4.3001,4.3912,4.3952,4.3427,4.2891,4.1886,4.0567,3.9075,3.8178,3.7757,3.7327,3.6933,3.6626,3.5937,3.4685,3.3085,3.1807,2.9889,2.7569,2.5881,2.4227,2.2699,2.1851,2.0794,1.9385,1.8346,1.7462,1.6728,1.6251,1.509,1.3482,1.3688,1.3705,1.316,1.1405,0.7744,0.2949,-0.0582,-0.4543,-0.9245,-1.3854,-1.7526,-2.0164,-2.357,-2.5602,-2.6022,-2.679,-2.6901,-2.599,-2.3353,-1.9074,-1.2858,-0.6157,-0.1297,0.085,-0.1992,-0.6886,-1.3395,-1.4845,-1.6147,-1.8695,-2.1461,-2.2111,-2.0291,-2.0997,-2.1317,-2.2415,-2.0005,-1.6915,-1.3508,-0.9623,-0.6123,0.04,0.1989,0.1863,0.2023,0.1278,-0.0512,-0.7351,-2.4937,-4.5472,-6.3063,-7.8681,-9.1338,-9.8191,-10.153,-10.2146,-9.984,-9.6237,-9.2421,-8.8352,-8.4879,-8.259,-8.1637,-8.1535,-8.2956,-8.4834,-8.8085,-9.0377,-9.2101,-9.0405,-8.6107,-7.8884,-6.637,-4.8454,-2.9098,-0.7513,1.2208,2.109,2.3612,2.5009,4.1243,4.148,4.2476,4.2553,4.2252,4.3247,4.3333,4.2161,4.1526,4.0863,4.006,3.8713,3.677,3.473,3.4942,3.522,3.5327,3.441,3.3366,3.23,3.1206,2.9293,2.669,2.5545,2.4113,2.2441,2.1837,2.0905,1.9641,1.8663,1.773,1.6811,1.6639,1.588,1.4766,1.4738,1.5171,1.4637,0.9788,0.4715,-0.0121,-0.7312,-1.1612,-1.2835,-1.5145,-1.8573,-2.2,-2.4361,-2.5935,-2.6748,-2.7735,-2.8047,-2.7627,-2.5316,-1.9546,-1.0661,-0.5758,-0.2192,-0.0305,-0.3828,-0.9296,-1.4684,-1.6432,-1.7673,-1.9434,-2.1612,-2.0228,-1.4219,-1.3208,-1.387,-1.573,-1.6258,-1.4538,-0.8504,-1.2155,-0.8748,0.1316,0.1108,0.025,0.0117,-0.0764,-0.5277,-1.3875,-2.8704,-4.5602,-6.2252,-7.726,-8.8276,-9.4483,-9.8014,-9.8086,-9.6447,-9.3838,-9.1388,-8.9844,-8.7361,-8.5583,-8.4886,-8.5496,-8.7013,-8.8423,-9.0113,-9.1371,-9.1537,-8.9513,-8.4782,-7.756,-6.29,-4.2547,-2.3153,-0.4176,1.2138,2.1317,2.4575,2.6334,4.033,4.0287,4.0802,4.0544,3.9918,4.0246,3.9817,3.8793,3.8581,3.7817,3.6861,3.642,3.529,3.3549,3.2685,3.3063,3.4163,3.3632,3.2713,3.1443,3.0157,2.8547,2.6792,2.5031,2.3641,2.2541,2.1544,2.0165,1.8407,1.7491,1.7636,1.818,1.6856,1.6591,1.7449,1.6343,1.4266,1.1156,0.6766,0.0772,-0.7086,-1.578,-2.0413,-2.0592,-2.0586,-2.1832,-2.4374,-2.5844,-2.7437,-2.925,-2.9701,-3.0039,-2.9836,-2.5405,-1.9445,-1.2609,-0.7979,-0.4307,-0.2132,-0.475,-0.9452,-1.5056,-1.7281,-1.9287,-2.1262,-2.1592,-1.843,-1.1899,-1.0388,-0.9384,-0.5118,-0.5376,-0.6812,-0.8012,-0.5144,-0.2796,-0.0026,0.0431,0.0282,0.0626,-0.1066,-0.7464,-1.9482,-3.1171,-4.4346,-6.05,-7.3793,-8.3169,-8.9567,-9.2543,-9.2904,-9.2097,-9.0428,-8.9346,-9.0159,-8.872,-8.7638,-8.8386,-8.9074,-9.0419,-9.1787,-9.1978,-9.3144,-9.1509,-8.8984,-8.3309,-7.5476,-5.7495,-3.7183,-1.894,0.0,1.1967,2.1456,2.4833,2.6899,3.8503,3.8505,3.8443,3.7923,3.7071,3.6936,3.6331,3.5459,3.5491,3.4949,3.423,3.4427,3.3644,3.2321,3.1527,3.1574,3.2303,3.201,3.1348,3.0297,2.889,2.747,2.5925,2.4355,2.316,2.2051,2.0448,1.8359,1.5871,1.4553,1.5616,1.8086,1.3503,1.1293,1.2187,1.0727,0.796,0.4436,0.0196,-0.5852,-1.3004,-2.1304,-2.6133,-2.6339,-2.5269,-2.5236,-2.6826,-2.8353,-2.974,-3.1038,-3.148,-3.1574,-3.0948,-2.5735,-2.0206,-1.5367,-1.0654,-0.6324,-0.3493,-0.586,-1.0668,-1.671,-1.8718,-2.0833,-2.3169,-2.1416,-1.5961,-0.9866,-0.634,-0.3443,0.1887,0.5665,0.4217,-0.2502,0.0112,0.2407,0.0,0.0,0.0,0.1272,-0.0221,-0.8394,-2.1099,-2.991,-4.155,-5.628,-6.781,-7.6815,-8.2556,-8.551,-8.6635,-8.6882,-8.6393,-8.6781,-8.7905,-8.7831,-8.8787,-8.9695,-9.1399,-9.3003,-9.3675,-9.3759,-9.2982,-9.1078,-8.6863,-8.0976,-6.8949,-5.1275,-3.3628,-1.5744,-0.1426,1.1083,1.8678,2.54,2.7142,3.5719,3.5992,3.5614,3.4868,3.4079,3.3621,3.3199,3.264,3.2385,3.2285,3.2216,3.2707,3.1789,3.0691,3.1244,3.1212,3.0117,2.9606,2.9231,2.882,2.7572,2.5987,2.4351,2.3755,2.2628,2.1135,1.8474,1.529,1.1859,0.9771,1.0701,1.2724,0.5209,-0.0444,-0.2769,-0.2386,-0.2495,-0.4533,-0.9351,-1.3662,-1.6054,-2.3486,-2.8124,-2.9055,-2.8465,-2.859,-2.9635,-3.1936,-3.2851,-3.2421,-3.3004,-3.2602,-3.094,-2.6803,-2.2375,-1.8223,-1.3532,-0.8387,-0.4119,-0.7763,-1.3746,-1.9356,-2.1197,-2.2233,-2.3111,-2.0327,-1.4815,-0.7653,-0.2506,0.1787,0.5224,1.2037,1.3985,0.7435,0.0,0.0,0.0,0.0,0.0524,0.1489,0.0511,-0.6008,-1.7554,-2.6076,-3.5568,-4.8041,-5.8862,-6.7486,-7.3412,-7.6822,-7.9344,-8.0752,-8.1737,-8.2895,-8.4903,-8.6945,-8.8721,-9.0605,-9.2794,-9.4623,-9.427,-9.4239,-9.2929,-9.0752,-8.4703,-7.8475,-6.6079,-4.8957,-3.4057,-1.7483,-0.3605,0.9745,1.7843,2.4165,2.6945,3.2058,3.3096,3.2698,3.1908,3.088,3.0611,2.9831,2.8813,2.9065,2.8905,2.8691,2.9774,2.993,2.931,2.9198,2.9204,2.9296,2.8283,2.7611,2.7299,2.632,2.524,2.4216,2.3502,2.182,1.8983,1.5694,1.1339,0.6462,0.2772,0.2474,0.2834,-0.2083,-1.0669,-1.8795,-1.1506,-0.7537,-1.0753,-1.4519,-1.8527,-2.2675,-2.7166,-2.9995,-3.0961,-3.1421,-3.2361,-3.3829,-3.4744,-3.5038,-3.4765,-3.5032,-3.4559,-3.2692,-2.9367,-2.5163,-2.0799,-1.6883,-1.2282,-0.8242,-1.1776,-1.7273,-2.2089,-2.3895,-2.3902,-2.3184,-1.9405,-1.3587,-0.6536,-0.1853,0.222,0.7554,1.0234,1.0465,0.6696,0.0,0.0,0.0,0.0,0.0,0.1467,0.0861,-0.4019,-1.1974,-1.9752,-2.9052,-3.9754,-4.9766,-5.7854,-6.3743,-6.8346,-7.1745,-7.3989,-7.6059,-7.9191,-8.1766,-8.4978,-8.7957,-9.0787,-9.3513,-9.5069,-9.5062,-9.4358,-9.2998,-8.8514,-8.2306,-7.3334,-6.0976,-4.7641,-3.2951,-1.8635,-0.397,0.7527,1.753,2.2958,2.6096,2.8408,2.9738,2.9351,2.8587,2.776,2.7288,2.668,2.6016,2.6316,2.6214,2.6095,2.693,2.7641,2.7596,2.6864,2.714,2.8001,2.6824,2.6197,2.6017,2.5582,2.4716,2.3868,2.317,2.0381,1.6292,1.2503,0.6558,-0.11,-0.5158,-0.7062,-0.7542,-1.2669,-2.0416,-2.9311,-2.1997,-1.8049,-1.9993,-2.2144,-2.4867,-2.8107,-3.0979,-3.2658,-3.3275,-3.3865,-3.5236,-3.7099,-3.7093,-3.6784,-3.6484,-3.6152,-3.543,-3.4257,-3.1038,-2.7486,-2.3915,-2.0308,-1.6373,-1.2747,-1.5936,-2.0815,-2.5031,-2.591,-2.4886,-2.2647,-1.8428,-1.2483,-0.7727,-0.2311,0.2852,0.7619,0.8868,0.7234,0.4157,0.165,0.0,0.0,0.0,0.0,0.127,0.1267,-0.2128,-0.778,-1.4067,-2.2199,-3.1308,-3.9931,-4.805,-5.4183,-5.9643,-6.3661,-6.8011,-7.1741,-7.531,-7.9021,-8.287,-8.659,-9.0315,-9.4014,-9.5107,-9.5575,-9.4761,-9.3618,-8.5644,-7.8975,-7.0474,-5.8647,-4.6382,-3.2595,-1.8416,-0.458,0.637,1.6456,2.2337,2.5629,2.4827,2.6139,2.5574,2.5229,2.4826,2.4063,2.3846,2.3966,2.4169,2.4249,2.4294,2.449,2.518,2.571,2.509,2.541,2.5964,2.5558,2.503,2.4922,2.4828,2.4455,2.3552,2.2768,1.8983,1.303,0.8553,0.0696,-0.9494,-1.4204,-1.6877,-1.8217,-2.4553,-3.0892,-3.3692,-3.2742,-3.0233,-2.9411,-3.0902,-3.1559,-3.1932,-3.4157,-3.5671,-3.5842,-3.596,-3.7017,-3.8882,-3.8778,-3.8089,-3.7305,-3.6325,-3.5616,-3.4635,-3.1995,-2.9295,-2.6889,-2.3902,-2.065,-1.8462,-1.9501,-2.3182,-2.7213,-2.6312,-2.4746,-2.1909,-1.6657,-1.2026,-0.8861,-0.2785,0.2765,0.5991,0.694,0.5072,0.0,0.0,0.0,0.0,0.0,0.0,0.1241,0.1542,0.0481,-0.4274,-0.9281,-1.5376,-2.2148,-3.0084,-3.7686,-4.4891,-5.111,-5.6827,-6.1901,-6.668,-7.185,-7.5857,-8.1438,-8.5482,-8.9948,-9.3502,-9.4937,-9.4893,-9.3751,-9.0682,-8.2807,-7.5219,-6.6475,-5.6509,-4.431,-3.1532,-1.7914,-0.5218,0.5828,1.4083,2.0244,2.3887,2.1692,2.2398,2.3008,2.3075,2.2758,2.2725,2.2093,2.1389,2.202,2.211,2.1907,2.2489,2.3408,2.4188,2.4286,2.4628,2.4902,2.4747,2.4432,2.4248,2.4356,2.4441,2.3874,2.2456,1.7287,0.9391,0.3014,-0.5945,-1.7302,-2.2501,-2.5553,-2.713,-3.1837,-3.5797,-3.7755,-3.6687,-3.5316,-3.4036,-3.425,-3.4908,-3.5519,-3.615,-3.7007,-3.7747,-3.8058,-3.8696,-3.9719,-3.9603,-3.8773,-3.7382,-3.6403,-3.6024,-3.584,-3.3468,-3.0864,-2.8249,-2.609,-2.4016,-2.2331,-2.2494,-2.4297,-2.5863,-2.4831,-2.2829,-1.9445,-1.4477,-1.0325,-0.6973,-0.2261,0.1342,0.3156,0.3026,0.1452,0.0,0.0,0.0,0.0,0.0,0.0149,0.0497,0.1701,0.1277,-0.069,-0.4515,-0.9563,-1.4999,-2.1542,-2.896,-3.6522,-4.3535,-4.9927,-5.6522,-6.2125,-6.7936,-7.3432,-7.9409,-8.4516,-8.9424,-9.24,-9.4475,-9.3258,-9.1108,-8.6136,-7.9215,-7.2279,-6.4107,-5.3582,-4.2124,-2.9317,-1.7062,-0.5865,0.5034,1.1962,1.8329,2.0895,1.893,1.9922,2.0508,2.0774,2.0917,2.1119,2.0713,2.0146,2.0741,2.0697,2.0282,2.1075,2.1803,2.2264,2.2498,2.3084,2.3638,2.3466,2.3491,2.3879,2.4273,2.4646,2.4271,2.2191,1.5684,0.6246,-0.1391,-1.171,-2.2583,-2.9134,-3.243,-3.4396,-3.7219,-3.9143,-3.984,-3.9064,-3.7939,-3.6886,-3.6729,-3.6977,-3.75,-3.7999,-3.838,-3.9068,-3.9558,-3.9961,-3.9702,-3.9351,-3.8666,-3.7797,-3.6989,-3.6289,-3.5693,-3.4775,-3.2386,-2.907,-2.6459,-2.4686,-2.452,-2.3967,-2.2759,-2.192,-2.1306,-1.9563,-1.6207,-1.2368,-0.9115,-0.5894,-0.1943,0.042,0.1098,0.0543,0.0346,0.0,0.0787,0.0563,0.0109,0.0,0.0,0.0828,0.1775,0.2512,0.1999,-0.1336,-0.4753,-0.9053,-1.4546,-2.1888,-2.9243,-3.6261,-4.3652,-5.088,-5.8727,-6.52,-7.2132,-7.8322,-8.3974,-8.8747,-8.9712,-9.211,-9.0048,-8.7544,-8.2411,-7.6143,-6.9206,-6.1167,-5.0868,-4.0508,-2.9432,-1.7558,-0.654,0.2688,0.9763,1.5464,1.7853,1.6749,1.8213,1.8153,1.8557,1.933,1.9487,1.9372,1.9323,1.9939,1.9674,1.8976,1.9806,2.0248,2.0294,2.0647,2.1138,2.2415,2.2198,2.2482,2.315,2.394,2.4617,2.4605,2.1957,1.4404,0.4471,-0.4691,-1.5643,-2.6119,-3.3502,-3.7325,-3.9013,-4.0577,-4.1156,-4.121,-4.0571,-3.9967,-3.93,-3.8894,-3.8743,-3.894,-3.9419,-3.9719,-3.9882,-4.043,-4.0415,-3.9786,-3.9169,-3.8649,-3.8355,-3.7591,-3.6189,-3.482,-3.5309,-3.3201,-2.8743,-2.5032,-2.3246,-2.4879,-2.3303,-2.0111,-1.6905,-1.6876,-1.6047,-1.2635,-1.0029,-0.7683,-0.4705,-0.1209,0.042,0.0,0.0,0.0765,0.167,0.2076,0.147,0.0609,0.0183,0.0486,0.145,0.2227,0.2415,0.1846,0.0651,-0.1336,-0.5012,-1.014,-1.6436,-2.3961,-3.1277,-3.8944,-4.6675,-5.4787,-6.3368,-7.0243,-7.7366,-8.2879,-8.767,-8.7133,-8.7529,-8.5415,-8.2552,-7.8527,-7.2828,-6.5475,-5.7853,-4.9075,-3.8833,-2.8482,-1.8998,-0.8444,0.0,0.7405,1.1719,1.4958,1.5611,1.7188,1.7469,1.8079,1.8664,1.8628,1.8281,1.7642,1.7978,1.7851,1.7284,1.7809,1.8486,1.9079,1.9676,2.0617,2.1553,2.1596,2.1798,2.1995,2.2867,2.3486,2.3744,2.2246,1.4417,0.3268,-0.5528,-1.6739,-2.8487,-3.5387,-3.9476,-4.1061,-4.2145,-4.2733,-4.2075,-4.2697,-4.2662,-4.1556,-4.1167,-4.0988,-4.0754,-4.0615,-4.0649,-4.0648,-4.093,-4.09,-4.0711,-4.0485,-3.9707,-3.8268,-3.685,-3.564,-3.4611,-3.4054,-3.193,-2.7522,-2.1979,-2.009,-2.2625,-2.1072,-1.7063,-1.1672,-1.1799,-1.1369,-0.8394,-0.67,-0.4671,-0.231,-0.0102,0.0739,0.0,0.0,0.0,0.2488,0.3122,0.2853,0.2135,0.1337,0.1187,0.1671,0.2324,0.2676,0.2475,0.1884,0.0064,-0.218,-0.6501,-1.1881,-1.9052,-2.665,-3.5048,-4.3449,-5.3508,-6.2338,-7.019,-7.6909,-8.252,-8.4951,-8.4046,-8.1441,-7.9382,-7.6546,-7.2279,-6.7351,-6.1888,-5.3987,-4.6471,-3.8521,-2.8837,-1.9483,-1.0891,-0.3484,0.3347,0.7802,1.191,1.521,1.6551,1.6768,1.7346,1.8134,1.8133,1.7659,1.6994,1.7239,1.6854,1.6246,1.6796,1.7529,1.8043,1.8803,1.9687,2.077,2.1325,2.1584,2.1878,2.2422,2.2666,2.2772,2.1671,1.5522,0.2372,-0.6243,-1.729,-2.8326,-3.5732,-3.9586,-4.1361,-4.2814,-4.3468,-4.3272,-4.3881,-4.3602,-4.301,-4.2547,-4.2391,-4.2535,-4.1789,-4.1177,-4.1058,-4.1013,-4.1017,-4.0935,-4.0402,-3.9723,-3.8516,-3.7012,-3.5406,-3.4224,-3.3311,-3.0905,-2.6249,-1.9767,-1.7367,-1.8999,-1.8017,-1.3867,-0.7027,-0.7747,-0.6937,-0.5287,-0.3603,-0.2135,-0.0528,0.0528,0.0954,0.0592,0.0,0.12,0.2613,0.3695,0.3677,0.3025,0.235,0.2135,0.2502,0.2918,0.2919,0.2687,0.1973,0.0823,-0.1586,-0.4306,-0.9701,-1.6426,-2.4193,-3.2519,-4.1503,-5.2309,-6.1768,-7.0127,-7.6835,-8.2169,-8.2547,-8.0101,-7.6095,-7.2094,-6.9127,-6.5884,-6.1554,-5.7185,-5.1271,-4.3787,-3.6192,-2.9566,-2.1509,-1.3522,-0.6491,-0.0718,0.4119,0.7697,1.5351,1.6196,1.615,1.6743,1.7468,1.7469,1.6936,1.6325,1.6727,1.6211,1.5609,1.6335,1.7009,1.7393,1.8217,1.9243,2.0376,2.1191,2.1744,2.1895,2.2096,2.2221,2.2198,2.1232,1.6054,0.3029,-0.5249,-1.6037,-2.7061,-3.4734,-3.913,-4.1002,-4.2512,-4.3379,-4.398,-4.4226,-4.4054,-4.399,-4.3693,-4.3428,-4.3628,-4.2761,-4.1989,-4.1388,-4.1013,-4.0978,-4.0779,-4.0234,-3.9483,-3.9171,-3.76,-3.5775,-3.4182,-3.3118,-3.0433,-2.5334,-1.7988,-1.5435,-1.5852,-1.4246,-1.007,-0.3652,-0.4187,-0.413,-0.2524,-0.1383,-0.0252,0.0578,0.1346,0.1453,0.1417,0.1019,0.1278,0.2492,0.3923,0.4178,0.3654,0.3346,0.3352,0.3241,0.294,0.2692,0.2081,0.134,0.0229,-0.1155,-0.392,-0.8002,-1.4753,-2.2481,-3.1158,-4.1244,-5.2449,-6.48,-7.3631,-7.5406,-8.1076,-7.83,-7.5666,-7.038,-6.515,-6.1733,-5.8987,-5.7207,-5.2974,-4.733,-4.2201,-3.6463,-2.9554,-2.2566,-1.642,-1.0238,-0.4778,0.0228,0.3514,1.5416,1.5367,1.5766,1.6231,1.6701,1.6289,1.5827,1.5337,1.5486,1.5028,1.4661,1.5664,1.6443,1.7063,1.8745,2.0154,2.1218,2.1728,2.1868,2.1789,2.1789,2.1657,2.2198,2.1281,1.5241,0.6105,-0.3042,-1.3906,-2.5934,-3.4071,-3.8391,-4.091,-4.2326,-4.3066,-4.3751,-4.4382,-4.4928,-4.4946,-4.5011,-4.5051,-4.4461,-4.3634,-4.2742,-4.189,-4.1289,-4.0911,-4.0809,-4.05,-3.9877,-3.8953,-3.8365,-3.6648,-3.4562,-3.3859,-3.0077,-2.3809,-1.6766,-1.334,-1.3736,-1.0024,-0.6135,-0.287,-0.1903,-0.1402,-0.0446,0.0352,0.1125,0.173,0.2073,0.2218,0.2797,0.224,0.2554,0.3593,0.4434,0.4964,0.4423,0.4139,0.3705,0.3175,0.272,0.2027,0.1086,0.0071,-0.1072,-0.2541,-0.4691,-0.8616,-1.4191,-2.2393,-3.1132,-4.1861,-5.3321,-6.6047,-7.7823,-7.7123,-7.8101,-7.3004,-6.9188,-6.3884,-5.9042,-5.4697,-5.1918,-5.0825,-4.8721,-4.4676,-3.97,-3.5602,-3.0581,-2.4391,-1.9038,-1.3967,-0.8822,-0.3644,-0.0659,1.5322,1.5084,1.5853,1.6196,1.6188,1.5972,1.546,1.491,1.5046,1.5122,1.536,1.6149,1.6951,1.7787,1.9219,2.0856,2.1855,2.2036,2.2107,2.2003,2.1629,2.1479,2.1871,2.0673,1.4068,0.5783,-0.2408,-1.2131,-2.4751,-3.2252,-3.7153,-4.013,-4.1789,-4.2935,-4.3944,-4.5035,-4.5625,-4.5772,-4.6099,-4.6194,-4.5519,-4.4364,-4.3023,-4.2266,-4.1444,-4.0877,-4.0637,-4.05,-3.9998,-3.9039,-3.7802,-3.6066,-3.4119,-3.1459,-2.8493,-2.2929,-1.6362,-1.1991,-1.1411,-0.7564,-0.4335,-0.2135,-0.0627,0.0324,0.0818,0.1371,0.2027,0.2488,0.2835,0.2941,0.3173,0.3203,0.3434,0.3741,0.4745,0.5185,0.4909,0.4759,0.3929,0.2843,0.2034,0.1046,-0.0407,-0.1491,-0.2581,-0.4097,-0.5771,-0.9579,-1.4192,-2.2348,-3.1158,-4.4582,-5.5928,-6.585,-7.5213,-7.4079,-7.2349,-6.774,-6.2898,-5.7666,-5.3783,-4.9799,-4.7102,-4.5321,-4.2867,-4.1387,-3.8728,-3.4771,-3.0393,-2.6416,-2.1427,-1.6591,-1.211,-0.7974,-0.4843,1.4993,1.4869,1.5951,1.609,1.5664,1.5833,1.5392,1.4816,1.5382,1.5878,1.6324,1.7378,1.8149,1.8918,2.008,2.1469,2.2611,2.2337,2.2205,2.2247,2.1649,2.1334,2.1097,1.8909,1.438,0.613,-0.1839,-1.141,-2.2533,-3.0713,-3.5489,-3.8427,-4.0759,-4.2555,-4.3657,-4.4462,-4.5576,-4.6212,-4.649,-4.6494,-4.601,-4.4574,-4.3169,-4.2627,-4.1717,-4.0994,-4.05,-4.0202,-3.983,-3.8852,-3.7403,-3.5346,-3.2976,-2.9321,-2.5663,-2.2002,-1.6104,-1.2144,-0.9307,-0.6743,-0.3816,-0.1539,-0.0117,0.0879,0.1699,0.2129,0.2615,0.2983,0.3163,0.3334,0.3441,0.381,0.3953,0.4153,0.4858,0.5486,0.5159,0.4798,0.4124,0.2944,0.1607,0.0132,-0.1348,-0.2989,-0.4025,-0.4946,-0.6628,-1.0055,-1.5101,-2.2521,-3.2664,-4.7188,-5.8767,-6.6625,-7.0897,-6.8503,-6.5683,-6.1172,-5.6495,-5.168,-4.8516,-4.5608,-4.3608,-4.2091,-4.0331,-3.8669,-3.6452,-3.4403,-3.0745,-2.6841,-2.3472,-1.923,-1.4487,-1.1274,-0.8472,1.3908,1.4859,1.5322,1.527,1.4915,1.5577,1.5482,1.5005,1.631,1.6931,1.7326,1.8995,1.9685,2.0058,2.1206,2.2297,2.266,2.2426,2.2194,2.2345,2.1583,2.1295,2.1349,1.9458,1.4515,0.6993,-0.0698,-1.0811,-2.0709,-2.9205,-3.4503,-3.6814,-3.9242,-4.0968,-4.1917,-4.3344,-4.4222,-4.5007,-4.5328,-4.5538,-4.5442,-4.4639,-4.4035,-4.356,-4.2477,-4.1209,-4.0354,-3.9967,-3.9561,-3.8785,-3.7733,-3.5219,-3.1758,-2.834,-2.4063,-1.9624,-1.4928,-1.091,-0.8606,-0.6007,-0.3444,-0.1204,0.0273,0.1175,0.2136,0.2936,0.3348,0.3395,0.3452,0.3522,0.3752,0.3999,0.4388,0.4829,0.531,0.5508,0.5285,0.5161,0.4431,0.3258,0.1997,-0.0286,-0.2175,-0.3941,-0.5537,-0.6371,-0.7895,-1.1272,-1.7166,-2.541,-3.5275,-5.008,-5.7709,-6.5064,-6.4785,-6.2578,-5.8626,-5.4099,-5.0309,-4.6085,-4.4342,-4.2516,-4.1657,-4.0254,-3.8417,-3.656,-3.4786,-3.2924,-3.0506,-2.7622,-2.3959,-2.0566,-1.6941,-1.414,-1.174,1.3335,1.3984,1.4866,1.4838,1.4534,1.5519,1.5803,1.5979,1.7243,1.8373,1.9161,2.0184,2.1079,2.1848,2.3148,2.3681,2.3616,2.2723,2.2352,2.2103,2.1264,2.0691,2.0377,1.8709,1.4526,0.8293,0.0957,-0.6564,-1.6807,-2.6026,-3.2856,-3.5849,-3.8084,-3.9834,-4.0288,-4.2251,-4.3439,-4.4199,-4.4748,-4.5322,-4.536,-4.4511,-4.3635,-4.371,-4.2127,-4.0949,-4.0271,-4.0154,-3.9442,-3.8382,-3.6826,-3.4206,-3.0493,-2.6545,-2.2115,-1.8669,-1.4091,-1.0659,-0.8416,-0.5544,-0.2985,-0.0889,0.0637,0.1893,0.2893,0.3613,0.3981,0.3785,0.4152,0.4256,0.4228,0.4497,0.4894,0.533,0.5651,0.5711,0.56,0.5408,0.4861,0.365,0.2375,0.0623,-0.1319,-0.3158,-0.4564,-0.5847,-0.7985,-1.1704,-2.0147,-3.1027,-4.1749,-5.3924,-5.8535,-6.1798,-5.8809,-5.5455,-5.1208,-4.6956,-4.4826,-4.1403,-4.0804,-3.9621,-3.9398,-3.8553,-3.6978,-3.5226,-3.36,-3.1393,-2.918,-2.6961,-2.4495,-2.1406,-1.8418,-1.6699,-1.4122,1.3275,1.3842,1.4793,1.4861,1.4698,1.5992,1.6755,1.7173,1.8674,2.0058,2.1147,2.1839,2.2808,2.3672,2.4305,2.4219,2.3879,2.2826,2.2405,2.1716,2.0855,2.0167,1.9671,1.8142,1.4879,0.9723,0.3507,-0.3361,-1.0889,-1.9441,-2.7237,-3.3607,-3.5538,-3.7178,-3.8705,-4.0065,-4.1359,-4.2903,-4.4163,-4.5134,-4.5458,-4.4229,-4.3622,-4.2978,-4.2022,-4.0864,-4.0555,-4.0541,-3.9904,-3.8217,-3.6466,-3.3818,-2.9685,-2.5251,-2.0853,-1.7068,-1.2629,-0.9379,-0.7117,-0.4657,-0.2361,-0.0506,0.1063,0.2484,0.3262,0.4094,0.4417,0.4031,0.4435,0.4664,0.4774,0.4885,0.5195,0.5499,0.5814,0.5888,0.5985,0.5947,0.5824,0.5074,0.4007,0.2768,0.0772,-0.1595,-0.3454,-0.5025,-0.806,-1.2158,-2.2236,-3.4159,-4.2567,-5.2429,-5.4343,-5.5498,-5.2056,-4.8146,-4.3762,-4.0797,-3.8579,-3.7911,-3.7873,-3.8076,-3.8391,-3.7028,-3.5524,-3.3549,-3.1741,-2.9724,-2.793,-2.5857,-2.3737,-2.2157,-2.0188,-1.8437,-1.6314,1.4019,1.5494,1.5451,1.5555,1.5804,1.7415,1.8337,1.8878,2.0731,2.1957,2.2785,2.3968,2.4517,2.4691,2.4311,2.3952,2.3237,2.2086,2.1826,2.1378,2.0611,2.0093,1.9508,1.792,1.55,1.1936,0.6693,0.1144,-0.4538,-1.038,-1.8957,-2.6505,-3.0007,-3.2496,-3.454,-3.6385,-3.9237,-4.1309,-4.3316,-4.4643,-4.4987,-4.4479,-4.3981,-4.3506,-4.2911,-4.2383,-4.2172,-4.153,-4.0446,-3.8761,-3.6894,-3.3543,-2.9021,-2.4477,-2.0112,-1.5403,-1.1078,-0.7757,-0.5117,-0.3469,-0.1671,0.0234,0.1769,0.2796,0.3399,0.3591,0.3854,0.4248,0.4578,0.4716,0.4853,0.509,0.537,0.5694,0.5981,0.6245,0.6478,0.6766,0.6649,0.6365,0.5634,0.4631,0.2545,0.0116,-0.2827,-0.4556,-1.0657,-1.4828,-2.3903,-3.4627,-4.0283,-4.6709,-4.8288,-4.8053,-4.5075,-4.1246,-3.7778,-3.6325,-3.4928,-3.5609,-3.64,-3.6577,-3.7339,-3.5624,-3.4111,-3.1886,-2.9551,-2.7395,-2.5491,-2.4587,-2.3228,-2.1488,-2.0282,-1.8728,-1.7091,1.3739,1.552,1.6359,1.667,1.6791,1.8297,1.9294,2.0104,2.1413,2.2486,2.3312,2.4832,2.516,2.4557,2.4361,2.3891,2.3158,2.2372,2.1721,2.1076,2.0462,1.998,1.9466,1.8662,1.7099,1.4301,1.0321,0.6584,0.2096,-0.2662,-0.6946,-1.3852,-2.1579,-2.6744,-2.9387,-3.3193,-3.7148,-4.0336,-4.2442,-4.3731,-4.508,-4.4536,-4.4041,-4.3789,-4.2699,-4.2233,-4.1958,-4.1804,-4.0739,-3.9287,-3.7256,-3.3323,-2.8664,-2.4072,-1.9007,-1.4066,-0.9577,-0.5972,-0.3303,-0.1887,-0.0509,0.1402,0.2456,0.2924,0.3375,0.3872,0.4069,0.435,0.4687,0.4968,0.4982,0.5246,0.5557,0.5841,0.6179,0.6497,0.7139,0.7601,0.8203,0.827,0.7636,0.6842,0.4425,0.1893,-0.1187,-0.456,-1.1289,-1.8319,-2.6349,-3.2669,-3.7708,-4.0247,-4.1529,-4.0885,-3.7888,-3.5042,-3.2033,-3.1885,-3.1727,-3.3384,-3.501,-3.5942,-3.6141,-3.4509,-3.226,-2.9835,-2.7181,-2.4759,-2.313,-2.2257,-2.1741,-2.0879,-1.962,-1.8788,-1.7438,1.3787,1.6073,1.7317,1.7975,1.8296,1.9519,2.0611,2.1596,2.2477,2.3122,2.3806,2.5392,2.5275,2.4274,2.4123,2.3672,2.2818,2.2086,2.1432,2.077,2.0124,1.9767,1.9489,1.8832,1.7676,1.6115,1.4154,1.074,0.8144,0.475,0.122,-0.3887,-1.0675,-1.6934,-2.4368,-3.0458,-3.5891,-3.9333,-4.1865,-4.3323,-4.5092,-4.4609,-4.4556,-4.446,-4.3688,-4.3476,-4.3519,-4.3509,-4.2341,-4.0304,-3.7661,-3.3861,-2.884,-2.3496,-1.7991,-1.2983,-0.8389,-0.4364,-0.1909,-0.0179,0.073,0.1865,0.2219,0.2693,0.3352,0.3995,0.4133,0.4292,0.485,0.5288,0.518,0.5372,0.5664,0.5974,0.6272,0.6705,0.8114,0.8933,0.9748,1.0278,0.9472,0.837,0.4024,0.0784,-0.43,-0.8093,-1.4176,-1.9604,-2.4454,-2.9603,-3.2549,-3.4175,-3.428,-3.2995,-3.1034,-2.9952,-2.9042,-3.0307,-3.0571,-3.2284,-3.3654,-3.4769,-3.4594,-3.2535,-3.0186,-2.7557,-2.503,-2.277,-2.1268,-2.0237,-1.9929,-1.9832,-1.9943,-1.912,-1.8152,1.4306,1.751,1.8214,1.9165,2.0154,2.1076,2.2342,2.348,2.3989,2.4307,2.4607,2.5479,2.5026,2.3913,2.3824,2.3123,2.2192,2.1379,2.089,2.0568,1.9838,1.9404,1.9154,1.867,1.8111,1.7653,1.6194,1.4585,1.3406,1.1176,0.8626,0.434,-0.2576,-1.0151,-1.7317,-2.7302,-3.4141,-3.8077,-4.1373,-4.3477,-4.4675,-4.4553,-4.5015,-4.5419,-4.4749,-4.443,-4.535,-4.5352,-4.3978,-4.1588,-3.873,-3.4292,-2.834,-2.2303,-1.6558,-1.1063,-0.6385,-0.2718,-0.0077,0.1501,0.2001,0.1777,0.1988,0.2243,0.3005,0.3622,0.415,0.435,0.5007,0.5305,0.5383,0.5472,0.5747,0.606,0.6374,0.7666,0.9115,1.0803,1.1716,1.2091,1.1274,0.9579,0.4225,-0.0938,-0.7191,-1.2414,-1.7681,-2.1534,-2.4045,-2.5924,-2.8255,-2.826,-2.815,-2.7392,-2.6369,-2.6215,-2.6182,-2.7622,-2.9349,-3.1363,-3.2519,-3.3359,-3.2491,-3.0714,-2.7984,-2.5029,-2.3018,-2.0803,-1.9346,-1.805,-1.883,-1.9184,-1.9576,-1.9446,-1.8016,1.4347,1.7214,1.8084,1.9358,2.0969,2.2035,2.2908,2.3473,2.4059,2.4297,2.4222,2.4403,2.4226,2.3537,2.2769,2.2115,2.1427,2.1515,2.1179,1.9844,1.953,1.9585,1.9277,1.8708,1.8341,1.8385,1.7721,1.7269,1.6765,1.481,1.3601,0.9911,-0.1986,-1.117,-2.0126,-2.8663,-3.4588,-3.8365,-4.1208,-4.3254,-4.4523,-4.4792,-4.524,-4.6176,-4.5138,-4.5394,-4.6725,-4.6609,-4.4956,-4.2207,-3.9069,-3.3756,-2.739,-2.108,-1.4781,-0.9114,-0.4221,-0.0977,0.1216,0.2625,0.2679,0.2224,0.1848,0.2173,0.317,0.3694,0.4144,0.4602,0.5124,0.5355,0.5374,0.5455,0.5709,0.6092,0.6899,0.9066,1.0809,1.2695,1.3939,1.393,1.3397,0.7918,0.2574,-0.1445,-0.7196,-1.1534,-1.6007,-1.8936,-2.1392,-2.2023,-2.3413,-2.2764,-2.2309,-2.1809,-2.1586,-2.295,-2.4694,-2.6429,-2.8688,-3.0648,-3.175,-3.2144,-3.0284,-2.8186,-2.531,-2.2616,-2.024,-1.8128,-1.6996,-1.615,-1.6627,-1.755,-1.8259,-1.7982,-1.719,1.424,1.693,1.7817,1.9334,2.1176,2.2226,2.2875,2.3341,2.3631,2.3763,2.3819,2.3434,2.2873,2.2414,2.1827,2.105,2.0576,2.0533,2.0533,1.921,1.9325,1.9027,1.8598,1.8405,1.7963,1.8194,1.8426,1.8299,1.7498,1.5309,0.983,0.1722,-0.664,-1.5982,-2.3972,-3.0011,-3.495,-3.8405,-4.1077,-4.3154,-4.4209,-4.497,-4.5731,-4.614,-4.6158,-4.6345,-4.7052,-4.6616,-4.5116,-4.2026,-3.772,-3.2369,-2.5738,-1.8926,-1.2456,-0.6671,-0.1933,0.0748,0.2042,0.2447,0.245,0.2489,0.206,0.2479,0.3368,0.3872,0.4248,0.4694,0.5259,0.5376,0.5396,0.548,0.578,0.6158,0.7708,0.9836,1.2268,1.4098,1.5192,1.523,1.3208,0.7334,0.156,-0.2575,-0.6838,-1.0413,-1.4002,-1.6181,-1.8322,-1.9056,-1.9191,-1.8752,-1.8681,-1.8972,-1.9742,-2.1174,-2.3004,-2.542,-2.7628,-3.007,-3.007,-3.0292,-2.781,-2.545,-2.2599,-1.9849,-1.7376,-1.5365,-1.4428,-1.3906,-1.3835,-1.5135,-1.6474,-1.6525,-1.5839,1.4096,1.6875,1.7627,1.9107,2.093,2.1674,2.2632,2.3721,2.2979,2.3217,2.4067,2.2646,2.183,2.0984,2.0868,2.0443,1.986,1.94,1.9266,1.8958,1.8598,1.8015,1.7558,1.7244,1.7041,1.7041,1.6405,1.4979,1.6028,0.9645,0.0812,-0.7955,-1.4609,-2.1521,-2.698,-3.1874,-3.5748,-3.8447,-4.1167,-4.2849,-4.3834,-4.5031,-4.5835,-4.6382,-4.6824,-4.7286,-4.7336,-4.6283,-4.3807,-4.0288,-3.5851,-2.9433,-2.2673,-1.5605,-0.9439,-0.3771,0.1117,0.2088,0.2084,0.2184,0.2311,0.2578,0.2614,0.3118,0.3595,0.3946,0.4223,0.4689,0.5198,0.533,0.5426,0.565,0.5891,0.6952,0.8252,1.058,1.3283,1.4896,1.59,1.5339,1.3271,0.8603,0.2795,-0.1777,-0.482,-0.7645,-1.0525,-1.2519,-1.4555,-1.6261,-1.6285,-1.5986,-1.5971,-1.6674,-1.7878,-2.006,-2.2583,-2.5208,-2.6958,-2.8929,-2.8735,-2.7669,-2.4935,-2.2368,-1.9782,-1.7239,-1.4919,-1.3541,-1.2563,-1.2054,-1.1372,-1.238,-1.3907,-1.4706,-1.4293,1.4162,1.6393,1.719,1.8473,1.9967,2.0808,2.1953,2.3006,2.2611,2.2591,2.2678,2.2094,2.1105,2.0385,2.0342,1.9623,1.9223,1.8934,1.8864,1.8448,1.7836,1.7478,1.6928,1.6298,1.593,1.4294,1.2459,1.0199,0.738,0.1757,-0.4792,-1.2298,-1.9082,-2.4843,-3.0133,-3.4908,-3.6601,-3.8508,-4.1179,-4.2444,-4.333,-4.4417,-4.5353,-4.6044,-4.6464,-4.6806,-4.5993,-4.3294,-4.0426,-3.711,-3.2118,-2.5788,-1.8233,-1.2118,-0.6244,0.0115,0.2959,0.3847,0.2693,0.2697,0.2823,0.2627,0.2675,0.3047,0.3496,0.3863,0.4166,0.471,0.5143,0.5349,0.5502,0.5712,0.6196,0.7272,0.8784,1.1097,1.355,1.4967,1.5775,1.424,1.2188,0.8681,0.3096,0.0737,-0.2049,-0.4633,-0.6914,-0.9093,-1.1396,-1.3248,-1.4441,-1.411,-1.4779,-1.5971,-1.7947,-2.0065,-2.2474,-2.4935,-2.6411,-2.7193,-2.6631,-2.4958,-2.1915,-1.9229,-1.6724,-1.4769,-1.2825,-1.1668,-1.09,-0.94,-0.8701,-0.9853,-1.1028,-1.1806,-1.2555,1.3708,1.5605,1.6759,1.8218,1.9797,2.0527,2.1142,2.1523,2.1559,2.1534,2.1332,2.0865,2.0108,1.912,1.9126,1.8893,1.8139,1.8111,1.7962,1.7553,1.7011,1.6328,1.5715,1.529,1.4736,1.2455,0.939,0.6514,0.1707,-0.6046,-1.3105,-2.0289,-2.3694,-2.7455,-3.2172,-3.5187,-3.6925,-3.864,-4.0381,-4.1875,-4.2835,-4.363,-4.4541,-4.5021,-4.5416,-4.5295,-4.3504,-4.0021,-3.6763,-3.3141,-2.7931,-2.1791,-1.4284,-0.796,-0.2893,0.2669,0.3783,0.4194,0.3615,0.3238,0.3066,0.2796,0.2685,0.3007,0.336,0.3749,0.4275,0.4814,0.5135,0.5444,0.5589,0.5837,0.6595,0.7407,0.9462,1.1523,1.3198,1.4809,1.4069,1.2676,1.0192,0.7222,0.4428,0.2586,0.0806,-0.1558,-0.3918,-0.6261,-0.8832,-1.1399,-1.301,-1.3756,-1.4688,-1.5798,-1.773,-1.9562,-2.1465,-2.3138,-2.4239,-2.4774,-2.4138,-2.2695,-2.0019,-1.6914,-1.3777,-1.2229,-1.0873,-1.0087,-0.914,-0.7472,-0.6164,-0.6838,-0.796,-0.9319,-1.0016,1.2894,1.4767,1.6346,1.8172,2.0001,2.0379,2.0162,1.9436,2.0095,2.0265,2.001,1.9574,1.8753,1.8078,1.8104,1.8126,1.7556,1.7293,1.6871,1.6403,1.5548,1.4925,1.4556,1.4042,1.3398,1.1353,0.6919,0.0672,-0.321,-1.0801,-2.0299,-2.9344,-2.8639,-3.0024,-3.2497,-3.4735,-3.6341,-3.7861,-3.96,-4.1205,-4.2019,-4.3034,-4.3952,-4.4088,-4.4638,-4.4738,-4.1101,-3.7466,-3.3728,-2.8596,-2.3315,-1.7451,-1.0023,-0.3912,0.0997,0.3227,0.424,0.4431,0.425,0.3824,0.3191,0.2887,0.2734,0.297,0.3281,0.3674,0.4228,0.4813,0.5194,0.5508,0.5691,0.5963,0.6568,0.7701,0.9395,1.1149,1.2622,1.3223,1.2165,1.0686,0.8856,0.6181,0.5514,0.3692,0.289,0.1139,-0.119,-0.36,-0.6341,-0.9463,-1.1287,-1.2847,-1.4311,-1.5377,-1.6992,-1.8625,-2.005,-2.1546,-2.2152,-2.2181,-2.1606,-2.0126,-1.8391,-1.5247,-1.2303,-1.0525,-0.9175,-0.806,-0.6568,-0.5069,-0.4133,-0.3955,-0.5009,-0.6529,-0.8023,1.262,1.3937,1.6187,1.7802,1.8715,1.9273,1.9208,1.8655,1.8873,1.8841,1.8733,1.9191,1.8877,1.7655,1.7502,1.7476,1.712,1.6336,1.5792,1.4947,1.4082,1.3538,1.3334,1.2783,1.1938,0.8287,0.2323,-0.635,-1.3555,-1.9438,-2.2724,-2.6428,-2.7226,-2.8891,-3.2234,-3.4056,-3.5426,-3.7045,-3.8535,-4.0013,-4.0917,-4.1675,-4.243,-4.1905,-4.1923,-4.0202,-3.639,-3.1576,-2.7434,-2.2805,-1.8147,-1.1696,-0.4271,-0.0521,0.2117,0.3818,0.4383,0.4583,0.4606,0.4185,0.3531,0.3018,0.2843,0.292,0.318,0.3607,0.4128,0.4752,0.5191,0.5498,0.5829,0.6126,0.6627,0.792,0.9091,1.0528,1.187,1.0997,1.0083,0.8659,0.7155,0.6435,0.5837,0.5299,0.4598,0.2807,0.0463,-0.2001,-0.4657,-0.7483,-0.9501,-1.1148,-1.3435,-1.4895,-1.6205,-1.6785,-1.7669,-1.8372,-1.8918,-1.8905,-1.8862,-1.7365,-1.5581,-1.3394,-1.1047,-0.9142,-0.7259,-0.5188,-0.387,-0.2725,-0.1965,-0.1784,-0.2795,-0.4256,-0.591,1.2351,1.3732,1.6194,1.7696,1.8363,1.8929,1.8559,1.7773,1.8067,1.7759,1.7314,1.8293,1.8382,1.7356,1.7129,1.6634,1.6268,1.5395,1.4495,1.357,1.2686,1.2085,1.171,1.1369,0.9964,0.6463,-0.2387,-1.173,-1.9752,-2.3144,-2.3871,-2.5002,-2.5724,-2.7654,-3.1306,-3.2952,-3.4487,-3.6421,-3.7619,-3.8575,-3.9489,-4.0043,-4.0022,-3.9292,-3.8442,-3.6273,-3.0257,-2.524,-2.0616,-1.693,-1.29,-0.8493,-0.3191,-0.0322,0.1792,0.3256,0.4095,0.4556,0.473,0.4465,0.387,0.3452,0.3053,0.3189,0.3117,0.3562,0.4202,0.4772,0.4876,0.5158,0.5767,0.616,0.6698,0.7703,0.8212,0.9027,0.9362,0.8844,0.7873,0.6727,0.5934,0.603,0.5738,0.6149,0.5586,0.564,0.3127,0.0272,-0.2547,-0.4852,-0.7027,-0.8698,-1.0448,-1.243,-1.3722,-1.4102,-1.4467,-1.5104,-1.5564,-1.5527,-1.5392,-1.4177,-1.2801,-1.1192,-0.9479,-0.7834,-0.5753,-0.3477,-0.1934,-0.0777,-0.0197,0.0398,-0.1003,-0.2419,-0.4258,1.2167,1.3974,1.6101,1.7484,1.8259,1.8659,1.7985,1.6844,1.7179,1.6831,1.6112,1.7106,1.7061,1.6835,1.6338,1.5676,1.4948,1.4171,1.3233,1.225,1.1282,1.0672,1.0202,0.9775,0.7888,0.3671,-0.3785,-0.9096,-1.4613,-1.7771,-2.0492,-2.3079,-2.5147,-2.6803,-2.973,-3.1756,-3.3264,-3.5462,-3.6755,-3.7228,-3.7681,-3.7976,-3.7435,-3.7045,-3.6075,-3.2889,-2.5651,-1.8944,-1.4054,-1.1696,-0.9265,-0.5667,-0.2972,-0.0617,0.1039,0.2521,0.3412,0.4281,0.4984,0.4599,0.4306,0.4006,0.3636,0.3423,0.3388,0.3635,0.4267,0.4586,0.4694,0.5026,0.5668,0.6199,0.6757,0.7177,0.7439,0.7602,0.7366,0.71,0.6186,0.5179,0.518,0.5394,0.5692,0.6158,0.6594,0.6824,0.5571,0.2931,0.035,-0.1474,-0.3515,-0.478,-0.5954,-0.8033,-1.0187,-1.0932,-1.0878,-1.1504,-1.1867,-1.1992,-1.1831,-1.1253,-1.0635,-0.9577,-0.7903,-0.6093,-0.4047,-0.1945,-0.0389,0.0779,0.158,0.1803,0.0,-0.1614,-0.3236,1.213,1.4556,1.533,1.6177,1.7062,1.7155,1.6824,1.6333,1.546,1.5231,1.5586,1.5466,1.5602,1.6002,1.5054,1.4468,1.4212,1.3198,1.2092,1.1048,0.9997,0.9337,0.8651,0.7819,0.5201,0.1571,-0.2084,-0.5155,-0.89,-1.1572,-1.6232,-2.2451,-2.1096,-2.3861,-2.9005,-3.0867,-3.2593,-3.4769,-3.6012,-3.6572,-3.662,-3.6393,-3.5256,-3.4493,-3.3558,-2.8307,-2.1736,-1.4597,-1.1888,-0.9869,-0.7669,-0.4779,-0.2955,-0.1537,0.0,0.1349,0.2305,0.3693,0.4221,0.4298,0.4133,0.4671,0.4336,0.4002,0.3916,0.3788,0.4279,0.456,0.4752,0.5055,0.5591,0.6021,0.6537,0.6753,0.6976,0.69,0.6744,0.6383,0.5764,0.5057,0.469,0.4756,0.4799,0.544,0.6288,0.6271,0.5862,0.3542,0.2898,0.1351,-0.019,-0.0828,-0.1571,-0.3109,-0.4904,-0.6501,-0.6888,-0.7694,-0.8195,-0.8315,-0.8561,-0.8939,-0.814,-0.7313,-0.6165,-0.4561,-0.231,-0.0586,0.0788,0.1976,0.2996,0.3023,0.1009,-0.081,-0.2444]}]]